<?xml version="1.0" encoding="UTF-8" standalone="no" ?>
<gpx xmlns="http://www.topografix.com/GPX/1/1" xmlns:xsi="http://www.w3.org/2001/XMLSchema-instance" xsi:schemaLocation="http://www.topografix.com/GPX/1/1 http://www.topografix.com/GPX/1/1/gpx.xsd" version="1.1" creator="VisuGPX - https://www.visugpx.com">
  <metadata>
    <name>Velotaf IFP -&gt; Lyon 3</name>
    <desc><![CDATA[Velotaf IFP -> Lyon 3]]></desc>
  </metadata>
  <trk>
    <name><![CDATA[Velotaf]]></name>
    <trkseg>
      <trkpt lat="45.6447" lon="4.82919">
        <ele>160.7</ele>
        <time>2015-09-23T14:46:52Z</time>
      </trkpt>
      <trkpt lat="45.64486" lon="4.82948">
        <ele>160.7</ele>
        <time>2015-09-23T14:46:54Z</time>
      </trkpt>
      <trkpt lat="45.64479" lon="4.82957">
        <ele>160.5</ele>
        <time>2015-09-23T14:46:55Z</time>
      </trkpt>
      <trkpt lat="45.64482" lon="4.82925">
        <ele>160.9</ele>
        <time>2015-09-23T14:46:57Z</time>
      </trkpt>
      <trkpt lat="45.64503" lon="4.82915">
        <ele>161.3</ele>
        <time>2015-09-23T14:46:59Z</time>
      </trkpt>
      <trkpt lat="45.64495" lon="4.82914">
        <ele>161.2</ele>
        <time>2015-09-23T14:47:00Z</time>
      </trkpt>
      <trkpt lat="45.64493" lon="4.82918">
        <ele>161.1</ele>
        <time>2015-09-23T14:47:01Z</time>
      </trkpt>
      <trkpt lat="45.64475" lon="4.82935">
        <ele>160.6</ele>
        <time>2015-09-23T14:47:03Z</time>
      </trkpt>
      <trkpt lat="45.64486" lon="4.82937">
        <ele>160.8</ele>
        <time>2015-09-23T14:47:04Z</time>
      </trkpt>
      <trkpt lat="45.64483" lon="4.82943">
        <ele>160.7</ele>
        <time>2015-09-23T14:47:07Z</time>
      </trkpt>
      <trkpt lat="45.64493" lon="4.82937">
        <ele>161</ele>
        <time>2015-09-23T14:48:15Z</time>
      </trkpt>
      <trkpt lat="45.64496" lon="4.82931">
        <ele>161.1</ele>
        <time>2015-09-23T14:48:17Z</time>
      </trkpt>
      <trkpt lat="45.64498" lon="4.82928">
        <ele>161.1</ele>
        <time>2015-09-23T14:48:18Z</time>
      </trkpt>
      <trkpt lat="45.64499" lon="4.82924">
        <ele>161.2</ele>
        <time>2015-09-23T14:48:19Z</time>
      </trkpt>
      <trkpt lat="45.645" lon="4.82919">
        <ele>161.2</ele>
        <time>2015-09-23T14:48:20Z</time>
      </trkpt>
      <trkpt lat="45.64502" lon="4.82914">
        <ele>161.3</ele>
        <time>2015-09-23T14:48:21Z</time>
      </trkpt>
      <trkpt lat="45.64504" lon="4.8291">
        <ele>161.4</ele>
        <time>2015-09-23T14:48:22Z</time>
      </trkpt>
      <trkpt lat="45.64506" lon="4.82905">
        <ele>161.4</ele>
        <time>2015-09-23T14:48:23Z</time>
      </trkpt>
      <trkpt lat="45.64508" lon="4.82899">
        <ele>161.5</ele>
        <time>2015-09-23T14:48:24Z</time>
      </trkpt>
      <trkpt lat="45.64507" lon="4.82892">
        <ele>161.5</ele>
        <time>2015-09-23T14:48:25Z</time>
      </trkpt>
      <trkpt lat="45.64506" lon="4.82887">
        <ele>161.5</ele>
        <time>2015-09-23T14:48:26Z</time>
      </trkpt>
      <trkpt lat="45.64503" lon="4.82883">
        <ele>161.5</ele>
        <time>2015-09-23T14:48:27Z</time>
      </trkpt>
      <trkpt lat="45.64499" lon="4.82881">
        <ele>161.4</ele>
        <time>2015-09-23T14:48:28Z</time>
      </trkpt>
      <trkpt lat="45.64493" lon="4.82883">
        <ele>161.4</ele>
        <time>2015-09-23T14:48:29Z</time>
      </trkpt>
      <trkpt lat="45.64489" lon="4.82883">
        <ele>161.3</ele>
        <time>2015-09-23T14:48:30Z</time>
      </trkpt>
      <trkpt lat="45.64484" lon="4.82883">
        <ele>161.2</ele>
        <time>2015-09-23T14:48:31Z</time>
      </trkpt>
      <trkpt lat="45.64478" lon="4.82884">
        <ele>161.2</ele>
        <time>2015-09-23T14:48:32Z</time>
      </trkpt>
      <trkpt lat="45.64473" lon="4.82884">
        <ele>161.1</ele>
        <time>2015-09-23T14:48:33Z</time>
      </trkpt>
      <trkpt lat="45.64467" lon="4.82884">
        <ele>161</ele>
        <time>2015-09-23T14:48:34Z</time>
      </trkpt>
      <trkpt lat="45.6446" lon="4.82883">
        <ele>160.9</ele>
        <time>2015-09-23T14:48:35Z</time>
      </trkpt>
      <trkpt lat="45.64455" lon="4.82883">
        <ele>160.9</ele>
        <time>2015-09-23T14:48:36Z</time>
      </trkpt>
      <trkpt lat="45.64449" lon="4.82883">
        <ele>160.9</ele>
        <time>2015-09-23T14:48:37Z</time>
      </trkpt>
      <trkpt lat="45.64443" lon="4.82882">
        <ele>160.9</ele>
        <time>2015-09-23T14:48:38Z</time>
      </trkpt>
      <trkpt lat="45.64436" lon="4.82881">
        <ele>160.9</ele>
        <time>2015-09-23T14:48:39Z</time>
      </trkpt>
      <trkpt lat="45.6443" lon="4.82881">
        <ele>160.9</ele>
        <time>2015-09-23T14:48:40Z</time>
      </trkpt>
      <trkpt lat="45.64424" lon="4.82881">
        <ele>160.9</ele>
        <time>2015-09-23T14:48:41Z</time>
      </trkpt>
      <trkpt lat="45.64419" lon="4.8288">
        <ele>160.9</ele>
        <time>2015-09-23T14:48:42Z</time>
      </trkpt>
      <trkpt lat="45.64413" lon="4.8288">
        <ele>160.9</ele>
        <time>2015-09-23T14:48:43Z</time>
      </trkpt>
      <trkpt lat="45.64408" lon="4.82879">
        <ele>160.9</ele>
        <time>2015-09-23T14:48:44Z</time>
      </trkpt>
      <trkpt lat="45.64402" lon="4.82877">
        <ele>161</ele>
        <time>2015-09-23T14:48:45Z</time>
      </trkpt>
      <trkpt lat="45.64397" lon="4.82874">
        <ele>161</ele>
        <time>2015-09-23T14:48:46Z</time>
      </trkpt>
      <trkpt lat="45.64392" lon="4.82869">
        <ele>161</ele>
        <time>2015-09-23T14:48:47Z</time>
      </trkpt>
      <trkpt lat="45.64387" lon="4.82864">
        <ele>161</ele>
        <time>2015-09-23T14:48:48Z</time>
      </trkpt>
      <trkpt lat="45.64383" lon="4.82857">
        <ele>161</ele>
        <time>2015-09-23T14:48:49Z</time>
      </trkpt>
      <trkpt lat="45.64378" lon="4.82851">
        <ele>161</ele>
        <time>2015-09-23T14:48:50Z</time>
      </trkpt>
      <trkpt lat="45.64376" lon="4.82845">
        <ele>161</ele>
        <time>2015-09-23T14:48:51Z</time>
      </trkpt>
      <trkpt lat="45.64372" lon="4.82839">
        <ele>161.1</ele>
        <time>2015-09-23T14:48:52Z</time>
      </trkpt>
      <trkpt lat="45.64368" lon="4.82832">
        <ele>161.1</ele>
        <time>2015-09-23T14:48:53Z</time>
      </trkpt>
      <trkpt lat="45.64364" lon="4.82826">
        <ele>161.2</ele>
        <time>2015-09-23T14:48:54Z</time>
      </trkpt>
      <trkpt lat="45.64361" lon="4.82821">
        <ele>161.2</ele>
        <time>2015-09-23T14:48:55Z</time>
      </trkpt>
      <trkpt lat="45.64357" lon="4.82814">
        <ele>161.3</ele>
        <time>2015-09-23T14:48:56Z</time>
      </trkpt>
      <trkpt lat="45.64353" lon="4.82809">
        <ele>161.3</ele>
        <time>2015-09-23T14:48:57Z</time>
      </trkpt>
      <trkpt lat="45.6435" lon="4.82803">
        <ele>161.3</ele>
        <time>2015-09-23T14:48:58Z</time>
      </trkpt>
      <trkpt lat="45.64347" lon="4.82797">
        <ele>161.4</ele>
        <time>2015-09-23T14:48:59Z</time>
      </trkpt>
      <trkpt lat="45.64343" lon="4.82794">
        <ele>161.4</ele>
        <time>2015-09-23T14:49:00Z</time>
      </trkpt>
      <trkpt lat="45.6434" lon="4.82789">
        <ele>161.5</ele>
        <time>2015-09-23T14:49:01Z</time>
      </trkpt>
      <trkpt lat="45.64335" lon="4.82782">
        <ele>161.6</ele>
        <time>2015-09-23T14:49:02Z</time>
      </trkpt>
      <trkpt lat="45.64332" lon="4.82776">
        <ele>161.7</ele>
        <time>2015-09-23T14:49:03Z</time>
      </trkpt>
      <trkpt lat="45.64328" lon="4.8277">
        <ele>161.8</ele>
        <time>2015-09-23T14:49:04Z</time>
      </trkpt>
      <trkpt lat="45.64323" lon="4.82761">
        <ele>162</ele>
        <time>2015-09-23T14:49:05Z</time>
      </trkpt>
      <trkpt lat="45.64318" lon="4.82755">
        <ele>162.1</ele>
        <time>2015-09-23T14:49:06Z</time>
      </trkpt>
      <trkpt lat="45.64313" lon="4.82747">
        <ele>162.3</ele>
        <time>2015-09-23T14:49:07Z</time>
      </trkpt>
      <trkpt lat="45.64311" lon="4.82741">
        <ele>162.4</ele>
        <time>2015-09-23T14:49:08Z</time>
      </trkpt>
      <trkpt lat="45.64309" lon="4.82734">
        <ele>162.5</ele>
        <time>2015-09-23T14:49:09Z</time>
      </trkpt>
      <trkpt lat="45.64309" lon="4.82726">
        <ele>162.6</ele>
        <time>2015-09-23T14:49:10Z</time>
      </trkpt>
      <trkpt lat="45.64307" lon="4.82718">
        <ele>162.7</ele>
        <time>2015-09-23T14:49:11Z</time>
      </trkpt>
      <trkpt lat="45.64306" lon="4.8271">
        <ele>162.8</ele>
        <time>2015-09-23T14:49:12Z</time>
      </trkpt>
      <trkpt lat="45.64303" lon="4.82703">
        <ele>162.8</ele>
        <time>2015-09-23T14:49:13Z</time>
      </trkpt>
      <trkpt lat="45.64301" lon="4.82696">
        <ele>162.7</ele>
        <time>2015-09-23T14:49:14Z</time>
      </trkpt>
      <trkpt lat="45.643" lon="4.82687">
        <ele>162.6</ele>
        <time>2015-09-23T14:49:15Z</time>
      </trkpt>
      <trkpt lat="45.643" lon="4.82678">
        <ele>162.5</ele>
        <time>2015-09-23T14:49:16Z</time>
      </trkpt>
      <trkpt lat="45.64301" lon="4.8267">
        <ele>162.4</ele>
        <time>2015-09-23T14:49:17Z</time>
      </trkpt>
      <trkpt lat="45.64299" lon="4.8266">
        <ele>162.3</ele>
        <time>2015-09-23T14:49:18Z</time>
      </trkpt>
      <trkpt lat="45.64298" lon="4.8265">
        <ele>162.2</ele>
        <time>2015-09-23T14:49:19Z</time>
      </trkpt>
      <trkpt lat="45.64295" lon="4.82643">
        <ele>162.1</ele>
        <time>2015-09-23T14:49:20Z</time>
      </trkpt>
      <trkpt lat="45.64292" lon="4.82637">
        <ele>162.1</ele>
        <time>2015-09-23T14:49:21Z</time>
      </trkpt>
      <trkpt lat="45.64287" lon="4.82631">
        <ele>162</ele>
        <time>2015-09-23T14:49:22Z</time>
      </trkpt>
      <trkpt lat="45.64283" lon="4.82627">
        <ele>161.8</ele>
        <time>2015-09-23T14:49:23Z</time>
      </trkpt>
      <trkpt lat="45.64277" lon="4.82625">
        <ele>161.6</ele>
        <time>2015-09-23T14:49:24Z</time>
      </trkpt>
      <trkpt lat="45.64271" lon="4.82623">
        <ele>161.5</ele>
        <time>2015-09-23T14:49:25Z</time>
      </trkpt>
      <trkpt lat="45.64265" lon="4.82624">
        <ele>161.3</ele>
        <time>2015-09-23T14:49:26Z</time>
      </trkpt>
      <trkpt lat="45.6426" lon="4.82627">
        <ele>161.3</ele>
        <time>2015-09-23T14:49:27Z</time>
      </trkpt>
      <trkpt lat="45.64255" lon="4.82631">
        <ele>161.2</ele>
        <time>2015-09-23T14:49:28Z</time>
      </trkpt>
      <trkpt lat="45.6425" lon="4.82635">
        <ele>161.1</ele>
        <time>2015-09-23T14:49:29Z</time>
      </trkpt>
      <trkpt lat="45.64247" lon="4.82639">
        <ele>161.1</ele>
        <time>2015-09-23T14:49:30Z</time>
      </trkpt>
      <trkpt lat="45.64245" lon="4.82644">
        <ele>161.1</ele>
        <time>2015-09-23T14:49:31Z</time>
      </trkpt>
      <trkpt lat="45.64242" lon="4.82654">
        <ele>161.2</ele>
        <time>2015-09-23T14:49:33Z</time>
      </trkpt>
      <trkpt lat="45.64242" lon="4.82658">
        <ele>161.2</ele>
        <time>2015-09-23T14:49:34Z</time>
      </trkpt>
      <trkpt lat="45.64241" lon="4.82665">
        <ele>161.3</ele>
        <time>2015-09-23T14:49:35Z</time>
      </trkpt>
      <trkpt lat="45.64242" lon="4.82674">
        <ele>161.4</ele>
        <time>2015-09-23T14:49:36Z</time>
      </trkpt>
      <trkpt lat="45.64242" lon="4.8268">
        <ele>161.5</ele>
        <time>2015-09-23T14:49:37Z</time>
      </trkpt>
      <trkpt lat="45.64244" lon="4.82686">
        <ele>161.6</ele>
        <time>2015-09-23T14:49:38Z</time>
      </trkpt>
      <trkpt lat="45.64246" lon="4.82692">
        <ele>161.7</ele>
        <time>2015-09-23T14:49:39Z</time>
      </trkpt>
      <trkpt lat="45.64247" lon="4.82699">
        <ele>161.8</ele>
        <time>2015-09-23T14:49:40Z</time>
      </trkpt>
      <trkpt lat="45.64247" lon="4.82707">
        <ele>161.9</ele>
        <time>2015-09-23T14:49:41Z</time>
      </trkpt>
      <trkpt lat="45.64245" lon="4.82714">
        <ele>161.9</ele>
        <time>2015-09-23T14:49:42Z</time>
      </trkpt>
      <trkpt lat="45.64244" lon="4.82721">
        <ele>162</ele>
        <time>2015-09-23T14:49:43Z</time>
      </trkpt>
      <trkpt lat="45.6424" lon="4.82726">
        <ele>161.9</ele>
        <time>2015-09-23T14:49:44Z</time>
      </trkpt>
      <trkpt lat="45.64237" lon="4.82732">
        <ele>162</ele>
        <time>2015-09-23T14:49:45Z</time>
      </trkpt>
      <trkpt lat="45.64235" lon="4.82738">
        <ele>162</ele>
        <time>2015-09-23T14:49:46Z</time>
      </trkpt>
      <trkpt lat="45.64232" lon="4.82744">
        <ele>162.1</ele>
        <time>2015-09-23T14:49:47Z</time>
      </trkpt>
      <trkpt lat="45.64229" lon="4.82749">
        <ele>162.1</ele>
        <time>2015-09-23T14:49:48Z</time>
      </trkpt>
      <trkpt lat="45.64226" lon="4.82755">
        <ele>162.2</ele>
        <time>2015-09-23T14:49:49Z</time>
      </trkpt>
      <trkpt lat="45.64223" lon="4.8276">
        <ele>162.3</ele>
        <time>2015-09-23T14:49:50Z</time>
      </trkpt>
      <trkpt lat="45.6422" lon="4.82766">
        <ele>162.4</ele>
        <time>2015-09-23T14:49:51Z</time>
      </trkpt>
      <trkpt lat="45.64217" lon="4.82772">
        <ele>162.5</ele>
        <time>2015-09-23T14:49:52Z</time>
      </trkpt>
      <trkpt lat="45.64213" lon="4.82777">
        <ele>162.6</ele>
        <time>2015-09-23T14:49:53Z</time>
      </trkpt>
      <trkpt lat="45.6421" lon="4.82783">
        <ele>162.8</ele>
        <time>2015-09-23T14:49:54Z</time>
      </trkpt>
      <trkpt lat="45.64206" lon="4.82792">
        <ele>163</ele>
        <time>2015-09-23T14:49:55Z</time>
      </trkpt>
      <trkpt lat="45.64201" lon="4.82798">
        <ele>163</ele>
        <time>2015-09-23T14:49:56Z</time>
      </trkpt>
      <trkpt lat="45.64197" lon="4.82802">
        <ele>163</ele>
        <time>2015-09-23T14:49:57Z</time>
      </trkpt>
      <trkpt lat="45.64192" lon="4.82807">
        <ele>163</ele>
        <time>2015-09-23T14:49:58Z</time>
      </trkpt>
      <trkpt lat="45.64188" lon="4.82813">
        <ele>163</ele>
        <time>2015-09-23T14:49:59Z</time>
      </trkpt>
      <trkpt lat="45.64186" lon="4.8282">
        <ele>163.1</ele>
        <time>2015-09-23T14:50:00Z</time>
      </trkpt>
      <trkpt lat="45.64189" lon="4.82827">
        <ele>163.2</ele>
        <time>2015-09-23T14:50:01Z</time>
      </trkpt>
      <trkpt lat="45.64191" lon="4.82835">
        <ele>163.3</ele>
        <time>2015-09-23T14:50:02Z</time>
      </trkpt>
      <trkpt lat="45.64196" lon="4.82843">
        <ele>163.5</ele>
        <time>2015-09-23T14:50:03Z</time>
      </trkpt>
      <trkpt lat="45.64202" lon="4.82848">
        <ele>163.6</ele>
        <time>2015-09-23T14:50:04Z</time>
      </trkpt>
      <trkpt lat="45.64208" lon="4.82853">
        <ele>163.7</ele>
        <time>2015-09-23T14:50:05Z</time>
      </trkpt>
      <trkpt lat="45.64214" lon="4.82857">
        <ele>163.7</ele>
        <time>2015-09-23T14:50:06Z</time>
      </trkpt>
      <trkpt lat="45.6422" lon="4.82862">
        <ele>163.7</ele>
        <time>2015-09-23T14:50:07Z</time>
      </trkpt>
      <trkpt lat="45.64226" lon="4.82869">
        <ele>163.7</ele>
        <time>2015-09-23T14:50:08Z</time>
      </trkpt>
      <trkpt lat="45.64234" lon="4.82874">
        <ele>163.7</ele>
        <time>2015-09-23T14:50:09Z</time>
      </trkpt>
      <trkpt lat="45.6424" lon="4.82882">
        <ele>163.6</ele>
        <time>2015-09-23T14:50:10Z</time>
      </trkpt>
      <trkpt lat="45.64247" lon="4.82888">
        <ele>163.5</ele>
        <time>2015-09-23T14:50:11Z</time>
      </trkpt>
      <trkpt lat="45.64253" lon="4.82896">
        <ele>163.5</ele>
        <time>2015-09-23T14:50:12Z</time>
      </trkpt>
      <trkpt lat="45.64261" lon="4.82903">
        <ele>163.4</ele>
        <time>2015-09-23T14:50:13Z</time>
      </trkpt>
      <trkpt lat="45.64268" lon="4.82911">
        <ele>163.3</ele>
        <time>2015-09-23T14:50:14Z</time>
      </trkpt>
      <trkpt lat="45.64277" lon="4.82918">
        <ele>163.2</ele>
        <time>2015-09-23T14:50:15Z</time>
      </trkpt>
      <trkpt lat="45.64287" lon="4.82925">
        <ele>163.1</ele>
        <time>2015-09-23T14:50:16Z</time>
      </trkpt>
      <trkpt lat="45.64296" lon="4.8293">
        <ele>162.8</ele>
        <time>2015-09-23T14:50:17Z</time>
      </trkpt>
      <trkpt lat="45.64304" lon="4.82937">
        <ele>162.5</ele>
        <time>2015-09-23T14:50:18Z</time>
      </trkpt>
      <trkpt lat="45.64312" lon="4.82943">
        <ele>162.1</ele>
        <time>2015-09-23T14:50:19Z</time>
      </trkpt>
      <trkpt lat="45.6432" lon="4.82946">
        <ele>161.7</ele>
        <time>2015-09-23T14:50:20Z</time>
      </trkpt>
      <trkpt lat="45.6433" lon="4.82952">
        <ele>161.2</ele>
        <time>2015-09-23T14:50:21Z</time>
      </trkpt>
      <trkpt lat="45.64339" lon="4.82958">
        <ele>160.7</ele>
        <time>2015-09-23T14:50:22Z</time>
      </trkpt>
      <trkpt lat="45.64347" lon="4.82963">
        <ele>160.4</ele>
        <time>2015-09-23T14:50:23Z</time>
      </trkpt>
      <trkpt lat="45.64356" lon="4.82971">
        <ele>160.1</ele>
        <time>2015-09-23T14:50:24Z</time>
      </trkpt>
      <trkpt lat="45.64367" lon="4.82976">
        <ele>159.8</ele>
        <time>2015-09-23T14:50:25Z</time>
      </trkpt>
      <trkpt lat="45.64377" lon="4.82984">
        <ele>159.6</ele>
        <time>2015-09-23T14:50:26Z</time>
      </trkpt>
      <trkpt lat="45.64384" lon="4.82993">
        <ele>159.9</ele>
        <time>2015-09-23T14:50:27Z</time>
      </trkpt>
      <trkpt lat="45.64392" lon="4.83001">
        <ele>160.1</ele>
        <time>2015-09-23T14:50:28Z</time>
      </trkpt>
      <trkpt lat="45.64401" lon="4.83008">
        <ele>160.3</ele>
        <time>2015-09-23T14:50:29Z</time>
      </trkpt>
      <trkpt lat="45.64409" lon="4.83017">
        <ele>160.5</ele>
        <time>2015-09-23T14:50:30Z</time>
      </trkpt>
      <trkpt lat="45.64417" lon="4.83026">
        <ele>160.7</ele>
        <time>2015-09-23T14:50:31Z</time>
      </trkpt>
      <trkpt lat="45.64425" lon="4.83034">
        <ele>160.9</ele>
        <time>2015-09-23T14:50:32Z</time>
      </trkpt>
      <trkpt lat="45.64434" lon="4.8304">
        <ele>161</ele>
        <time>2015-09-23T14:50:33Z</time>
      </trkpt>
      <trkpt lat="45.64441" lon="4.83047">
        <ele>161.1</ele>
        <time>2015-09-23T14:50:34Z</time>
      </trkpt>
      <trkpt lat="45.64449" lon="4.83054">
        <ele>161.3</ele>
        <time>2015-09-23T14:50:35Z</time>
      </trkpt>
      <trkpt lat="45.64456" lon="4.83061">
        <ele>161.5</ele>
        <time>2015-09-23T14:50:36Z</time>
      </trkpt>
      <trkpt lat="45.64463" lon="4.8307">
        <ele>161.7</ele>
        <time>2015-09-23T14:50:37Z</time>
      </trkpt>
      <trkpt lat="45.64469" lon="4.83078">
        <ele>161.9</ele>
        <time>2015-09-23T14:50:38Z</time>
      </trkpt>
      <trkpt lat="45.64477" lon="4.83085">
        <ele>162</ele>
        <time>2015-09-23T14:50:39Z</time>
      </trkpt>
      <trkpt lat="45.64484" lon="4.83093">
        <ele>162.1</ele>
        <time>2015-09-23T14:50:40Z</time>
      </trkpt>
      <trkpt lat="45.64491" lon="4.831">
        <ele>162.1</ele>
        <time>2015-09-23T14:50:41Z</time>
      </trkpt>
      <trkpt lat="45.64498" lon="4.83109">
        <ele>162</ele>
        <time>2015-09-23T14:50:42Z</time>
      </trkpt>
      <trkpt lat="45.64505" lon="4.83116">
        <ele>161.9</ele>
        <time>2015-09-23T14:50:43Z</time>
      </trkpt>
      <trkpt lat="45.64511" lon="4.83123">
        <ele>161.8</ele>
        <time>2015-09-23T14:50:44Z</time>
      </trkpt>
      <trkpt lat="45.64517" lon="4.83132">
        <ele>161.6</ele>
        <time>2015-09-23T14:50:45Z</time>
      </trkpt>
      <trkpt lat="45.64523" lon="4.83138">
        <ele>161.6</ele>
        <time>2015-09-23T14:50:46Z</time>
      </trkpt>
      <trkpt lat="45.64531" lon="4.83144">
        <ele>161.5</ele>
        <time>2015-09-23T14:50:47Z</time>
      </trkpt>
      <trkpt lat="45.64539" lon="4.8315">
        <ele>161.4</ele>
        <time>2015-09-23T14:50:48Z</time>
      </trkpt>
      <trkpt lat="45.64546" lon="4.83158">
        <ele>161.4</ele>
        <time>2015-09-23T14:50:49Z</time>
      </trkpt>
      <trkpt lat="45.64552" lon="4.83165">
        <ele>161.4</ele>
        <time>2015-09-23T14:50:50Z</time>
      </trkpt>
      <trkpt lat="45.6456" lon="4.83172">
        <ele>161.4</ele>
        <time>2015-09-23T14:50:51Z</time>
      </trkpt>
      <trkpt lat="45.64566" lon="4.83179">
        <ele>161.4</ele>
        <time>2015-09-23T14:50:52Z</time>
      </trkpt>
      <trkpt lat="45.64573" lon="4.83187">
        <ele>161.3</ele>
        <time>2015-09-23T14:50:53Z</time>
      </trkpt>
      <trkpt lat="45.6458" lon="4.83193">
        <ele>161.1</ele>
        <time>2015-09-23T14:50:54Z</time>
      </trkpt>
      <trkpt lat="45.64588" lon="4.83199">
        <ele>161</ele>
        <time>2015-09-23T14:50:55Z</time>
      </trkpt>
      <trkpt lat="45.64595" lon="4.83206">
        <ele>160.8</ele>
        <time>2015-09-23T14:50:56Z</time>
      </trkpt>
      <trkpt lat="45.64602" lon="4.83212">
        <ele>160.6</ele>
        <time>2015-09-23T14:50:57Z</time>
      </trkpt>
      <trkpt lat="45.64609" lon="4.83218">
        <ele>160.5</ele>
        <time>2015-09-23T14:50:58Z</time>
      </trkpt>
      <trkpt lat="45.64616" lon="4.83224">
        <ele>160.4</ele>
        <time>2015-09-23T14:50:59Z</time>
      </trkpt>
      <trkpt lat="45.64622" lon="4.83231">
        <ele>160.3</ele>
        <time>2015-09-23T14:51:00Z</time>
      </trkpt>
      <trkpt lat="45.64627" lon="4.83238">
        <ele>160.4</ele>
        <time>2015-09-23T14:51:01Z</time>
      </trkpt>
      <trkpt lat="45.64633" lon="4.83244">
        <ele>160.4</ele>
        <time>2015-09-23T14:51:02Z</time>
      </trkpt>
      <trkpt lat="45.6464" lon="4.83252">
        <ele>160.4</ele>
        <time>2015-09-23T14:51:03Z</time>
      </trkpt>
      <trkpt lat="45.64646" lon="4.83258">
        <ele>160.4</ele>
        <time>2015-09-23T14:51:04Z</time>
      </trkpt>
      <trkpt lat="45.64653" lon="4.83264">
        <ele>160.3</ele>
        <time>2015-09-23T14:51:05Z</time>
      </trkpt>
      <trkpt lat="45.6466" lon="4.83271">
        <ele>160.2</ele>
        <time>2015-09-23T14:51:06Z</time>
      </trkpt>
      <trkpt lat="45.64667" lon="4.83276">
        <ele>160.1</ele>
        <time>2015-09-23T14:51:07Z</time>
      </trkpt>
      <trkpt lat="45.64674" lon="4.83283">
        <ele>159.9</ele>
        <time>2015-09-23T14:51:08Z</time>
      </trkpt>
      <trkpt lat="45.6468" lon="4.8329">
        <ele>159.7</ele>
        <time>2015-09-23T14:51:09Z</time>
      </trkpt>
      <trkpt lat="45.64688" lon="4.83296">
        <ele>159.5</ele>
        <time>2015-09-23T14:51:10Z</time>
      </trkpt>
      <trkpt lat="45.64694" lon="4.83301">
        <ele>159.5</ele>
        <time>2015-09-23T14:51:11Z</time>
      </trkpt>
      <trkpt lat="45.64702" lon="4.83308">
        <ele>159.4</ele>
        <time>2015-09-23T14:51:12Z</time>
      </trkpt>
      <trkpt lat="45.64708" lon="4.83312">
        <ele>159.3</ele>
        <time>2015-09-23T14:51:13Z</time>
      </trkpt>
      <trkpt lat="45.64714" lon="4.83318">
        <ele>159.5</ele>
        <time>2015-09-23T14:51:14Z</time>
      </trkpt>
      <trkpt lat="45.64721" lon="4.83324">
        <ele>159.9</ele>
        <time>2015-09-23T14:51:15Z</time>
      </trkpt>
      <trkpt lat="45.64727" lon="4.8333">
        <ele>160.2</ele>
        <time>2015-09-23T14:51:16Z</time>
      </trkpt>
      <trkpt lat="45.64733" lon="4.83335">
        <ele>160.4</ele>
        <time>2015-09-23T14:51:17Z</time>
      </trkpt>
      <trkpt lat="45.64739" lon="4.83341">
        <ele>160.6</ele>
        <time>2015-09-23T14:51:18Z</time>
      </trkpt>
      <trkpt lat="45.64745" lon="4.83347">
        <ele>160.8</ele>
        <time>2015-09-23T14:51:19Z</time>
      </trkpt>
      <trkpt lat="45.64754" lon="4.83352">
        <ele>161.1</ele>
        <time>2015-09-23T14:51:20Z</time>
      </trkpt>
      <trkpt lat="45.6476" lon="4.83358">
        <ele>161.3</ele>
        <time>2015-09-23T14:51:21Z</time>
      </trkpt>
      <trkpt lat="45.64766" lon="4.83364">
        <ele>161.4</ele>
        <time>2015-09-23T14:51:22Z</time>
      </trkpt>
      <trkpt lat="45.64773" lon="4.8337">
        <ele>161.6</ele>
        <time>2015-09-23T14:51:23Z</time>
      </trkpt>
      <trkpt lat="45.6478" lon="4.83375">
        <ele>161.7</ele>
        <time>2015-09-23T14:51:24Z</time>
      </trkpt>
      <trkpt lat="45.64787" lon="4.83381">
        <ele>161.8</ele>
        <time>2015-09-23T14:51:25Z</time>
      </trkpt>
      <trkpt lat="45.64793" lon="4.83388">
        <ele>161.8</ele>
        <time>2015-09-23T14:51:26Z</time>
      </trkpt>
      <trkpt lat="45.648" lon="4.83394">
        <ele>161.6</ele>
        <time>2015-09-23T14:51:27Z</time>
      </trkpt>
      <trkpt lat="45.64807" lon="4.834">
        <ele>161.4</ele>
        <time>2015-09-23T14:51:28Z</time>
      </trkpt>
      <trkpt lat="45.64814" lon="4.83406">
        <ele>161.2</ele>
        <time>2015-09-23T14:51:29Z</time>
      </trkpt>
      <trkpt lat="45.6482" lon="4.83413">
        <ele>161</ele>
        <time>2015-09-23T14:51:30Z</time>
      </trkpt>
      <trkpt lat="45.64825" lon="4.83421">
        <ele>160.9</ele>
        <time>2015-09-23T14:51:31Z</time>
      </trkpt>
      <trkpt lat="45.64831" lon="4.83427">
        <ele>160.7</ele>
        <time>2015-09-23T14:51:32Z</time>
      </trkpt>
      <trkpt lat="45.64837" lon="4.83433">
        <ele>160.6</ele>
        <time>2015-09-23T14:51:33Z</time>
      </trkpt>
      <trkpt lat="45.64844" lon="4.83439">
        <ele>160.5</ele>
        <time>2015-09-23T14:51:34Z</time>
      </trkpt>
      <trkpt lat="45.64851" lon="4.83446">
        <ele>160.3</ele>
        <time>2015-09-23T14:51:35Z</time>
      </trkpt>
      <trkpt lat="45.64856" lon="4.83453">
        <ele>160.2</ele>
        <time>2015-09-23T14:51:36Z</time>
      </trkpt>
      <trkpt lat="45.64863" lon="4.83459">
        <ele>160.1</ele>
        <time>2015-09-23T14:51:37Z</time>
      </trkpt>
      <trkpt lat="45.64869" lon="4.83467">
        <ele>160.1</ele>
        <time>2015-09-23T14:51:38Z</time>
      </trkpt>
      <trkpt lat="45.64876" lon="4.83473">
        <ele>160</ele>
        <time>2015-09-23T14:51:39Z</time>
      </trkpt>
      <trkpt lat="45.64883" lon="4.83478">
        <ele>159.9</ele>
        <time>2015-09-23T14:51:40Z</time>
      </trkpt>
      <trkpt lat="45.64889" lon="4.83484">
        <ele>159.9</ele>
        <time>2015-09-23T14:51:41Z</time>
      </trkpt>
      <trkpt lat="45.64895" lon="4.8349">
        <ele>159.9</ele>
        <time>2015-09-23T14:51:42Z</time>
      </trkpt>
      <trkpt lat="45.64901" lon="4.83495">
        <ele>159.8</ele>
        <time>2015-09-23T14:51:43Z</time>
      </trkpt>
      <trkpt lat="45.64907" lon="4.83502">
        <ele>159.8</ele>
        <time>2015-09-23T14:51:44Z</time>
      </trkpt>
      <trkpt lat="45.64913" lon="4.83507">
        <ele>159.8</ele>
        <time>2015-09-23T14:51:45Z</time>
      </trkpt>
      <trkpt lat="45.64919" lon="4.83513">
        <ele>159.8</ele>
        <time>2015-09-23T14:51:46Z</time>
      </trkpt>
      <trkpt lat="45.64925" lon="4.83518">
        <ele>159.8</ele>
        <time>2015-09-23T14:51:47Z</time>
      </trkpt>
      <trkpt lat="45.64932" lon="4.83525">
        <ele>159.9</ele>
        <time>2015-09-23T14:51:48Z</time>
      </trkpt>
      <trkpt lat="45.64939" lon="4.83531">
        <ele>159.9</ele>
        <time>2015-09-23T14:51:49Z</time>
      </trkpt>
      <trkpt lat="45.64946" lon="4.83536">
        <ele>159.9</ele>
        <time>2015-09-23T14:51:50Z</time>
      </trkpt>
      <trkpt lat="45.64953" lon="4.83541">
        <ele>160</ele>
        <time>2015-09-23T14:51:51Z</time>
      </trkpt>
      <trkpt lat="45.64961" lon="4.83543">
        <ele>160</ele>
        <time>2015-09-23T14:51:52Z</time>
      </trkpt>
      <trkpt lat="45.64967" lon="4.83549">
        <ele>160.1</ele>
        <time>2015-09-23T14:51:53Z</time>
      </trkpt>
      <trkpt lat="45.64973" lon="4.83554">
        <ele>160.1</ele>
        <time>2015-09-23T14:51:54Z</time>
      </trkpt>
      <trkpt lat="45.64979" lon="4.83559">
        <ele>160.1</ele>
        <time>2015-09-23T14:51:55Z</time>
      </trkpt>
      <trkpt lat="45.64985" lon="4.83564">
        <ele>160.1</ele>
        <time>2015-09-23T14:51:56Z</time>
      </trkpt>
      <trkpt lat="45.64991" lon="4.8357">
        <ele>160.1</ele>
        <time>2015-09-23T14:51:57Z</time>
      </trkpt>
      <trkpt lat="45.64997" lon="4.83576">
        <ele>160</ele>
        <time>2015-09-23T14:51:58Z</time>
      </trkpt>
      <trkpt lat="45.65004" lon="4.83582">
        <ele>160</ele>
        <time>2015-09-23T14:51:59Z</time>
      </trkpt>
      <trkpt lat="45.6501" lon="4.83588">
        <ele>159.9</ele>
        <time>2015-09-23T14:52:00Z</time>
      </trkpt>
      <trkpt lat="45.65016" lon="4.83593">
        <ele>159.8</ele>
        <time>2015-09-23T14:52:01Z</time>
      </trkpt>
      <trkpt lat="45.65022" lon="4.83599">
        <ele>159.6</ele>
        <time>2015-09-23T14:52:02Z</time>
      </trkpt>
      <trkpt lat="45.65029" lon="4.83604">
        <ele>159.5</ele>
        <time>2015-09-23T14:52:03Z</time>
      </trkpt>
      <trkpt lat="45.65035" lon="4.8361">
        <ele>159.3</ele>
        <time>2015-09-23T14:52:04Z</time>
      </trkpt>
      <trkpt lat="45.65041" lon="4.83616">
        <ele>159.1</ele>
        <time>2015-09-23T14:52:05Z</time>
      </trkpt>
      <trkpt lat="45.65047" lon="4.83622">
        <ele>159</ele>
        <time>2015-09-23T14:52:06Z</time>
      </trkpt>
      <trkpt lat="45.65053" lon="4.83627">
        <ele>159</ele>
        <time>2015-09-23T14:52:07Z</time>
      </trkpt>
      <trkpt lat="45.65058" lon="4.83633">
        <ele>159.2</ele>
        <time>2015-09-23T14:52:08Z</time>
      </trkpt>
      <trkpt lat="45.65064" lon="4.83638">
        <ele>159.3</ele>
        <time>2015-09-23T14:52:09Z</time>
      </trkpt>
      <trkpt lat="45.6507" lon="4.83643">
        <ele>159.4</ele>
        <time>2015-09-23T14:52:10Z</time>
      </trkpt>
      <trkpt lat="45.65077" lon="4.83649">
        <ele>159.6</ele>
        <time>2015-09-23T14:52:11Z</time>
      </trkpt>
      <trkpt lat="45.65083" lon="4.83654">
        <ele>159.7</ele>
        <time>2015-09-23T14:52:12Z</time>
      </trkpt>
      <trkpt lat="45.65089" lon="4.83659">
        <ele>159.8</ele>
        <time>2015-09-23T14:52:13Z</time>
      </trkpt>
      <trkpt lat="45.65096" lon="4.83665">
        <ele>160</ele>
        <time>2015-09-23T14:52:14Z</time>
      </trkpt>
      <trkpt lat="45.65102" lon="4.8367">
        <ele>160.1</ele>
        <time>2015-09-23T14:52:15Z</time>
      </trkpt>
      <trkpt lat="45.65108" lon="4.83676">
        <ele>160.2</ele>
        <time>2015-09-23T14:52:16Z</time>
      </trkpt>
      <trkpt lat="45.65115" lon="4.83681">
        <ele>160.3</ele>
        <time>2015-09-23T14:52:17Z</time>
      </trkpt>
      <trkpt lat="45.65121" lon="4.83687">
        <ele>160.5</ele>
        <time>2015-09-23T14:52:18Z</time>
      </trkpt>
      <trkpt lat="45.65128" lon="4.83692">
        <ele>160.6</ele>
        <time>2015-09-23T14:52:19Z</time>
      </trkpt>
      <trkpt lat="45.65134" lon="4.83696">
        <ele>160.7</ele>
        <time>2015-09-23T14:52:20Z</time>
      </trkpt>
      <trkpt lat="45.6514" lon="4.83702">
        <ele>160.9</ele>
        <time>2015-09-23T14:52:21Z</time>
      </trkpt>
      <trkpt lat="45.65147" lon="4.83707">
        <ele>161</ele>
        <time>2015-09-23T14:52:22Z</time>
      </trkpt>
      <trkpt lat="45.65153" lon="4.83712">
        <ele>161</ele>
        <time>2015-09-23T14:52:23Z</time>
      </trkpt>
      <trkpt lat="45.65159" lon="4.83718">
        <ele>161</ele>
        <time>2015-09-23T14:52:24Z</time>
      </trkpt>
      <trkpt lat="45.65166" lon="4.83723">
        <ele>160.9</ele>
        <time>2015-09-23T14:52:25Z</time>
      </trkpt>
      <trkpt lat="45.65172" lon="4.83729">
        <ele>160.8</ele>
        <time>2015-09-23T14:52:26Z</time>
      </trkpt>
      <trkpt lat="45.65178" lon="4.83735">
        <ele>160.7</ele>
        <time>2015-09-23T14:52:27Z</time>
      </trkpt>
      <trkpt lat="45.65184" lon="4.8374">
        <ele>160.6</ele>
        <time>2015-09-23T14:52:28Z</time>
      </trkpt>
      <trkpt lat="45.6519" lon="4.83745">
        <ele>160.4</ele>
        <time>2015-09-23T14:52:29Z</time>
      </trkpt>
      <trkpt lat="45.65197" lon="4.8375">
        <ele>160.2</ele>
        <time>2015-09-23T14:52:30Z</time>
      </trkpt>
      <trkpt lat="45.65203" lon="4.83756">
        <ele>160</ele>
        <time>2015-09-23T14:52:31Z</time>
      </trkpt>
      <trkpt lat="45.6521" lon="4.83761">
        <ele>159.7</ele>
        <time>2015-09-23T14:52:32Z</time>
      </trkpt>
      <trkpt lat="45.65216" lon="4.83766">
        <ele>159.6</ele>
        <time>2015-09-23T14:52:33Z</time>
      </trkpt>
      <trkpt lat="45.65222" lon="4.83771">
        <ele>159.5</ele>
        <time>2015-09-23T14:52:34Z</time>
      </trkpt>
      <trkpt lat="45.65229" lon="4.83777">
        <ele>159.5</ele>
        <time>2015-09-23T14:52:35Z</time>
      </trkpt>
      <trkpt lat="45.65235" lon="4.83782">
        <ele>159.4</ele>
        <time>2015-09-23T14:52:36Z</time>
      </trkpt>
      <trkpt lat="45.65242" lon="4.83787">
        <ele>159.4</ele>
        <time>2015-09-23T14:52:37Z</time>
      </trkpt>
      <trkpt lat="45.65249" lon="4.83792">
        <ele>159.5</ele>
        <time>2015-09-23T14:52:38Z</time>
      </trkpt>
      <trkpt lat="45.65256" lon="4.83798">
        <ele>159.6</ele>
        <time>2015-09-23T14:52:39Z</time>
      </trkpt>
      <trkpt lat="45.65262" lon="4.83803">
        <ele>159.6</ele>
        <time>2015-09-23T14:52:40Z</time>
      </trkpt>
      <trkpt lat="45.65268" lon="4.83808">
        <ele>159.6</ele>
        <time>2015-09-23T14:52:41Z</time>
      </trkpt>
      <trkpt lat="45.65275" lon="4.83813">
        <ele>159.6</ele>
        <time>2015-09-23T14:52:42Z</time>
      </trkpt>
      <trkpt lat="45.65282" lon="4.83819">
        <ele>159.6</ele>
        <time>2015-09-23T14:52:43Z</time>
      </trkpt>
      <trkpt lat="45.65288" lon="4.83823">
        <ele>159.6</ele>
        <time>2015-09-23T14:52:44Z</time>
      </trkpt>
      <trkpt lat="45.65294" lon="4.83827">
        <ele>159.6</ele>
        <time>2015-09-23T14:52:45Z</time>
      </trkpt>
      <trkpt lat="45.653" lon="4.83834">
        <ele>159.7</ele>
        <time>2015-09-23T14:52:46Z</time>
      </trkpt>
      <trkpt lat="45.65306" lon="4.8384">
        <ele>159.9</ele>
        <time>2015-09-23T14:52:47Z</time>
      </trkpt>
      <trkpt lat="45.65313" lon="4.83845">
        <ele>160.1</ele>
        <time>2015-09-23T14:52:48Z</time>
      </trkpt>
      <trkpt lat="45.65319" lon="4.83849">
        <ele>160.3</ele>
        <time>2015-09-23T14:52:49Z</time>
      </trkpt>
      <trkpt lat="45.65325" lon="4.83853">
        <ele>160.6</ele>
        <time>2015-09-23T14:52:50Z</time>
      </trkpt>
      <trkpt lat="45.65332" lon="4.8386">
        <ele>160.8</ele>
        <time>2015-09-23T14:52:51Z</time>
      </trkpt>
      <trkpt lat="45.65338" lon="4.83865">
        <ele>161.1</ele>
        <time>2015-09-23T14:52:52Z</time>
      </trkpt>
      <trkpt lat="45.65343" lon="4.83869">
        <ele>161.4</ele>
        <time>2015-09-23T14:52:53Z</time>
      </trkpt>
      <trkpt lat="45.65349" lon="4.83874">
        <ele>161.8</ele>
        <time>2015-09-23T14:52:54Z</time>
      </trkpt>
      <trkpt lat="45.65357" lon="4.83879">
        <ele>162</ele>
        <time>2015-09-23T14:52:55Z</time>
      </trkpt>
      <trkpt lat="45.65364" lon="4.83883">
        <ele>162.1</ele>
        <time>2015-09-23T14:52:56Z</time>
      </trkpt>
      <trkpt lat="45.6537" lon="4.83887">
        <ele>162.2</ele>
        <time>2015-09-23T14:52:57Z</time>
      </trkpt>
      <trkpt lat="45.65378" lon="4.83891">
        <ele>162.2</ele>
        <time>2015-09-23T14:52:58Z</time>
      </trkpt>
      <trkpt lat="45.65384" lon="4.83897">
        <ele>161.9</ele>
        <time>2015-09-23T14:52:59Z</time>
      </trkpt>
      <trkpt lat="45.6539" lon="4.83903">
        <ele>161.5</ele>
        <time>2015-09-23T14:53:00Z</time>
      </trkpt>
      <trkpt lat="45.65398" lon="4.83907">
        <ele>161.3</ele>
        <time>2015-09-23T14:53:01Z</time>
      </trkpt>
      <trkpt lat="45.65405" lon="4.83911">
        <ele>161</ele>
        <time>2015-09-23T14:53:02Z</time>
      </trkpt>
      <trkpt lat="45.65411" lon="4.83916">
        <ele>160.8</ele>
        <time>2015-09-23T14:53:03Z</time>
      </trkpt>
      <trkpt lat="45.65417" lon="4.83921">
        <ele>160.6</ele>
        <time>2015-09-23T14:53:04Z</time>
      </trkpt>
      <trkpt lat="45.65425" lon="4.83926">
        <ele>160.3</ele>
        <time>2015-09-23T14:53:05Z</time>
      </trkpt>
      <trkpt lat="45.65431" lon="4.83932">
        <ele>160</ele>
        <time>2015-09-23T14:53:06Z</time>
      </trkpt>
      <trkpt lat="45.65438" lon="4.83938">
        <ele>159.8</ele>
        <time>2015-09-23T14:53:07Z</time>
      </trkpt>
      <trkpt lat="45.65444" lon="4.83941">
        <ele>159.6</ele>
        <time>2015-09-23T14:53:08Z</time>
      </trkpt>
      <trkpt lat="45.65452" lon="4.83946">
        <ele>159.5</ele>
        <time>2015-09-23T14:53:09Z</time>
      </trkpt>
      <trkpt lat="45.65457" lon="4.83949">
        <ele>159.3</ele>
        <time>2015-09-23T14:53:10Z</time>
      </trkpt>
      <trkpt lat="45.65463" lon="4.83953">
        <ele>159.3</ele>
        <time>2015-09-23T14:53:11Z</time>
      </trkpt>
      <trkpt lat="45.6547" lon="4.83958">
        <ele>159.3</ele>
        <time>2015-09-23T14:53:12Z</time>
      </trkpt>
      <trkpt lat="45.65477" lon="4.83961">
        <ele>159.5</ele>
        <time>2015-09-23T14:53:13Z</time>
      </trkpt>
      <trkpt lat="45.65482" lon="4.83966">
        <ele>159.6</ele>
        <time>2015-09-23T14:53:14Z</time>
      </trkpt>
      <trkpt lat="45.65489" lon="4.83971">
        <ele>159.8</ele>
        <time>2015-09-23T14:53:15Z</time>
      </trkpt>
      <trkpt lat="45.65495" lon="4.83975">
        <ele>159.9</ele>
        <time>2015-09-23T14:53:16Z</time>
      </trkpt>
      <trkpt lat="45.65503" lon="4.83979">
        <ele>160</ele>
        <time>2015-09-23T14:53:17Z</time>
      </trkpt>
      <trkpt lat="45.6551" lon="4.83984">
        <ele>160.2</ele>
        <time>2015-09-23T14:53:18Z</time>
      </trkpt>
      <trkpt lat="45.65517" lon="4.83987">
        <ele>160.3</ele>
        <time>2015-09-23T14:53:19Z</time>
      </trkpt>
      <trkpt lat="45.65524" lon="4.8399">
        <ele>160.4</ele>
        <time>2015-09-23T14:53:20Z</time>
      </trkpt>
      <trkpt lat="45.6553" lon="4.83994">
        <ele>160.4</ele>
        <time>2015-09-23T14:53:21Z</time>
      </trkpt>
      <trkpt lat="45.65537" lon="4.83998">
        <ele>160.5</ele>
        <time>2015-09-23T14:53:22Z</time>
      </trkpt>
      <trkpt lat="45.65544" lon="4.84001">
        <ele>160.5</ele>
        <time>2015-09-23T14:53:23Z</time>
      </trkpt>
      <trkpt lat="45.65551" lon="4.84005">
        <ele>160.5</ele>
        <time>2015-09-23T14:53:24Z</time>
      </trkpt>
      <trkpt lat="45.65557" lon="4.8401">
        <ele>160.5</ele>
        <time>2015-09-23T14:53:25Z</time>
      </trkpt>
      <trkpt lat="45.65563" lon="4.84015">
        <ele>160.5</ele>
        <time>2015-09-23T14:53:26Z</time>
      </trkpt>
      <trkpt lat="45.6557" lon="4.84017">
        <ele>160.5</ele>
        <time>2015-09-23T14:53:27Z</time>
      </trkpt>
      <trkpt lat="45.65577" lon="4.84021">
        <ele>160.6</ele>
        <time>2015-09-23T14:53:28Z</time>
      </trkpt>
      <trkpt lat="45.65583" lon="4.84024">
        <ele>160.6</ele>
        <time>2015-09-23T14:53:29Z</time>
      </trkpt>
      <trkpt lat="45.65589" lon="4.84027">
        <ele>160.6</ele>
        <time>2015-09-23T14:53:30Z</time>
      </trkpt>
      <trkpt lat="45.65595" lon="4.8403">
        <ele>160.7</ele>
        <time>2015-09-23T14:53:31Z</time>
      </trkpt>
      <trkpt lat="45.65601" lon="4.84034">
        <ele>160.7</ele>
        <time>2015-09-23T14:53:32Z</time>
      </trkpt>
      <trkpt lat="45.65609" lon="4.84037">
        <ele>160.8</ele>
        <time>2015-09-23T14:53:33Z</time>
      </trkpt>
      <trkpt lat="45.65615" lon="4.84043">
        <ele>160.9</ele>
        <time>2015-09-23T14:53:34Z</time>
      </trkpt>
      <trkpt lat="45.65622" lon="4.84048">
        <ele>160.8</ele>
        <time>2015-09-23T14:53:35Z</time>
      </trkpt>
      <trkpt lat="45.65629" lon="4.84051">
        <ele>160.8</ele>
        <time>2015-09-23T14:53:36Z</time>
      </trkpt>
      <trkpt lat="45.65636" lon="4.84054">
        <ele>160.9</ele>
        <time>2015-09-23T14:53:37Z</time>
      </trkpt>
      <trkpt lat="45.65643" lon="4.84058">
        <ele>160.9</ele>
        <time>2015-09-23T14:53:38Z</time>
      </trkpt>
      <trkpt lat="45.65649" lon="4.84061">
        <ele>160.9</ele>
        <time>2015-09-23T14:53:39Z</time>
      </trkpt>
      <trkpt lat="45.65656" lon="4.84064">
        <ele>160.9</ele>
        <time>2015-09-23T14:53:40Z</time>
      </trkpt>
      <trkpt lat="45.65663" lon="4.84067">
        <ele>161</ele>
        <time>2015-09-23T14:53:41Z</time>
      </trkpt>
      <trkpt lat="45.65669" lon="4.84072">
        <ele>161</ele>
        <time>2015-09-23T14:53:42Z</time>
      </trkpt>
      <trkpt lat="45.65677" lon="4.84075">
        <ele>161.1</ele>
        <time>2015-09-23T14:53:43Z</time>
      </trkpt>
      <trkpt lat="45.65685" lon="4.84079">
        <ele>161.2</ele>
        <time>2015-09-23T14:53:44Z</time>
      </trkpt>
      <trkpt lat="45.65692" lon="4.84084">
        <ele>161.2</ele>
        <time>2015-09-23T14:53:45Z</time>
      </trkpt>
      <trkpt lat="45.65699" lon="4.84087">
        <ele>161.3</ele>
        <time>2015-09-23T14:53:46Z</time>
      </trkpt>
      <trkpt lat="45.65706" lon="4.84091">
        <ele>161.4</ele>
        <time>2015-09-23T14:53:47Z</time>
      </trkpt>
      <trkpt lat="45.65712" lon="4.84096">
        <ele>161.3</ele>
        <time>2015-09-23T14:53:48Z</time>
      </trkpt>
      <trkpt lat="45.65719" lon="4.84099">
        <ele>161.1</ele>
        <time>2015-09-23T14:53:49Z</time>
      </trkpt>
      <trkpt lat="45.65726" lon="4.84102">
        <ele>160.9</ele>
        <time>2015-09-23T14:53:50Z</time>
      </trkpt>
      <trkpt lat="45.65733" lon="4.84106">
        <ele>160.6</ele>
        <time>2015-09-23T14:53:51Z</time>
      </trkpt>
      <trkpt lat="45.65739" lon="4.8411">
        <ele>160.4</ele>
        <time>2015-09-23T14:53:52Z</time>
      </trkpt>
      <trkpt lat="45.65746" lon="4.84112">
        <ele>160.2</ele>
        <time>2015-09-23T14:53:53Z</time>
      </trkpt>
      <trkpt lat="45.65752" lon="4.84115">
        <ele>160.1</ele>
        <time>2015-09-23T14:53:54Z</time>
      </trkpt>
      <trkpt lat="45.6576" lon="4.84119">
        <ele>159.8</ele>
        <time>2015-09-23T14:53:55Z</time>
      </trkpt>
      <trkpt lat="45.65765" lon="4.84122">
        <ele>159.7</ele>
        <time>2015-09-23T14:53:56Z</time>
      </trkpt>
      <trkpt lat="45.65772" lon="4.84125">
        <ele>159.5</ele>
        <time>2015-09-23T14:53:57Z</time>
      </trkpt>
      <trkpt lat="45.65778" lon="4.84128">
        <ele>159.4</ele>
        <time>2015-09-23T14:53:58Z</time>
      </trkpt>
      <trkpt lat="45.65785" lon="4.84132">
        <ele>159.2</ele>
        <time>2015-09-23T14:53:59Z</time>
      </trkpt>
      <trkpt lat="45.65792" lon="4.84137">
        <ele>159.2</ele>
        <time>2015-09-23T14:54:00Z</time>
      </trkpt>
      <trkpt lat="45.65798" lon="4.8414">
        <ele>159.3</ele>
        <time>2015-09-23T14:54:01Z</time>
      </trkpt>
      <trkpt lat="45.65806" lon="4.84145">
        <ele>159.5</ele>
        <time>2015-09-23T14:54:02Z</time>
      </trkpt>
      <trkpt lat="45.65812" lon="4.84148">
        <ele>159.6</ele>
        <time>2015-09-23T14:54:03Z</time>
      </trkpt>
      <trkpt lat="45.65819" lon="4.84151">
        <ele>159.8</ele>
        <time>2015-09-23T14:54:04Z</time>
      </trkpt>
      <trkpt lat="45.65825" lon="4.84154">
        <ele>159.9</ele>
        <time>2015-09-23T14:54:05Z</time>
      </trkpt>
      <trkpt lat="45.65832" lon="4.84157">
        <ele>160</ele>
        <time>2015-09-23T14:54:06Z</time>
      </trkpt>
      <trkpt lat="45.6584" lon="4.8416">
        <ele>160.1</ele>
        <time>2015-09-23T14:54:07Z</time>
      </trkpt>
      <trkpt lat="45.65848" lon="4.84164">
        <ele>160.2</ele>
        <time>2015-09-23T14:54:08Z</time>
      </trkpt>
      <trkpt lat="45.65855" lon="4.84167">
        <ele>160.3</ele>
        <time>2015-09-23T14:54:09Z</time>
      </trkpt>
      <trkpt lat="45.65862" lon="4.84169">
        <ele>160.3</ele>
        <time>2015-09-23T14:54:10Z</time>
      </trkpt>
      <trkpt lat="45.65868" lon="4.84172">
        <ele>160.4</ele>
        <time>2015-09-23T14:54:11Z</time>
      </trkpt>
      <trkpt lat="45.65876" lon="4.84175">
        <ele>160.4</ele>
        <time>2015-09-23T14:54:12Z</time>
      </trkpt>
      <trkpt lat="45.65882" lon="4.84179">
        <ele>160.2</ele>
        <time>2015-09-23T14:54:13Z</time>
      </trkpt>
      <trkpt lat="45.65888" lon="4.84182">
        <ele>160</ele>
        <time>2015-09-23T14:54:14Z</time>
      </trkpt>
      <trkpt lat="45.65894" lon="4.84186">
        <ele>159.9</ele>
        <time>2015-09-23T14:54:15Z</time>
      </trkpt>
      <trkpt lat="45.659" lon="4.84189">
        <ele>159.7</ele>
        <time>2015-09-23T14:54:16Z</time>
      </trkpt>
      <trkpt lat="45.65906" lon="4.84192">
        <ele>159.5</ele>
        <time>2015-09-23T14:54:17Z</time>
      </trkpt>
      <trkpt lat="45.65913" lon="4.84195">
        <ele>159.3</ele>
        <time>2015-09-23T14:54:18Z</time>
      </trkpt>
      <trkpt lat="45.65919" lon="4.84198">
        <ele>159.2</ele>
        <time>2015-09-23T14:54:19Z</time>
      </trkpt>
      <trkpt lat="45.65925" lon="4.842">
        <ele>158.9</ele>
        <time>2015-09-23T14:54:20Z</time>
      </trkpt>
      <trkpt lat="45.65932" lon="4.84202">
        <ele>158.8</ele>
        <time>2015-09-23T14:54:21Z</time>
      </trkpt>
      <trkpt lat="45.65937" lon="4.84205">
        <ele>158.6</ele>
        <time>2015-09-23T14:54:22Z</time>
      </trkpt>
      <trkpt lat="45.65944" lon="4.84208">
        <ele>158.3</ele>
        <time>2015-09-23T14:54:23Z</time>
      </trkpt>
      <trkpt lat="45.65951" lon="4.84211">
        <ele>158.2</ele>
        <time>2015-09-23T14:54:24Z</time>
      </trkpt>
      <trkpt lat="45.65957" lon="4.84214">
        <ele>158</ele>
        <time>2015-09-23T14:54:25Z</time>
      </trkpt>
      <trkpt lat="45.65965" lon="4.84216">
        <ele>158.1</ele>
        <time>2015-09-23T14:54:26Z</time>
      </trkpt>
      <trkpt lat="45.65973" lon="4.84219">
        <ele>158.2</ele>
        <time>2015-09-23T14:54:27Z</time>
      </trkpt>
      <trkpt lat="45.65979" lon="4.84222">
        <ele>158.3</ele>
        <time>2015-09-23T14:54:28Z</time>
      </trkpt>
      <trkpt lat="45.65986" lon="4.84225">
        <ele>158.4</ele>
        <time>2015-09-23T14:54:29Z</time>
      </trkpt>
      <trkpt lat="45.65994" lon="4.84228">
        <ele>158.5</ele>
        <time>2015-09-23T14:54:30Z</time>
      </trkpt>
      <trkpt lat="45.66001" lon="4.84231">
        <ele>158.7</ele>
        <time>2015-09-23T14:54:31Z</time>
      </trkpt>
      <trkpt lat="45.66007" lon="4.84232">
        <ele>158.8</ele>
        <time>2015-09-23T14:54:32Z</time>
      </trkpt>
      <trkpt lat="45.66014" lon="4.84235">
        <ele>158.9</ele>
        <time>2015-09-23T14:54:33Z</time>
      </trkpt>
      <trkpt lat="45.66022" lon="4.84237">
        <ele>159</ele>
        <time>2015-09-23T14:54:34Z</time>
      </trkpt>
      <trkpt lat="45.66029" lon="4.84239">
        <ele>159.2</ele>
        <time>2015-09-23T14:54:35Z</time>
      </trkpt>
      <trkpt lat="45.66036" lon="4.84241">
        <ele>159.3</ele>
        <time>2015-09-23T14:54:36Z</time>
      </trkpt>
      <trkpt lat="45.66044" lon="4.84243">
        <ele>159.4</ele>
        <time>2015-09-23T14:54:37Z</time>
      </trkpt>
      <trkpt lat="45.66052" lon="4.84244">
        <ele>159.6</ele>
        <time>2015-09-23T14:54:38Z</time>
      </trkpt>
      <trkpt lat="45.66061" lon="4.84247">
        <ele>159.7</ele>
        <time>2015-09-23T14:54:39Z</time>
      </trkpt>
      <trkpt lat="45.66066" lon="4.84249">
        <ele>159.8</ele>
        <time>2015-09-23T14:54:40Z</time>
      </trkpt>
      <trkpt lat="45.66074" lon="4.84251">
        <ele>159.9</ele>
        <time>2015-09-23T14:54:41Z</time>
      </trkpt>
      <trkpt lat="45.6608" lon="4.84254">
        <ele>160</ele>
        <time>2015-09-23T14:54:42Z</time>
      </trkpt>
      <trkpt lat="45.66087" lon="4.84256">
        <ele>160.1</ele>
        <time>2015-09-23T14:54:43Z</time>
      </trkpt>
      <trkpt lat="45.66095" lon="4.84257">
        <ele>160.2</ele>
        <time>2015-09-23T14:54:44Z</time>
      </trkpt>
      <trkpt lat="45.66101" lon="4.8426">
        <ele>160.3</ele>
        <time>2015-09-23T14:54:45Z</time>
      </trkpt>
      <trkpt lat="45.66109" lon="4.84263">
        <ele>160.5</ele>
        <time>2015-09-23T14:54:46Z</time>
      </trkpt>
      <trkpt lat="45.66116" lon="4.84267">
        <ele>160.6</ele>
        <time>2015-09-23T14:54:47Z</time>
      </trkpt>
      <trkpt lat="45.66123" lon="4.84269">
        <ele>160.7</ele>
        <time>2015-09-23T14:54:48Z</time>
      </trkpt>
      <trkpt lat="45.66129" lon="4.84271">
        <ele>160.8</ele>
        <time>2015-09-23T14:54:49Z</time>
      </trkpt>
      <trkpt lat="45.66136" lon="4.84274">
        <ele>161</ele>
        <time>2015-09-23T14:54:50Z</time>
      </trkpt>
      <trkpt lat="45.66143" lon="4.84276">
        <ele>161.2</ele>
        <time>2015-09-23T14:54:51Z</time>
      </trkpt>
      <trkpt lat="45.66149" lon="4.84278">
        <ele>161.4</ele>
        <time>2015-09-23T14:54:52Z</time>
      </trkpt>
      <trkpt lat="45.66156" lon="4.84281">
        <ele>161.6</ele>
        <time>2015-09-23T14:54:53Z</time>
      </trkpt>
      <trkpt lat="45.66162" lon="4.84284">
        <ele>161.8</ele>
        <time>2015-09-23T14:54:54Z</time>
      </trkpt>
      <trkpt lat="45.66169" lon="4.84288">
        <ele>162</ele>
        <time>2015-09-23T14:54:55Z</time>
      </trkpt>
      <trkpt lat="45.66176" lon="4.84294">
        <ele>162.2</ele>
        <time>2015-09-23T14:54:56Z</time>
      </trkpt>
      <trkpt lat="45.66181" lon="4.84298">
        <ele>162.3</ele>
        <time>2015-09-23T14:54:57Z</time>
      </trkpt>
      <trkpt lat="45.66184" lon="4.84302">
        <ele>162.3</ele>
        <time>2015-09-23T14:54:58Z</time>
      </trkpt>
      <trkpt lat="45.66183" lon="4.84309">
        <ele>162.3</ele>
        <time>2015-09-23T14:54:59Z</time>
      </trkpt>
      <trkpt lat="45.66189" lon="4.84324">
        <ele>162.2</ele>
        <time>2015-09-23T14:55:00Z</time>
      </trkpt>
      <trkpt lat="45.66193" lon="4.84328">
        <ele>162.3</ele>
        <time>2015-09-23T14:55:01Z</time>
      </trkpt>
      <trkpt lat="45.66199" lon="4.84326">
        <ele>162.4</ele>
        <time>2015-09-23T14:55:03Z</time>
      </trkpt>
      <trkpt lat="45.6621" lon="4.84313">
        <ele>162.7</ele>
        <time>2015-09-23T14:55:04Z</time>
      </trkpt>
      <trkpt lat="45.66225" lon="4.8431">
        <ele>162.7</ele>
        <time>2015-09-23T14:55:05Z</time>
      </trkpt>
      <trkpt lat="45.66233" lon="4.84313">
        <ele>162.6</ele>
        <time>2015-09-23T14:55:06Z</time>
      </trkpt>
      <trkpt lat="45.66239" lon="4.84315">
        <ele>162.6</ele>
        <time>2015-09-23T14:55:07Z</time>
      </trkpt>
      <trkpt lat="45.66245" lon="4.84316">
        <ele>162.5</ele>
        <time>2015-09-23T14:55:08Z</time>
      </trkpt>
      <trkpt lat="45.66253" lon="4.84319">
        <ele>162.5</ele>
        <time>2015-09-23T14:55:09Z</time>
      </trkpt>
      <trkpt lat="45.66261" lon="4.84322">
        <ele>162.5</ele>
        <time>2015-09-23T14:55:10Z</time>
      </trkpt>
      <trkpt lat="45.66267" lon="4.84326">
        <ele>162.5</ele>
        <time>2015-09-23T14:55:11Z</time>
      </trkpt>
      <trkpt lat="45.66274" lon="4.8433">
        <ele>162.5</ele>
        <time>2015-09-23T14:55:12Z</time>
      </trkpt>
      <trkpt lat="45.66281" lon="4.84332">
        <ele>162.5</ele>
        <time>2015-09-23T14:55:13Z</time>
      </trkpt>
      <trkpt lat="45.66288" lon="4.84334">
        <ele>162.5</ele>
        <time>2015-09-23T14:55:14Z</time>
      </trkpt>
      <trkpt lat="45.66293" lon="4.84337">
        <ele>162.5</ele>
        <time>2015-09-23T14:55:15Z</time>
      </trkpt>
      <trkpt lat="45.66299" lon="4.8434">
        <ele>162.6</ele>
        <time>2015-09-23T14:55:16Z</time>
      </trkpt>
      <trkpt lat="45.66305" lon="4.84341">
        <ele>162.6</ele>
        <time>2015-09-23T14:55:17Z</time>
      </trkpt>
      <trkpt lat="45.66311" lon="4.84343">
        <ele>162.6</ele>
        <time>2015-09-23T14:55:18Z</time>
      </trkpt>
      <trkpt lat="45.66317" lon="4.84345">
        <ele>162.6</ele>
        <time>2015-09-23T14:55:19Z</time>
      </trkpt>
      <trkpt lat="45.6632" lon="4.84346">
        <ele>162.7</ele>
        <time>2015-09-23T14:55:20Z</time>
      </trkpt>
      <trkpt lat="45.66327" lon="4.84349">
        <ele>162.7</ele>
        <time>2015-09-23T14:55:21Z</time>
      </trkpt>
      <trkpt lat="45.66333" lon="4.84353">
        <ele>162.7</ele>
        <time>2015-09-23T14:55:22Z</time>
      </trkpt>
      <trkpt lat="45.6634" lon="4.84356">
        <ele>162.8</ele>
        <time>2015-09-23T14:55:23Z</time>
      </trkpt>
      <trkpt lat="45.66346" lon="4.84357">
        <ele>162.8</ele>
        <time>2015-09-23T14:55:24Z</time>
      </trkpt>
      <trkpt lat="45.66353" lon="4.8436">
        <ele>162.8</ele>
        <time>2015-09-23T14:55:25Z</time>
      </trkpt>
      <trkpt lat="45.6636" lon="4.84361">
        <ele>162.8</ele>
        <time>2015-09-23T14:55:26Z</time>
      </trkpt>
      <trkpt lat="45.66366" lon="4.84364">
        <ele>162.9</ele>
        <time>2015-09-23T14:55:27Z</time>
      </trkpt>
      <trkpt lat="45.66371" lon="4.84365">
        <ele>162.9</ele>
        <time>2015-09-23T14:55:28Z</time>
      </trkpt>
      <trkpt lat="45.66377" lon="4.84369">
        <ele>162.9</ele>
        <time>2015-09-23T14:55:29Z</time>
      </trkpt>
      <trkpt lat="45.66382" lon="4.84371">
        <ele>162.9</ele>
        <time>2015-09-23T14:55:30Z</time>
      </trkpt>
      <trkpt lat="45.66388" lon="4.84374">
        <ele>162.8</ele>
        <time>2015-09-23T14:55:31Z</time>
      </trkpt>
      <trkpt lat="45.66395" lon="4.84376">
        <ele>162.7</ele>
        <time>2015-09-23T14:55:32Z</time>
      </trkpt>
      <trkpt lat="45.66402" lon="4.84379">
        <ele>162.5</ele>
        <time>2015-09-23T14:55:33Z</time>
      </trkpt>
      <trkpt lat="45.66408" lon="4.84382">
        <ele>162.4</ele>
        <time>2015-09-23T14:55:34Z</time>
      </trkpt>
      <trkpt lat="45.66415" lon="4.84384">
        <ele>162.3</ele>
        <time>2015-09-23T14:55:35Z</time>
      </trkpt>
      <trkpt lat="45.66421" lon="4.84387">
        <ele>162.2</ele>
        <time>2015-09-23T14:55:36Z</time>
      </trkpt>
      <trkpt lat="45.6643" lon="4.84392">
        <ele>162.1</ele>
        <time>2015-09-23T14:55:37Z</time>
      </trkpt>
      <trkpt lat="45.66437" lon="4.84397">
        <ele>162</ele>
        <time>2015-09-23T14:55:38Z</time>
      </trkpt>
      <trkpt lat="45.66442" lon="4.844">
        <ele>162</ele>
        <time>2015-09-23T14:55:39Z</time>
      </trkpt>
      <trkpt lat="45.66449" lon="4.84403">
        <ele>162</ele>
        <time>2015-09-23T14:55:40Z</time>
      </trkpt>
      <trkpt lat="45.66454" lon="4.84406">
        <ele>162</ele>
        <time>2015-09-23T14:55:41Z</time>
      </trkpt>
      <trkpt lat="45.6646" lon="4.84409">
        <ele>162</ele>
        <time>2015-09-23T14:55:42Z</time>
      </trkpt>
      <trkpt lat="45.66467" lon="4.84413">
        <ele>162.1</ele>
        <time>2015-09-23T14:55:43Z</time>
      </trkpt>
      <trkpt lat="45.66474" lon="4.84417">
        <ele>162.2</ele>
        <time>2015-09-23T14:55:44Z</time>
      </trkpt>
      <trkpt lat="45.66482" lon="4.84419">
        <ele>162.3</ele>
        <time>2015-09-23T14:55:45Z</time>
      </trkpt>
      <trkpt lat="45.66491" lon="4.84421">
        <ele>162.3</ele>
        <time>2015-09-23T14:55:46Z</time>
      </trkpt>
      <trkpt lat="45.66498" lon="4.84424">
        <ele>162.4</ele>
        <time>2015-09-23T14:55:47Z</time>
      </trkpt>
      <trkpt lat="45.66505" lon="4.84426">
        <ele>162.4</ele>
        <time>2015-09-23T14:55:48Z</time>
      </trkpt>
      <trkpt lat="45.66512" lon="4.84429">
        <ele>162.5</ele>
        <time>2015-09-23T14:55:49Z</time>
      </trkpt>
      <trkpt lat="45.66519" lon="4.84431">
        <ele>162.5</ele>
        <time>2015-09-23T14:55:50Z</time>
      </trkpt>
      <trkpt lat="45.66526" lon="4.84434">
        <ele>162.5</ele>
        <time>2015-09-23T14:55:51Z</time>
      </trkpt>
      <trkpt lat="45.66534" lon="4.84437">
        <ele>162.5</ele>
        <time>2015-09-23T14:55:52Z</time>
      </trkpt>
      <trkpt lat="45.66539" lon="4.84443">
        <ele>162.4</ele>
        <time>2015-09-23T14:55:53Z</time>
      </trkpt>
      <trkpt lat="45.66545" lon="4.84445">
        <ele>162.3</ele>
        <time>2015-09-23T14:55:54Z</time>
      </trkpt>
      <trkpt lat="45.66552" lon="4.84449">
        <ele>162.1</ele>
        <time>2015-09-23T14:55:55Z</time>
      </trkpt>
      <trkpt lat="45.66559" lon="4.84453">
        <ele>161.9</ele>
        <time>2015-09-23T14:55:56Z</time>
      </trkpt>
      <trkpt lat="45.66565" lon="4.84457">
        <ele>161.8</ele>
        <time>2015-09-23T14:55:57Z</time>
      </trkpt>
      <trkpt lat="45.66571" lon="4.84462">
        <ele>161.6</ele>
        <time>2015-09-23T14:55:58Z</time>
      </trkpt>
      <trkpt lat="45.66578" lon="4.84466">
        <ele>161.5</ele>
        <time>2015-09-23T14:55:59Z</time>
      </trkpt>
      <trkpt lat="45.66585" lon="4.8447">
        <ele>161.3</ele>
        <time>2015-09-23T14:56:00Z</time>
      </trkpt>
      <trkpt lat="45.6659" lon="4.84475">
        <ele>161.2</ele>
        <time>2015-09-23T14:56:01Z</time>
      </trkpt>
      <trkpt lat="45.66597" lon="4.84478">
        <ele>161.1</ele>
        <time>2015-09-23T14:56:02Z</time>
      </trkpt>
      <trkpt lat="45.66604" lon="4.84482">
        <ele>161</ele>
        <time>2015-09-23T14:56:03Z</time>
      </trkpt>
      <trkpt lat="45.66611" lon="4.84486">
        <ele>160.8</ele>
        <time>2015-09-23T14:56:04Z</time>
      </trkpt>
      <trkpt lat="45.66617" lon="4.8449">
        <ele>160.7</ele>
        <time>2015-09-23T14:56:05Z</time>
      </trkpt>
      <trkpt lat="45.66625" lon="4.84494">
        <ele>160.6</ele>
        <time>2015-09-23T14:56:06Z</time>
      </trkpt>
      <trkpt lat="45.66631" lon="4.84497">
        <ele>160.6</ele>
        <time>2015-09-23T14:56:07Z</time>
      </trkpt>
      <trkpt lat="45.66638" lon="4.84501">
        <ele>160.6</ele>
        <time>2015-09-23T14:56:08Z</time>
      </trkpt>
      <trkpt lat="45.66645" lon="4.84508">
        <ele>160.7</ele>
        <time>2015-09-23T14:56:09Z</time>
      </trkpt>
      <trkpt lat="45.66652" lon="4.84511">
        <ele>160.8</ele>
        <time>2015-09-23T14:56:10Z</time>
      </trkpt>
      <trkpt lat="45.66659" lon="4.84514">
        <ele>160.9</ele>
        <time>2015-09-23T14:56:11Z</time>
      </trkpt>
      <trkpt lat="45.66665" lon="4.84516">
        <ele>161</ele>
        <time>2015-09-23T14:56:12Z</time>
      </trkpt>
      <trkpt lat="45.66672" lon="4.84519">
        <ele>161.1</ele>
        <time>2015-09-23T14:56:13Z</time>
      </trkpt>
      <trkpt lat="45.6668" lon="4.84522">
        <ele>161.2</ele>
        <time>2015-09-23T14:56:14Z</time>
      </trkpt>
      <trkpt lat="45.66688" lon="4.84525">
        <ele>161.4</ele>
        <time>2015-09-23T14:56:15Z</time>
      </trkpt>
      <trkpt lat="45.66694" lon="4.84529">
        <ele>161.5</ele>
        <time>2015-09-23T14:56:16Z</time>
      </trkpt>
      <trkpt lat="45.66701" lon="4.84534">
        <ele>161.7</ele>
        <time>2015-09-23T14:56:17Z</time>
      </trkpt>
      <trkpt lat="45.66708" lon="4.84536">
        <ele>161.9</ele>
        <time>2015-09-23T14:56:18Z</time>
      </trkpt>
      <trkpt lat="45.66714" lon="4.84539">
        <ele>162.2</ele>
        <time>2015-09-23T14:56:19Z</time>
      </trkpt>
      <trkpt lat="45.6672" lon="4.84542">
        <ele>162.5</ele>
        <time>2015-09-23T14:56:20Z</time>
      </trkpt>
      <trkpt lat="45.66724" lon="4.84545">
        <ele>162.7</ele>
        <time>2015-09-23T14:56:21Z</time>
      </trkpt>
      <trkpt lat="45.6673" lon="4.84549">
        <ele>163</ele>
        <time>2015-09-23T14:56:22Z</time>
      </trkpt>
      <trkpt lat="45.66735" lon="4.84555">
        <ele>163.2</ele>
        <time>2015-09-23T14:56:23Z</time>
      </trkpt>
      <trkpt lat="45.66742" lon="4.84557">
        <ele>163.4</ele>
        <time>2015-09-23T14:56:24Z</time>
      </trkpt>
      <trkpt lat="45.66748" lon="4.84563">
        <ele>163.6</ele>
        <time>2015-09-23T14:56:25Z</time>
      </trkpt>
      <trkpt lat="45.66754" lon="4.84567">
        <ele>163.9</ele>
        <time>2015-09-23T14:56:26Z</time>
      </trkpt>
      <trkpt lat="45.66762" lon="4.8457">
        <ele>164.1</ele>
        <time>2015-09-23T14:56:27Z</time>
      </trkpt>
      <trkpt lat="45.66769" lon="4.84575">
        <ele>164.3</ele>
        <time>2015-09-23T14:56:28Z</time>
      </trkpt>
      <trkpt lat="45.66775" lon="4.84579">
        <ele>164.5</ele>
        <time>2015-09-23T14:56:29Z</time>
      </trkpt>
      <trkpt lat="45.66782" lon="4.84582">
        <ele>164.7</ele>
        <time>2015-09-23T14:56:30Z</time>
      </trkpt>
      <trkpt lat="45.66788" lon="4.84585">
        <ele>164.8</ele>
        <time>2015-09-23T14:56:31Z</time>
      </trkpt>
      <trkpt lat="45.66793" lon="4.84588">
        <ele>164.9</ele>
        <time>2015-09-23T14:56:32Z</time>
      </trkpt>
      <trkpt lat="45.66798" lon="4.84591">
        <ele>164.8</ele>
        <time>2015-09-23T14:56:33Z</time>
      </trkpt>
      <trkpt lat="45.66804" lon="4.84595">
        <ele>164.6</ele>
        <time>2015-09-23T14:56:34Z</time>
      </trkpt>
      <trkpt lat="45.6681" lon="4.84598">
        <ele>164.5</ele>
        <time>2015-09-23T14:56:35Z</time>
      </trkpt>
      <trkpt lat="45.66816" lon="4.84602">
        <ele>164.4</ele>
        <time>2015-09-23T14:56:36Z</time>
      </trkpt>
      <trkpt lat="45.66821" lon="4.84605">
        <ele>164.3</ele>
        <time>2015-09-23T14:56:37Z</time>
      </trkpt>
      <trkpt lat="45.66826" lon="4.84611">
        <ele>164.2</ele>
        <time>2015-09-23T14:56:38Z</time>
      </trkpt>
      <trkpt lat="45.66832" lon="4.84614">
        <ele>164.1</ele>
        <time>2015-09-23T14:56:39Z</time>
      </trkpt>
      <trkpt lat="45.66838" lon="4.84619">
        <ele>164.1</ele>
        <time>2015-09-23T14:56:40Z</time>
      </trkpt>
      <trkpt lat="45.66845" lon="4.84623">
        <ele>164</ele>
        <time>2015-09-23T14:56:41Z</time>
      </trkpt>
      <trkpt lat="45.6685" lon="4.84628">
        <ele>164</ele>
        <time>2015-09-23T14:56:42Z</time>
      </trkpt>
      <trkpt lat="45.66858" lon="4.84632">
        <ele>163.9</ele>
        <time>2015-09-23T14:56:43Z</time>
      </trkpt>
      <trkpt lat="45.66863" lon="4.84635">
        <ele>163.9</ele>
        <time>2015-09-23T14:56:44Z</time>
      </trkpt>
      <trkpt lat="45.66869" lon="4.84641">
        <ele>163.8</ele>
        <time>2015-09-23T14:56:45Z</time>
      </trkpt>
      <trkpt lat="45.66875" lon="4.84645">
        <ele>163.8</ele>
        <time>2015-09-23T14:56:46Z</time>
      </trkpt>
      <trkpt lat="45.6688" lon="4.84648">
        <ele>163.6</ele>
        <time>2015-09-23T14:56:47Z</time>
      </trkpt>
      <trkpt lat="45.66883" lon="4.8465">
        <ele>163.6</ele>
        <time>2015-09-23T14:56:48Z</time>
      </trkpt>
      <trkpt lat="45.66909" lon="4.84667">
        <ele>163.3</ele>
        <time>2015-09-23T14:56:52Z</time>
      </trkpt>
      <trkpt lat="45.66915" lon="4.84669">
        <ele>163.3</ele>
        <time>2015-09-23T14:56:53Z</time>
      </trkpt>
      <trkpt lat="45.6692" lon="4.84674">
        <ele>163.3</ele>
        <time>2015-09-23T14:56:54Z</time>
      </trkpt>
      <trkpt lat="45.66923" lon="4.84678">
        <ele>163.3</ele>
        <time>2015-09-23T14:56:55Z</time>
      </trkpt>
      <trkpt lat="45.6693" lon="4.8468">
        <ele>163.3</ele>
        <time>2015-09-23T14:56:56Z</time>
      </trkpt>
      <trkpt lat="45.66936" lon="4.84682">
        <ele>163.4</ele>
        <time>2015-09-23T14:56:57Z</time>
      </trkpt>
      <trkpt lat="45.66944" lon="4.84685">
        <ele>163.4</ele>
        <time>2015-09-23T14:56:58Z</time>
      </trkpt>
      <trkpt lat="45.6695" lon="4.84688">
        <ele>163.5</ele>
        <time>2015-09-23T14:56:59Z</time>
      </trkpt>
      <trkpt lat="45.66955" lon="4.84691">
        <ele>163.6</ele>
        <time>2015-09-23T14:57:00Z</time>
      </trkpt>
      <trkpt lat="45.66961" lon="4.84694">
        <ele>163.6</ele>
        <time>2015-09-23T14:57:01Z</time>
      </trkpt>
      <trkpt lat="45.66968" lon="4.84698">
        <ele>163.5</ele>
        <time>2015-09-23T14:57:02Z</time>
      </trkpt>
      <trkpt lat="45.66974" lon="4.847">
        <ele>163.3</ele>
        <time>2015-09-23T14:57:03Z</time>
      </trkpt>
      <trkpt lat="45.66982" lon="4.84704">
        <ele>163.1</ele>
        <time>2015-09-23T14:57:04Z</time>
      </trkpt>
      <trkpt lat="45.66987" lon="4.84708">
        <ele>163</ele>
        <time>2015-09-23T14:57:05Z</time>
      </trkpt>
      <trkpt lat="45.66993" lon="4.84712">
        <ele>162.7</ele>
        <time>2015-09-23T14:57:06Z</time>
      </trkpt>
      <trkpt lat="45.66999" lon="4.84715">
        <ele>162.5</ele>
        <time>2015-09-23T14:57:07Z</time>
      </trkpt>
      <trkpt lat="45.67005" lon="4.84718">
        <ele>162.3</ele>
        <time>2015-09-23T14:57:08Z</time>
      </trkpt>
      <trkpt lat="45.67012" lon="4.84723">
        <ele>162.1</ele>
        <time>2015-09-23T14:57:09Z</time>
      </trkpt>
      <trkpt lat="45.67017" lon="4.84726">
        <ele>162</ele>
        <time>2015-09-23T14:57:10Z</time>
      </trkpt>
      <trkpt lat="45.67023" lon="4.84729">
        <ele>161.8</ele>
        <time>2015-09-23T14:57:11Z</time>
      </trkpt>
      <trkpt lat="45.67028" lon="4.84731">
        <ele>161.7</ele>
        <time>2015-09-23T14:57:12Z</time>
      </trkpt>
      <trkpt lat="45.67034" lon="4.84734">
        <ele>161.5</ele>
        <time>2015-09-23T14:57:13Z</time>
      </trkpt>
      <trkpt lat="45.67042" lon="4.84736">
        <ele>161.3</ele>
        <time>2015-09-23T14:57:14Z</time>
      </trkpt>
      <trkpt lat="45.67046" lon="4.8474">
        <ele>161.5</ele>
        <time>2015-09-23T14:57:15Z</time>
      </trkpt>
      <trkpt lat="45.67052" lon="4.84742">
        <ele>161.6</ele>
        <time>2015-09-23T14:57:16Z</time>
      </trkpt>
      <trkpt lat="45.67057" lon="4.84744">
        <ele>161.7</ele>
        <time>2015-09-23T14:57:17Z</time>
      </trkpt>
      <trkpt lat="45.67063" lon="4.84747">
        <ele>161.9</ele>
        <time>2015-09-23T14:57:18Z</time>
      </trkpt>
      <trkpt lat="45.6707" lon="4.8475">
        <ele>162</ele>
        <time>2015-09-23T14:57:19Z</time>
      </trkpt>
      <trkpt lat="45.67077" lon="4.84754">
        <ele>162.2</ele>
        <time>2015-09-23T14:57:20Z</time>
      </trkpt>
      <trkpt lat="45.67083" lon="4.84757">
        <ele>162.3</ele>
        <time>2015-09-23T14:57:21Z</time>
      </trkpt>
      <trkpt lat="45.6709" lon="4.84761">
        <ele>162.4</ele>
        <time>2015-09-23T14:57:22Z</time>
      </trkpt>
      <trkpt lat="45.67095" lon="4.84765">
        <ele>162.5</ele>
        <time>2015-09-23T14:57:23Z</time>
      </trkpt>
      <trkpt lat="45.67101" lon="4.84768">
        <ele>162.6</ele>
        <time>2015-09-23T14:57:24Z</time>
      </trkpt>
      <trkpt lat="45.67107" lon="4.84771">
        <ele>162.7</ele>
        <time>2015-09-23T14:57:25Z</time>
      </trkpt>
      <trkpt lat="45.67114" lon="4.84775">
        <ele>162.8</ele>
        <time>2015-09-23T14:57:26Z</time>
      </trkpt>
      <trkpt lat="45.67121" lon="4.84778">
        <ele>162.9</ele>
        <time>2015-09-23T14:57:27Z</time>
      </trkpt>
      <trkpt lat="45.67127" lon="4.84782">
        <ele>163</ele>
        <time>2015-09-23T14:57:28Z</time>
      </trkpt>
      <trkpt lat="45.67134" lon="4.84785">
        <ele>162.8</ele>
        <time>2015-09-23T14:57:29Z</time>
      </trkpt>
      <trkpt lat="45.67141" lon="4.84788">
        <ele>162.6</ele>
        <time>2015-09-23T14:57:30Z</time>
      </trkpt>
      <trkpt lat="45.67148" lon="4.84791">
        <ele>162.4</ele>
        <time>2015-09-23T14:57:31Z</time>
      </trkpt>
      <trkpt lat="45.67155" lon="4.84795">
        <ele>162.3</ele>
        <time>2015-09-23T14:57:32Z</time>
      </trkpt>
      <trkpt lat="45.67161" lon="4.84798">
        <ele>162.1</ele>
        <time>2015-09-23T14:57:33Z</time>
      </trkpt>
      <trkpt lat="45.67167" lon="4.84802">
        <ele>161.9</ele>
        <time>2015-09-23T14:57:34Z</time>
      </trkpt>
      <trkpt lat="45.67172" lon="4.84804">
        <ele>161.8</ele>
        <time>2015-09-23T14:57:35Z</time>
      </trkpt>
      <trkpt lat="45.67178" lon="4.84807">
        <ele>161.7</ele>
        <time>2015-09-23T14:57:36Z</time>
      </trkpt>
      <trkpt lat="45.67185" lon="4.8481">
        <ele>161.5</ele>
        <time>2015-09-23T14:57:37Z</time>
      </trkpt>
      <trkpt lat="45.67191" lon="4.84813">
        <ele>161.4</ele>
        <time>2015-09-23T14:57:38Z</time>
      </trkpt>
      <trkpt lat="45.67198" lon="4.84818">
        <ele>161.2</ele>
        <time>2015-09-23T14:57:39Z</time>
      </trkpt>
      <trkpt lat="45.67205" lon="4.8482">
        <ele>161.1</ele>
        <time>2015-09-23T14:57:40Z</time>
      </trkpt>
      <trkpt lat="45.67212" lon="4.84824">
        <ele>161</ele>
        <time>2015-09-23T14:57:41Z</time>
      </trkpt>
      <trkpt lat="45.67218" lon="4.84828">
        <ele>161.1</ele>
        <time>2015-09-23T14:57:42Z</time>
      </trkpt>
      <trkpt lat="45.67222" lon="4.8483">
        <ele>161.2</ele>
        <time>2015-09-23T14:57:43Z</time>
      </trkpt>
      <trkpt lat="45.67229" lon="4.84834">
        <ele>161.2</ele>
        <time>2015-09-23T14:57:44Z</time>
      </trkpt>
      <trkpt lat="45.67235" lon="4.84837">
        <ele>161.3</ele>
        <time>2015-09-23T14:57:45Z</time>
      </trkpt>
      <trkpt lat="45.67242" lon="4.8484">
        <ele>161.3</ele>
        <time>2015-09-23T14:57:46Z</time>
      </trkpt>
      <trkpt lat="45.67242" lon="4.84849">
        <ele>161.3</ele>
        <time>2015-09-23T14:57:47Z</time>
      </trkpt>
      <trkpt lat="45.67242" lon="4.84857">
        <ele>161.2</ele>
        <time>2015-09-23T14:57:48Z</time>
      </trkpt>
      <trkpt lat="45.67237" lon="4.84873">
        <ele>161</ele>
        <time>2015-09-23T14:57:50Z</time>
      </trkpt>
      <trkpt lat="45.67232" lon="4.84879">
        <ele>161.1</ele>
        <time>2015-09-23T14:57:51Z</time>
      </trkpt>
      <trkpt lat="45.67228" lon="4.84884">
        <ele>161.3</ele>
        <time>2015-09-23T14:57:52Z</time>
      </trkpt>
      <trkpt lat="45.67224" lon="4.84891">
        <ele>161.5</ele>
        <time>2015-09-23T14:57:53Z</time>
      </trkpt>
      <trkpt lat="45.67208" lon="4.84914">
        <ele>162.4</ele>
        <time>2015-09-23T14:57:56Z</time>
      </trkpt>
      <trkpt lat="45.67205" lon="4.84924">
        <ele>162.8</ele>
        <time>2015-09-23T14:57:57Z</time>
      </trkpt>
      <trkpt lat="45.67201" lon="4.84931">
        <ele>163</ele>
        <time>2015-09-23T14:57:58Z</time>
      </trkpt>
      <trkpt lat="45.67196" lon="4.84941">
        <ele>163.4</ele>
        <time>2015-09-23T14:57:59Z</time>
      </trkpt>
      <trkpt lat="45.67191" lon="4.84951">
        <ele>163.7</ele>
        <time>2015-09-23T14:58:00Z</time>
      </trkpt>
      <trkpt lat="45.67187" lon="4.84959">
        <ele>164</ele>
        <time>2015-09-23T14:58:01Z</time>
      </trkpt>
      <trkpt lat="45.67183" lon="4.84966">
        <ele>163.7</ele>
        <time>2015-09-23T14:58:02Z</time>
      </trkpt>
      <trkpt lat="45.67179" lon="4.84974">
        <ele>163.5</ele>
        <time>2015-09-23T14:58:03Z</time>
      </trkpt>
      <trkpt lat="45.67158" lon="4.84983">
        <ele>163.1</ele>
        <time>2015-09-23T14:58:05Z</time>
      </trkpt>
      <trkpt lat="45.67156" lon="4.84986">
        <ele>163</ele>
        <time>2015-09-23T14:58:06Z</time>
      </trkpt>
      <trkpt lat="45.67154" lon="4.8499">
        <ele>162.9</ele>
        <time>2015-09-23T14:58:07Z</time>
      </trkpt>
      <trkpt lat="45.67152" lon="4.84997">
        <ele>162.6</ele>
        <time>2015-09-23T14:58:08Z</time>
      </trkpt>
      <trkpt lat="45.67152" lon="4.85014">
        <ele>162</ele>
        <time>2015-09-23T14:58:11Z</time>
      </trkpt>
      <trkpt lat="45.67141" lon="4.85052">
        <ele>160.9</ele>
        <time>2015-09-23T14:58:13Z</time>
      </trkpt>
      <trkpt lat="45.67138" lon="4.8506">
        <ele>160.8</ele>
        <time>2015-09-23T14:58:14Z</time>
      </trkpt>
      <trkpt lat="45.67133" lon="4.85069">
        <ele>160.7</ele>
        <time>2015-09-23T14:58:15Z</time>
      </trkpt>
      <trkpt lat="45.67128" lon="4.85078">
        <ele>160.6</ele>
        <time>2015-09-23T14:58:16Z</time>
      </trkpt>
      <trkpt lat="45.67124" lon="4.85087">
        <ele>160.5</ele>
        <time>2015-09-23T14:58:17Z</time>
      </trkpt>
      <trkpt lat="45.6712" lon="4.85095">
        <ele>160.4</ele>
        <time>2015-09-23T14:58:18Z</time>
      </trkpt>
      <trkpt lat="45.67116" lon="4.85104">
        <ele>160.4</ele>
        <time>2015-09-23T14:58:19Z</time>
      </trkpt>
      <trkpt lat="45.67111" lon="4.85113">
        <ele>160.4</ele>
        <time>2015-09-23T14:58:20Z</time>
      </trkpt>
      <trkpt lat="45.67106" lon="4.85122">
        <ele>160.5</ele>
        <time>2015-09-23T14:58:21Z</time>
      </trkpt>
      <trkpt lat="45.67102" lon="4.85132">
        <ele>160.6</ele>
        <time>2015-09-23T14:58:22Z</time>
      </trkpt>
      <trkpt lat="45.67097" lon="4.85141">
        <ele>160.8</ele>
        <time>2015-09-23T14:58:23Z</time>
      </trkpt>
      <trkpt lat="45.67092" lon="4.8515">
        <ele>161</ele>
        <time>2015-09-23T14:58:24Z</time>
      </trkpt>
      <trkpt lat="45.67088" lon="4.85159">
        <ele>161.2</ele>
        <time>2015-09-23T14:58:25Z</time>
      </trkpt>
      <trkpt lat="45.67084" lon="4.85167">
        <ele>161.3</ele>
        <time>2015-09-23T14:58:26Z</time>
      </trkpt>
      <trkpt lat="45.6708" lon="4.85175">
        <ele>161.3</ele>
        <time>2015-09-23T14:58:27Z</time>
      </trkpt>
      <trkpt lat="45.67076" lon="4.85184">
        <ele>161.3</ele>
        <time>2015-09-23T14:58:28Z</time>
      </trkpt>
      <trkpt lat="45.67071" lon="4.85192">
        <ele>161.3</ele>
        <time>2015-09-23T14:58:29Z</time>
      </trkpt>
      <trkpt lat="45.67067" lon="4.85202">
        <ele>161.3</ele>
        <time>2015-09-23T14:58:30Z</time>
      </trkpt>
      <trkpt lat="45.67062" lon="4.85211">
        <ele>161.2</ele>
        <time>2015-09-23T14:58:31Z</time>
      </trkpt>
      <trkpt lat="45.67058" lon="4.85219">
        <ele>161.2</ele>
        <time>2015-09-23T14:58:32Z</time>
      </trkpt>
      <trkpt lat="45.67054" lon="4.85227">
        <ele>161.1</ele>
        <time>2015-09-23T14:58:33Z</time>
      </trkpt>
      <trkpt lat="45.67049" lon="4.85236">
        <ele>161.1</ele>
        <time>2015-09-23T14:58:34Z</time>
      </trkpt>
      <trkpt lat="45.67045" lon="4.85245">
        <ele>161</ele>
        <time>2015-09-23T14:58:35Z</time>
      </trkpt>
      <trkpt lat="45.6704" lon="4.85254">
        <ele>161</ele>
        <time>2015-09-23T14:58:36Z</time>
      </trkpt>
      <trkpt lat="45.67035" lon="4.85264">
        <ele>161</ele>
        <time>2015-09-23T14:58:37Z</time>
      </trkpt>
      <trkpt lat="45.67031" lon="4.85271">
        <ele>161</ele>
        <time>2015-09-23T14:58:38Z</time>
      </trkpt>
      <trkpt lat="45.67026" lon="4.8528">
        <ele>161</ele>
        <time>2015-09-23T14:58:39Z</time>
      </trkpt>
      <trkpt lat="45.67022" lon="4.85289">
        <ele>161</ele>
        <time>2015-09-23T14:58:40Z</time>
      </trkpt>
      <trkpt lat="45.67017" lon="4.85297">
        <ele>161</ele>
        <time>2015-09-23T14:58:41Z</time>
      </trkpt>
      <trkpt lat="45.67013" lon="4.85306">
        <ele>161.1</ele>
        <time>2015-09-23T14:58:42Z</time>
      </trkpt>
      <trkpt lat="45.67008" lon="4.85314">
        <ele>161.1</ele>
        <time>2015-09-23T14:58:43Z</time>
      </trkpt>
      <trkpt lat="45.67004" lon="4.85322">
        <ele>161.2</ele>
        <time>2015-09-23T14:58:44Z</time>
      </trkpt>
      <trkpt lat="45.67" lon="4.8533">
        <ele>161.2</ele>
        <time>2015-09-23T14:58:45Z</time>
      </trkpt>
      <trkpt lat="45.66997" lon="4.85338">
        <ele>161.3</ele>
        <time>2015-09-23T14:58:46Z</time>
      </trkpt>
      <trkpt lat="45.66993" lon="4.85346">
        <ele>161.4</ele>
        <time>2015-09-23T14:58:47Z</time>
      </trkpt>
      <trkpt lat="45.6699" lon="4.85354">
        <ele>161.5</ele>
        <time>2015-09-23T14:58:48Z</time>
      </trkpt>
      <trkpt lat="45.66987" lon="4.85362">
        <ele>161.6</ele>
        <time>2015-09-23T14:58:49Z</time>
      </trkpt>
      <trkpt lat="45.66984" lon="4.85369">
        <ele>161.6</ele>
        <time>2015-09-23T14:58:50Z</time>
      </trkpt>
      <trkpt lat="45.66981" lon="4.85375">
        <ele>161.8</ele>
        <time>2015-09-23T14:58:51Z</time>
      </trkpt>
      <trkpt lat="45.6698" lon="4.85381">
        <ele>162.2</ele>
        <time>2015-09-23T14:58:52Z</time>
      </trkpt>
      <trkpt lat="45.66988" lon="4.85389">
        <ele>162.6</ele>
        <time>2015-09-23T14:58:54Z</time>
      </trkpt>
      <trkpt lat="45.66991" lon="4.85391">
        <ele>162.8</ele>
        <time>2015-09-23T14:58:55Z</time>
      </trkpt>
      <trkpt lat="45.66999" lon="4.85398">
        <ele>163</ele>
        <time>2015-09-23T14:58:56Z</time>
      </trkpt>
      <trkpt lat="45.67005" lon="4.85401">
        <ele>163.1</ele>
        <time>2015-09-23T14:58:57Z</time>
      </trkpt>
      <trkpt lat="45.67011" lon="4.85405">
        <ele>163.2</ele>
        <time>2015-09-23T14:58:58Z</time>
      </trkpt>
      <trkpt lat="45.67019" lon="4.8541">
        <ele>163.3</ele>
        <time>2015-09-23T14:58:59Z</time>
      </trkpt>
      <trkpt lat="45.67026" lon="4.85414">
        <ele>163.3</ele>
        <time>2015-09-23T14:59:00Z</time>
      </trkpt>
      <trkpt lat="45.67034" lon="4.85418">
        <ele>163.3</ele>
        <time>2015-09-23T14:59:01Z</time>
      </trkpt>
      <trkpt lat="45.67041" lon="4.85421">
        <ele>163.2</ele>
        <time>2015-09-23T14:59:02Z</time>
      </trkpt>
      <trkpt lat="45.67048" lon="4.85424">
        <ele>163.2</ele>
        <time>2015-09-23T14:59:03Z</time>
      </trkpt>
      <trkpt lat="45.67055" lon="4.85427">
        <ele>163</ele>
        <time>2015-09-23T14:59:04Z</time>
      </trkpt>
      <trkpt lat="45.67062" lon="4.85429">
        <ele>162.9</ele>
        <time>2015-09-23T14:59:05Z</time>
      </trkpt>
      <trkpt lat="45.67068" lon="4.85431">
        <ele>162.7</ele>
        <time>2015-09-23T14:59:06Z</time>
      </trkpt>
      <trkpt lat="45.67076" lon="4.85434">
        <ele>162.5</ele>
        <time>2015-09-23T14:59:07Z</time>
      </trkpt>
      <trkpt lat="45.67083" lon="4.85436">
        <ele>162.3</ele>
        <time>2015-09-23T14:59:08Z</time>
      </trkpt>
      <trkpt lat="45.6709" lon="4.85438">
        <ele>162.1</ele>
        <time>2015-09-23T14:59:09Z</time>
      </trkpt>
      <trkpt lat="45.67098" lon="4.85441">
        <ele>161.9</ele>
        <time>2015-09-23T14:59:10Z</time>
      </trkpt>
      <trkpt lat="45.67104" lon="4.85442">
        <ele>161.7</ele>
        <time>2015-09-23T14:59:11Z</time>
      </trkpt>
      <trkpt lat="45.67111" lon="4.85445">
        <ele>161.4</ele>
        <time>2015-09-23T14:59:12Z</time>
      </trkpt>
      <trkpt lat="45.67119" lon="4.85447">
        <ele>161.1</ele>
        <time>2015-09-23T14:59:13Z</time>
      </trkpt>
      <trkpt lat="45.67125" lon="4.85449">
        <ele>160.9</ele>
        <time>2015-09-23T14:59:14Z</time>
      </trkpt>
      <trkpt lat="45.67133" lon="4.85452">
        <ele>160.9</ele>
        <time>2015-09-23T14:59:15Z</time>
      </trkpt>
      <trkpt lat="45.6714" lon="4.85454">
        <ele>161</ele>
        <time>2015-09-23T14:59:16Z</time>
      </trkpt>
      <trkpt lat="45.67146" lon="4.85456">
        <ele>161</ele>
        <time>2015-09-23T14:59:17Z</time>
      </trkpt>
      <trkpt lat="45.67152" lon="4.85458">
        <ele>161</ele>
        <time>2015-09-23T14:59:18Z</time>
      </trkpt>
      <trkpt lat="45.67159" lon="4.8546">
        <ele>161.2</ele>
        <time>2015-09-23T14:59:19Z</time>
      </trkpt>
      <trkpt lat="45.67165" lon="4.85462">
        <ele>161.5</ele>
        <time>2015-09-23T14:59:20Z</time>
      </trkpt>
      <trkpt lat="45.67172" lon="4.85464">
        <ele>161.7</ele>
        <time>2015-09-23T14:59:21Z</time>
      </trkpt>
      <trkpt lat="45.67178" lon="4.85466">
        <ele>161.9</ele>
        <time>2015-09-23T14:59:22Z</time>
      </trkpt>
      <trkpt lat="45.67185" lon="4.85468">
        <ele>162.1</ele>
        <time>2015-09-23T14:59:23Z</time>
      </trkpt>
      <trkpt lat="45.67192" lon="4.85471">
        <ele>162.3</ele>
        <time>2015-09-23T14:59:24Z</time>
      </trkpt>
      <trkpt lat="45.67199" lon="4.85473">
        <ele>162.4</ele>
        <time>2015-09-23T14:59:25Z</time>
      </trkpt>
      <trkpt lat="45.67206" lon="4.85475">
        <ele>162.5</ele>
        <time>2015-09-23T14:59:26Z</time>
      </trkpt>
      <trkpt lat="45.67213" lon="4.85476">
        <ele>162.5</ele>
        <time>2015-09-23T14:59:27Z</time>
      </trkpt>
      <trkpt lat="45.67219" lon="4.85478">
        <ele>162.6</ele>
        <time>2015-09-23T14:59:28Z</time>
      </trkpt>
      <trkpt lat="45.67225" lon="4.8548">
        <ele>162.7</ele>
        <time>2015-09-23T14:59:29Z</time>
      </trkpt>
      <trkpt lat="45.6723" lon="4.85481">
        <ele>162.8</ele>
        <time>2015-09-23T14:59:30Z</time>
      </trkpt>
      <trkpt lat="45.67236" lon="4.85483">
        <ele>162.9</ele>
        <time>2015-09-23T14:59:31Z</time>
      </trkpt>
      <trkpt lat="45.67242" lon="4.85485">
        <ele>163</ele>
        <time>2015-09-23T14:59:32Z</time>
      </trkpt>
      <trkpt lat="45.67249" lon="4.85487">
        <ele>163.1</ele>
        <time>2015-09-23T14:59:33Z</time>
      </trkpt>
      <trkpt lat="45.67256" lon="4.8549">
        <ele>163.2</ele>
        <time>2015-09-23T14:59:34Z</time>
      </trkpt>
      <trkpt lat="45.67264" lon="4.85491">
        <ele>163.2</ele>
        <time>2015-09-23T14:59:35Z</time>
      </trkpt>
      <trkpt lat="45.67272" lon="4.85495">
        <ele>163.4</ele>
        <time>2015-09-23T14:59:36Z</time>
      </trkpt>
      <trkpt lat="45.67279" lon="4.85495">
        <ele>163.3</ele>
        <time>2015-09-23T14:59:37Z</time>
      </trkpt>
      <trkpt lat="45.67286" lon="4.85498">
        <ele>163.5</ele>
        <time>2015-09-23T14:59:38Z</time>
      </trkpt>
      <trkpt lat="45.67293" lon="4.855">
        <ele>163.5</ele>
        <time>2015-09-23T14:59:39Z</time>
      </trkpt>
      <trkpt lat="45.67299" lon="4.85502">
        <ele>163.4</ele>
        <time>2015-09-23T14:59:40Z</time>
      </trkpt>
      <trkpt lat="45.67306" lon="4.85504">
        <ele>163.4</ele>
        <time>2015-09-23T14:59:41Z</time>
      </trkpt>
      <trkpt lat="45.67313" lon="4.85506">
        <ele>163.3</ele>
        <time>2015-09-23T14:59:42Z</time>
      </trkpt>
      <trkpt lat="45.67319" lon="4.85508">
        <ele>163.2</ele>
        <time>2015-09-23T14:59:43Z</time>
      </trkpt>
      <trkpt lat="45.67324" lon="4.8551">
        <ele>163.1</ele>
        <time>2015-09-23T14:59:44Z</time>
      </trkpt>
      <trkpt lat="45.67332" lon="4.85512">
        <ele>163</ele>
        <time>2015-09-23T14:59:45Z</time>
      </trkpt>
      <trkpt lat="45.67339" lon="4.85514">
        <ele>162.8</ele>
        <time>2015-09-23T14:59:46Z</time>
      </trkpt>
      <trkpt lat="45.67345" lon="4.85516">
        <ele>162.7</ele>
        <time>2015-09-23T14:59:47Z</time>
      </trkpt>
      <trkpt lat="45.67351" lon="4.85517">
        <ele>162.5</ele>
        <time>2015-09-23T14:59:48Z</time>
      </trkpt>
      <trkpt lat="45.67357" lon="4.85519">
        <ele>162.4</ele>
        <time>2015-09-23T14:59:49Z</time>
      </trkpt>
      <trkpt lat="45.67364" lon="4.85521">
        <ele>162.2</ele>
        <time>2015-09-23T14:59:50Z</time>
      </trkpt>
      <trkpt lat="45.6737" lon="4.85523">
        <ele>162</ele>
        <time>2015-09-23T14:59:51Z</time>
      </trkpt>
      <trkpt lat="45.67376" lon="4.85525">
        <ele>161.8</ele>
        <time>2015-09-23T14:59:52Z</time>
      </trkpt>
      <trkpt lat="45.67382" lon="4.85527">
        <ele>161.8</ele>
        <time>2015-09-23T14:59:53Z</time>
      </trkpt>
      <trkpt lat="45.67389" lon="4.85529">
        <ele>161.9</ele>
        <time>2015-09-23T14:59:54Z</time>
      </trkpt>
      <trkpt lat="45.67394" lon="4.8553">
        <ele>161.9</ele>
        <time>2015-09-23T14:59:55Z</time>
      </trkpt>
      <trkpt lat="45.674" lon="4.85532">
        <ele>161.9</ele>
        <time>2015-09-23T14:59:56Z</time>
      </trkpt>
      <trkpt lat="45.67407" lon="4.85534">
        <ele>161.9</ele>
        <time>2015-09-23T14:59:57Z</time>
      </trkpt>
      <trkpt lat="45.67413" lon="4.85536">
        <ele>162</ele>
        <time>2015-09-23T14:59:58Z</time>
      </trkpt>
      <trkpt lat="45.6742" lon="4.85538">
        <ele>162</ele>
        <time>2015-09-23T14:59:59Z</time>
      </trkpt>
      <trkpt lat="45.67427" lon="4.8554">
        <ele>162</ele>
        <time>2015-09-23T15:00:00Z</time>
      </trkpt>
      <trkpt lat="45.67433" lon="4.85542">
        <ele>162.1</ele>
        <time>2015-09-23T15:00:01Z</time>
      </trkpt>
      <trkpt lat="45.67438" lon="4.85544">
        <ele>162.3</ele>
        <time>2015-09-23T15:00:02Z</time>
      </trkpt>
      <trkpt lat="45.67446" lon="4.85546">
        <ele>162.6</ele>
        <time>2015-09-23T15:00:03Z</time>
      </trkpt>
      <trkpt lat="45.67449" lon="4.85547">
        <ele>162.8</ele>
        <time>2015-09-23T15:00:04Z</time>
      </trkpt>
      <trkpt lat="45.67456" lon="4.85549">
        <ele>163</ele>
        <time>2015-09-23T15:00:05Z</time>
      </trkpt>
      <trkpt lat="45.67462" lon="4.85551">
        <ele>163.3</ele>
        <time>2015-09-23T15:00:06Z</time>
      </trkpt>
      <trkpt lat="45.67469" lon="4.85553">
        <ele>163.5</ele>
        <time>2015-09-23T15:00:07Z</time>
      </trkpt>
      <trkpt lat="45.67476" lon="4.85555">
        <ele>163.8</ele>
        <time>2015-09-23T15:00:08Z</time>
      </trkpt>
      <trkpt lat="45.67483" lon="4.85557">
        <ele>164</ele>
        <time>2015-09-23T15:00:09Z</time>
      </trkpt>
      <trkpt lat="45.67489" lon="4.85559">
        <ele>164.2</ele>
        <time>2015-09-23T15:00:10Z</time>
      </trkpt>
      <trkpt lat="45.67497" lon="4.85561">
        <ele>164.4</ele>
        <time>2015-09-23T15:00:11Z</time>
      </trkpt>
      <trkpt lat="45.67504" lon="4.85563">
        <ele>164.5</ele>
        <time>2015-09-23T15:00:12Z</time>
      </trkpt>
      <trkpt lat="45.6751" lon="4.85565">
        <ele>164.7</ele>
        <time>2015-09-23T15:00:13Z</time>
      </trkpt>
      <trkpt lat="45.67516" lon="4.85567">
        <ele>164.8</ele>
        <time>2015-09-23T15:00:14Z</time>
      </trkpt>
      <trkpt lat="45.67522" lon="4.85569">
        <ele>164.9</ele>
        <time>2015-09-23T15:00:15Z</time>
      </trkpt>
      <trkpt lat="45.67529" lon="4.85571">
        <ele>165</ele>
        <time>2015-09-23T15:00:16Z</time>
      </trkpt>
      <trkpt lat="45.67536" lon="4.85573">
        <ele>165.1</ele>
        <time>2015-09-23T15:00:17Z</time>
      </trkpt>
      <trkpt lat="45.67543" lon="4.85575">
        <ele>165.1</ele>
        <time>2015-09-23T15:00:18Z</time>
      </trkpt>
      <trkpt lat="45.67547" lon="4.85576">
        <ele>165</ele>
        <time>2015-09-23T15:00:19Z</time>
      </trkpt>
      <trkpt lat="45.67555" lon="4.85579">
        <ele>164.8</ele>
        <time>2015-09-23T15:00:20Z</time>
      </trkpt>
      <trkpt lat="45.67562" lon="4.85581">
        <ele>164.6</ele>
        <time>2015-09-23T15:00:21Z</time>
      </trkpt>
      <trkpt lat="45.67568" lon="4.85583">
        <ele>164.3</ele>
        <time>2015-09-23T15:00:22Z</time>
      </trkpt>
      <trkpt lat="45.67576" lon="4.85585">
        <ele>164.1</ele>
        <time>2015-09-23T15:00:23Z</time>
      </trkpt>
      <trkpt lat="45.67582" lon="4.85587">
        <ele>163.8</ele>
        <time>2015-09-23T15:00:24Z</time>
      </trkpt>
      <trkpt lat="45.67587" lon="4.85588">
        <ele>163.6</ele>
        <time>2015-09-23T15:00:25Z</time>
      </trkpt>
      <trkpt lat="45.67593" lon="4.8559">
        <ele>163.3</ele>
        <time>2015-09-23T15:00:26Z</time>
      </trkpt>
      <trkpt lat="45.67601" lon="4.85592">
        <ele>162.9</ele>
        <time>2015-09-23T15:00:27Z</time>
      </trkpt>
      <trkpt lat="45.67607" lon="4.85593">
        <ele>162.5</ele>
        <time>2015-09-23T15:00:28Z</time>
      </trkpt>
      <trkpt lat="45.67613" lon="4.85594">
        <ele>162.1</ele>
        <time>2015-09-23T15:00:29Z</time>
      </trkpt>
      <trkpt lat="45.67619" lon="4.85595">
        <ele>161.7</ele>
        <time>2015-09-23T15:00:30Z</time>
      </trkpt>
      <trkpt lat="45.67632" lon="4.856">
        <ele>161.5</ele>
        <time>2015-09-23T15:00:32Z</time>
      </trkpt>
      <trkpt lat="45.67638" lon="4.85602">
        <ele>161.6</ele>
        <time>2015-09-23T15:00:33Z</time>
      </trkpt>
      <trkpt lat="45.67645" lon="4.85604">
        <ele>161.7</ele>
        <time>2015-09-23T15:00:34Z</time>
      </trkpt>
      <trkpt lat="45.67651" lon="4.85606">
        <ele>161.9</ele>
        <time>2015-09-23T15:00:35Z</time>
      </trkpt>
      <trkpt lat="45.67658" lon="4.85608">
        <ele>162</ele>
        <time>2015-09-23T15:00:36Z</time>
      </trkpt>
      <trkpt lat="45.67664" lon="4.8561">
        <ele>162.1</ele>
        <time>2015-09-23T15:00:37Z</time>
      </trkpt>
      <trkpt lat="45.67671" lon="4.85612">
        <ele>162.2</ele>
        <time>2015-09-23T15:00:38Z</time>
      </trkpt>
      <trkpt lat="45.67677" lon="4.85613">
        <ele>162.4</ele>
        <time>2015-09-23T15:00:39Z</time>
      </trkpt>
      <trkpt lat="45.67682" lon="4.85615">
        <ele>162.4</ele>
        <time>2015-09-23T15:00:40Z</time>
      </trkpt>
      <trkpt lat="45.67688" lon="4.85616">
        <ele>162.5</ele>
        <time>2015-09-23T15:00:41Z</time>
      </trkpt>
      <trkpt lat="45.67694" lon="4.85617">
        <ele>162.6</ele>
        <time>2015-09-23T15:00:42Z</time>
      </trkpt>
      <trkpt lat="45.67701" lon="4.85619">
        <ele>162.7</ele>
        <time>2015-09-23T15:00:43Z</time>
      </trkpt>
      <trkpt lat="45.67707" lon="4.8562">
        <ele>162.8</ele>
        <time>2015-09-23T15:00:44Z</time>
      </trkpt>
      <trkpt lat="45.67713" lon="4.8562">
        <ele>162.9</ele>
        <time>2015-09-23T15:00:45Z</time>
      </trkpt>
      <trkpt lat="45.67719" lon="4.8562">
        <ele>163</ele>
        <time>2015-09-23T15:00:46Z</time>
      </trkpt>
      <trkpt lat="45.67726" lon="4.85621">
        <ele>163.1</ele>
        <time>2015-09-23T15:00:47Z</time>
      </trkpt>
      <trkpt lat="45.67732" lon="4.85621">
        <ele>163.2</ele>
        <time>2015-09-23T15:00:48Z</time>
      </trkpt>
      <trkpt lat="45.67739" lon="4.85621">
        <ele>163.3</ele>
        <time>2015-09-23T15:00:49Z</time>
      </trkpt>
      <trkpt lat="45.67746" lon="4.85621">
        <ele>163.4</ele>
        <time>2015-09-23T15:00:50Z</time>
      </trkpt>
      <trkpt lat="45.67752" lon="4.85621">
        <ele>163.4</ele>
        <time>2015-09-23T15:00:51Z</time>
      </trkpt>
      <trkpt lat="45.6776" lon="4.85621">
        <ele>163.5</ele>
        <time>2015-09-23T15:00:52Z</time>
      </trkpt>
      <trkpt lat="45.67767" lon="4.85621">
        <ele>163.6</ele>
        <time>2015-09-23T15:00:53Z</time>
      </trkpt>
      <trkpt lat="45.67772" lon="4.85621">
        <ele>163.7</ele>
        <time>2015-09-23T15:00:54Z</time>
      </trkpt>
      <trkpt lat="45.67779" lon="4.85621">
        <ele>163.8</ele>
        <time>2015-09-23T15:00:55Z</time>
      </trkpt>
      <trkpt lat="45.67784" lon="4.85622">
        <ele>163.8</ele>
        <time>2015-09-23T15:00:56Z</time>
      </trkpt>
      <trkpt lat="45.6779" lon="4.85622">
        <ele>163.9</ele>
        <time>2015-09-23T15:00:57Z</time>
      </trkpt>
      <trkpt lat="45.67808" lon="4.85626">
        <ele>163.9</ele>
        <time>2015-09-23T15:01:00Z</time>
      </trkpt>
      <trkpt lat="45.67817" lon="4.85609">
        <ele>163.3</ele>
        <time>2015-09-23T15:01:01Z</time>
      </trkpt>
      <trkpt lat="45.67823" lon="4.85607">
        <ele>163.2</ele>
        <time>2015-09-23T15:01:02Z</time>
      </trkpt>
      <trkpt lat="45.67829" lon="4.85605">
        <ele>163.1</ele>
        <time>2015-09-23T15:01:03Z</time>
      </trkpt>
      <trkpt lat="45.67837" lon="4.85602">
        <ele>162.9</ele>
        <time>2015-09-23T15:01:04Z</time>
      </trkpt>
      <trkpt lat="45.67842" lon="4.85596">
        <ele>162.7</ele>
        <time>2015-09-23T15:01:05Z</time>
      </trkpt>
      <trkpt lat="45.67849" lon="4.85593">
        <ele>162.5</ele>
        <time>2015-09-23T15:01:06Z</time>
      </trkpt>
      <trkpt lat="45.67855" lon="4.85595">
        <ele>162.5</ele>
        <time>2015-09-23T15:01:07Z</time>
      </trkpt>
      <trkpt lat="45.67862" lon="4.85592">
        <ele>162.4</ele>
        <time>2015-09-23T15:01:08Z</time>
      </trkpt>
      <trkpt lat="45.67868" lon="4.85589">
        <ele>162.2</ele>
        <time>2015-09-23T15:01:09Z</time>
      </trkpt>
      <trkpt lat="45.67874" lon="4.85586">
        <ele>162.1</ele>
        <time>2015-09-23T15:01:10Z</time>
      </trkpt>
      <trkpt lat="45.6788" lon="4.85578">
        <ele>161.9</ele>
        <time>2015-09-23T15:01:11Z</time>
      </trkpt>
      <trkpt lat="45.67886" lon="4.85575">
        <ele>161.8</ele>
        <time>2015-09-23T15:01:12Z</time>
      </trkpt>
      <trkpt lat="45.67893" lon="4.85572">
        <ele>161.8</ele>
        <time>2015-09-23T15:01:13Z</time>
      </trkpt>
      <trkpt lat="45.67899" lon="4.85568">
        <ele>161.7</ele>
        <time>2015-09-23T15:01:14Z</time>
      </trkpt>
      <trkpt lat="45.67906" lon="4.85565">
        <ele>161.7</ele>
        <time>2015-09-23T15:01:15Z</time>
      </trkpt>
      <trkpt lat="45.67912" lon="4.85562">
        <ele>161.7</ele>
        <time>2015-09-23T15:01:16Z</time>
      </trkpt>
      <trkpt lat="45.67919" lon="4.85559">
        <ele>161.7</ele>
        <time>2015-09-23T15:01:17Z</time>
      </trkpt>
      <trkpt lat="45.67925" lon="4.85555">
        <ele>161.7</ele>
        <time>2015-09-23T15:01:18Z</time>
      </trkpt>
      <trkpt lat="45.67933" lon="4.85552">
        <ele>161.8</ele>
        <time>2015-09-23T15:01:19Z</time>
      </trkpt>
      <trkpt lat="45.67941" lon="4.85548">
        <ele>161.8</ele>
        <time>2015-09-23T15:01:20Z</time>
      </trkpt>
      <trkpt lat="45.67947" lon="4.85545">
        <ele>161.9</ele>
        <time>2015-09-23T15:01:21Z</time>
      </trkpt>
      <trkpt lat="45.67953" lon="4.85542">
        <ele>161.9</ele>
        <time>2015-09-23T15:01:22Z</time>
      </trkpt>
      <trkpt lat="45.67959" lon="4.85539">
        <ele>162</ele>
        <time>2015-09-23T15:01:23Z</time>
      </trkpt>
      <trkpt lat="45.67966" lon="4.85536">
        <ele>161.9</ele>
        <time>2015-09-23T15:01:24Z</time>
      </trkpt>
      <trkpt lat="45.67973" lon="4.85532">
        <ele>161.9</ele>
        <time>2015-09-23T15:01:25Z</time>
      </trkpt>
      <trkpt lat="45.6798" lon="4.85529">
        <ele>161.8</ele>
        <time>2015-09-23T15:01:26Z</time>
      </trkpt>
      <trkpt lat="45.67986" lon="4.85526">
        <ele>161.8</ele>
        <time>2015-09-23T15:01:27Z</time>
      </trkpt>
      <trkpt lat="45.67993" lon="4.85523">
        <ele>161.8</ele>
        <time>2015-09-23T15:01:28Z</time>
      </trkpt>
      <trkpt lat="45.67998" lon="4.8552">
        <ele>161.7</ele>
        <time>2015-09-23T15:01:29Z</time>
      </trkpt>
      <trkpt lat="45.68006" lon="4.85517">
        <ele>161.7</ele>
        <time>2015-09-23T15:01:30Z</time>
      </trkpt>
      <trkpt lat="45.68012" lon="4.85514">
        <ele>161.7</ele>
        <time>2015-09-23T15:01:31Z</time>
      </trkpt>
      <trkpt lat="45.68018" lon="4.85511">
        <ele>161.6</ele>
        <time>2015-09-23T15:01:32Z</time>
      </trkpt>
      <trkpt lat="45.68025" lon="4.85508">
        <ele>161.6</ele>
        <time>2015-09-23T15:01:33Z</time>
      </trkpt>
      <trkpt lat="45.68031" lon="4.85505">
        <ele>161.6</ele>
        <time>2015-09-23T15:01:34Z</time>
      </trkpt>
      <trkpt lat="45.68037" lon="4.85502">
        <ele>161.5</ele>
        <time>2015-09-23T15:01:35Z</time>
      </trkpt>
      <trkpt lat="45.68044" lon="4.85499">
        <ele>161.5</ele>
        <time>2015-09-23T15:01:36Z</time>
      </trkpt>
      <trkpt lat="45.68049" lon="4.85496">
        <ele>161.4</ele>
        <time>2015-09-23T15:01:37Z</time>
      </trkpt>
      <trkpt lat="45.68055" lon="4.85492">
        <ele>161.4</ele>
        <time>2015-09-23T15:01:38Z</time>
      </trkpt>
      <trkpt lat="45.68059" lon="4.85488">
        <ele>161.3</ele>
        <time>2015-09-23T15:01:39Z</time>
      </trkpt>
      <trkpt lat="45.68064" lon="4.85484">
        <ele>161.3</ele>
        <time>2015-09-23T15:01:40Z</time>
      </trkpt>
      <trkpt lat="45.68069" lon="4.85479">
        <ele>161.3</ele>
        <time>2015-09-23T15:01:41Z</time>
      </trkpt>
      <trkpt lat="45.68072" lon="4.85475">
        <ele>161.3</ele>
        <time>2015-09-23T15:01:42Z</time>
      </trkpt>
      <trkpt lat="45.68077" lon="4.8547">
        <ele>161.4</ele>
        <time>2015-09-23T15:01:43Z</time>
      </trkpt>
      <trkpt lat="45.68081" lon="4.85465">
        <ele>161.4</ele>
        <time>2015-09-23T15:01:44Z</time>
      </trkpt>
      <trkpt lat="45.68086" lon="4.8546">
        <ele>161.5</ele>
        <time>2015-09-23T15:01:45Z</time>
      </trkpt>
      <trkpt lat="45.68091" lon="4.85454">
        <ele>161.5</ele>
        <time>2015-09-23T15:01:46Z</time>
      </trkpt>
      <trkpt lat="45.68098" lon="4.85447">
        <ele>161.5</ele>
        <time>2015-09-23T15:01:47Z</time>
      </trkpt>
      <trkpt lat="45.68106" lon="4.85446">
        <ele>161.7</ele>
        <time>2015-09-23T15:01:48Z</time>
      </trkpt>
      <trkpt lat="45.68102" lon="4.85446">
        <ele>161.6</ele>
        <time>2015-09-23T15:01:49Z</time>
      </trkpt>
      <trkpt lat="45.68106" lon="4.85446">
        <ele>161.7</ele>
        <time>2015-09-23T15:01:50Z</time>
      </trkpt>
      <trkpt lat="45.68127" lon="4.8546">
        <ele>162</ele>
        <time>2015-09-23T15:01:52Z</time>
      </trkpt>
      <trkpt lat="45.68133" lon="4.85464">
        <ele>161.9</ele>
        <time>2015-09-23T15:01:53Z</time>
      </trkpt>
      <trkpt lat="45.68138" lon="4.85468">
        <ele>161.8</ele>
        <time>2015-09-23T15:01:54Z</time>
      </trkpt>
      <trkpt lat="45.68143" lon="4.85472">
        <ele>161.8</ele>
        <time>2015-09-23T15:01:55Z</time>
      </trkpt>
      <trkpt lat="45.68148" lon="4.85477">
        <ele>161.7</ele>
        <time>2015-09-23T15:01:56Z</time>
      </trkpt>
      <trkpt lat="45.68153" lon="4.8548">
        <ele>161.7</ele>
        <time>2015-09-23T15:01:57Z</time>
      </trkpt>
      <trkpt lat="45.68158" lon="4.85485">
        <ele>161.7</ele>
        <time>2015-09-23T15:01:58Z</time>
      </trkpt>
      <trkpt lat="45.68162" lon="4.85488">
        <ele>161.8</ele>
        <time>2015-09-23T15:01:59Z</time>
      </trkpt>
      <trkpt lat="45.68167" lon="4.85493">
        <ele>161.8</ele>
        <time>2015-09-23T15:02:00Z</time>
      </trkpt>
      <trkpt lat="45.68172" lon="4.85497">
        <ele>161.9</ele>
        <time>2015-09-23T15:02:01Z</time>
      </trkpt>
      <trkpt lat="45.68178" lon="4.85502">
        <ele>162</ele>
        <time>2015-09-23T15:02:02Z</time>
      </trkpt>
      <trkpt lat="45.68194" lon="4.85503">
        <ele>162.3</ele>
        <time>2015-09-23T15:02:05Z</time>
      </trkpt>
      <trkpt lat="45.68208" lon="4.85502">
        <ele>162.5</ele>
        <time>2015-09-23T15:02:07Z</time>
      </trkpt>
      <trkpt lat="45.68215" lon="4.85499">
        <ele>162.5</ele>
        <time>2015-09-23T15:02:08Z</time>
      </trkpt>
      <trkpt lat="45.68222" lon="4.85496">
        <ele>162.5</ele>
        <time>2015-09-23T15:02:09Z</time>
      </trkpt>
      <trkpt lat="45.68228" lon="4.85494">
        <ele>162.5</ele>
        <time>2015-09-23T15:02:10Z</time>
      </trkpt>
      <trkpt lat="45.68235" lon="4.85491">
        <ele>162.5</ele>
        <time>2015-09-23T15:02:11Z</time>
      </trkpt>
      <trkpt lat="45.6824" lon="4.85489">
        <ele>162.5</ele>
        <time>2015-09-23T15:02:12Z</time>
      </trkpt>
      <trkpt lat="45.68246" lon="4.85486">
        <ele>162.5</ele>
        <time>2015-09-23T15:02:13Z</time>
      </trkpt>
      <trkpt lat="45.68254" lon="4.85483">
        <ele>162.5</ele>
        <time>2015-09-23T15:02:14Z</time>
      </trkpt>
      <trkpt lat="45.68259" lon="4.8548">
        <ele>162.6</ele>
        <time>2015-09-23T15:02:15Z</time>
      </trkpt>
      <trkpt lat="45.68266" lon="4.85478">
        <ele>162.6</ele>
        <time>2015-09-23T15:02:16Z</time>
      </trkpt>
      <trkpt lat="45.68272" lon="4.85475">
        <ele>162.7</ele>
        <time>2015-09-23T15:02:17Z</time>
      </trkpt>
      <trkpt lat="45.68279" lon="4.85472">
        <ele>162.7</ele>
        <time>2015-09-23T15:02:18Z</time>
      </trkpt>
      <trkpt lat="45.68285" lon="4.8547">
        <ele>162.8</ele>
        <time>2015-09-23T15:02:19Z</time>
      </trkpt>
      <trkpt lat="45.68291" lon="4.85467">
        <ele>162.9</ele>
        <time>2015-09-23T15:02:20Z</time>
      </trkpt>
      <trkpt lat="45.68298" lon="4.85464">
        <ele>162.9</ele>
        <time>2015-09-23T15:02:21Z</time>
      </trkpt>
      <trkpt lat="45.68305" lon="4.85461">
        <ele>162.8</ele>
        <time>2015-09-23T15:02:22Z</time>
      </trkpt>
      <trkpt lat="45.68309" lon="4.85459">
        <ele>162.8</ele>
        <time>2015-09-23T15:02:23Z</time>
      </trkpt>
      <trkpt lat="45.68317" lon="4.85456">
        <ele>162.7</ele>
        <time>2015-09-23T15:02:24Z</time>
      </trkpt>
      <trkpt lat="45.68323" lon="4.85454">
        <ele>162.6</ele>
        <time>2015-09-23T15:02:25Z</time>
      </trkpt>
      <trkpt lat="45.68328" lon="4.85451">
        <ele>162.6</ele>
        <time>2015-09-23T15:02:26Z</time>
      </trkpt>
      <trkpt lat="45.68334" lon="4.85449">
        <ele>162.5</ele>
        <time>2015-09-23T15:02:27Z</time>
      </trkpt>
      <trkpt lat="45.68342" lon="4.85445">
        <ele>162.4</ele>
        <time>2015-09-23T15:02:28Z</time>
      </trkpt>
      <trkpt lat="45.68347" lon="4.85443">
        <ele>162.4</ele>
        <time>2015-09-23T15:02:29Z</time>
      </trkpt>
      <trkpt lat="45.68352" lon="4.85441">
        <ele>162.4</ele>
        <time>2015-09-23T15:02:30Z</time>
      </trkpt>
      <trkpt lat="45.68358" lon="4.85439">
        <ele>162.3</ele>
        <time>2015-09-23T15:02:31Z</time>
      </trkpt>
      <trkpt lat="45.68364" lon="4.85436">
        <ele>162.3</ele>
        <time>2015-09-23T15:02:32Z</time>
      </trkpt>
      <trkpt lat="45.68371" lon="4.85434">
        <ele>162.3</ele>
        <time>2015-09-23T15:02:33Z</time>
      </trkpt>
      <trkpt lat="45.68378" lon="4.85431">
        <ele>162.5</ele>
        <time>2015-09-23T15:02:34Z</time>
      </trkpt>
      <trkpt lat="45.68398" lon="4.85424">
        <ele>163.7</ele>
        <time>2015-09-23T15:02:37Z</time>
      </trkpt>
      <trkpt lat="45.68403" lon="4.85422">
        <ele>163.9</ele>
        <time>2015-09-23T15:02:38Z</time>
      </trkpt>
      <trkpt lat="45.68411" lon="4.85419">
        <ele>164.3</ele>
        <time>2015-09-23T15:02:39Z</time>
      </trkpt>
      <trkpt lat="45.68421" lon="4.85415">
        <ele>164.7</ele>
        <time>2015-09-23T15:02:41Z</time>
      </trkpt>
      <trkpt lat="45.68429" lon="4.85412">
        <ele>164.9</ele>
        <time>2015-09-23T15:02:42Z</time>
      </trkpt>
      <trkpt lat="45.68436" lon="4.85409">
        <ele>165.1</ele>
        <time>2015-09-23T15:02:43Z</time>
      </trkpt>
      <trkpt lat="45.68442" lon="4.85406">
        <ele>165.2</ele>
        <time>2015-09-23T15:02:44Z</time>
      </trkpt>
      <trkpt lat="45.68447" lon="4.85404">
        <ele>165.3</ele>
        <time>2015-09-23T15:02:45Z</time>
      </trkpt>
      <trkpt lat="45.68453" lon="4.85401">
        <ele>165.4</ele>
        <time>2015-09-23T15:02:46Z</time>
      </trkpt>
      <trkpt lat="45.6846" lon="4.85398">
        <ele>165.4</ele>
        <time>2015-09-23T15:02:47Z</time>
      </trkpt>
      <trkpt lat="45.68465" lon="4.85395">
        <ele>165.3</ele>
        <time>2015-09-23T15:02:48Z</time>
      </trkpt>
      <trkpt lat="45.68473" lon="4.85392">
        <ele>165.3</ele>
        <time>2015-09-23T15:02:49Z</time>
      </trkpt>
      <trkpt lat="45.6848" lon="4.85388">
        <ele>165.3</ele>
        <time>2015-09-23T15:02:50Z</time>
      </trkpt>
      <trkpt lat="45.68486" lon="4.85385">
        <ele>165.4</ele>
        <time>2015-09-23T15:02:51Z</time>
      </trkpt>
      <trkpt lat="45.68494" lon="4.85382">
        <ele>165.5</ele>
        <time>2015-09-23T15:02:52Z</time>
      </trkpt>
      <trkpt lat="45.68501" lon="4.85378">
        <ele>165.6</ele>
        <time>2015-09-23T15:02:53Z</time>
      </trkpt>
      <trkpt lat="45.68507" lon="4.85375">
        <ele>165.8</ele>
        <time>2015-09-23T15:02:54Z</time>
      </trkpt>
      <trkpt lat="45.6853" lon="4.85359">
        <ele>166.6</ele>
        <time>2015-09-23T15:02:58Z</time>
      </trkpt>
      <trkpt lat="45.68536" lon="4.85355">
        <ele>166.8</ele>
        <time>2015-09-23T15:02:59Z</time>
      </trkpt>
      <trkpt lat="45.68542" lon="4.8535">
        <ele>167</ele>
        <time>2015-09-23T15:03:00Z</time>
      </trkpt>
      <trkpt lat="45.68549" lon="4.85345">
        <ele>166.9</ele>
        <time>2015-09-23T15:03:01Z</time>
      </trkpt>
      <trkpt lat="45.68555" lon="4.85341">
        <ele>166.8</ele>
        <time>2015-09-23T15:03:02Z</time>
      </trkpt>
      <trkpt lat="45.68561" lon="4.85338">
        <ele>166.7</ele>
        <time>2015-09-23T15:03:03Z</time>
      </trkpt>
      <trkpt lat="45.68568" lon="4.85334">
        <ele>166.5</ele>
        <time>2015-09-23T15:03:04Z</time>
      </trkpt>
      <trkpt lat="45.68574" lon="4.85331">
        <ele>166.4</ele>
        <time>2015-09-23T15:03:05Z</time>
      </trkpt>
      <trkpt lat="45.68581" lon="4.85327">
        <ele>166.2</ele>
        <time>2015-09-23T15:03:06Z</time>
      </trkpt>
      <trkpt lat="45.68587" lon="4.85325">
        <ele>166</ele>
        <time>2015-09-23T15:03:07Z</time>
      </trkpt>
      <trkpt lat="45.68593" lon="4.85322">
        <ele>165.8</ele>
        <time>2015-09-23T15:03:08Z</time>
      </trkpt>
      <trkpt lat="45.68599" lon="4.85319">
        <ele>165.6</ele>
        <time>2015-09-23T15:03:09Z</time>
      </trkpt>
      <trkpt lat="45.68605" lon="4.85316">
        <ele>165.4</ele>
        <time>2015-09-23T15:03:10Z</time>
      </trkpt>
      <trkpt lat="45.68611" lon="4.85313">
        <ele>165.1</ele>
        <time>2015-09-23T15:03:11Z</time>
      </trkpt>
      <trkpt lat="45.68619" lon="4.85309">
        <ele>164.8</ele>
        <time>2015-09-23T15:03:12Z</time>
      </trkpt>
      <trkpt lat="45.68626" lon="4.85306">
        <ele>164.5</ele>
        <time>2015-09-23T15:03:13Z</time>
      </trkpt>
      <trkpt lat="45.68634" lon="4.85302">
        <ele>164.5</ele>
        <time>2015-09-23T15:03:14Z</time>
      </trkpt>
      <trkpt lat="45.6864" lon="4.85298">
        <ele>164.4</ele>
        <time>2015-09-23T15:03:15Z</time>
      </trkpt>
      <trkpt lat="45.68646" lon="4.85295">
        <ele>164.2</ele>
        <time>2015-09-23T15:03:16Z</time>
      </trkpt>
      <trkpt lat="45.68652" lon="4.85292">
        <ele>164</ele>
        <time>2015-09-23T15:03:17Z</time>
      </trkpt>
      <trkpt lat="45.68659" lon="4.85288">
        <ele>163.9</ele>
        <time>2015-09-23T15:03:18Z</time>
      </trkpt>
      <trkpt lat="45.68665" lon="4.85284">
        <ele>163.9</ele>
        <time>2015-09-23T15:03:19Z</time>
      </trkpt>
      <trkpt lat="45.68671" lon="4.85281">
        <ele>163.8</ele>
        <time>2015-09-23T15:03:20Z</time>
      </trkpt>
      <trkpt lat="45.68677" lon="4.85277">
        <ele>163.7</ele>
        <time>2015-09-23T15:03:21Z</time>
      </trkpt>
      <trkpt lat="45.68683" lon="4.85273">
        <ele>163.6</ele>
        <time>2015-09-23T15:03:22Z</time>
      </trkpt>
      <trkpt lat="45.68688" lon="4.8527">
        <ele>163.5</ele>
        <time>2015-09-23T15:03:23Z</time>
      </trkpt>
      <trkpt lat="45.68693" lon="4.85267">
        <ele>163.5</ele>
        <time>2015-09-23T15:03:24Z</time>
      </trkpt>
      <trkpt lat="45.68699" lon="4.85263">
        <ele>163.3</ele>
        <time>2015-09-23T15:03:25Z</time>
      </trkpt>
      <trkpt lat="45.68707" lon="4.85258">
        <ele>163.2</ele>
        <time>2015-09-23T15:03:26Z</time>
      </trkpt>
      <trkpt lat="45.68713" lon="4.85254">
        <ele>163.3</ele>
        <time>2015-09-23T15:03:27Z</time>
      </trkpt>
      <trkpt lat="45.6872" lon="4.8525">
        <ele>163.5</ele>
        <time>2015-09-23T15:03:28Z</time>
      </trkpt>
      <trkpt lat="45.68727" lon="4.85249">
        <ele>163.7</ele>
        <time>2015-09-23T15:03:29Z</time>
      </trkpt>
      <trkpt lat="45.68734" lon="4.85246">
        <ele>163.9</ele>
        <time>2015-09-23T15:03:30Z</time>
      </trkpt>
      <trkpt lat="45.68742" lon="4.85242">
        <ele>164</ele>
        <time>2015-09-23T15:03:31Z</time>
      </trkpt>
      <trkpt lat="45.68749" lon="4.8524">
        <ele>164.1</ele>
        <time>2015-09-23T15:03:32Z</time>
      </trkpt>
      <trkpt lat="45.68756" lon="4.85237">
        <ele>164.1</ele>
        <time>2015-09-23T15:03:33Z</time>
      </trkpt>
      <trkpt lat="45.68761" lon="4.85231">
        <ele>163.7</ele>
        <time>2015-09-23T15:03:34Z</time>
      </trkpt>
      <trkpt lat="45.68767" lon="4.85226">
        <ele>163.4</ele>
        <time>2015-09-23T15:03:35Z</time>
      </trkpt>
      <trkpt lat="45.68775" lon="4.85223">
        <ele>163.3</ele>
        <time>2015-09-23T15:03:36Z</time>
      </trkpt>
      <trkpt lat="45.68782" lon="4.85221">
        <ele>163.2</ele>
        <time>2015-09-23T15:03:37Z</time>
      </trkpt>
      <trkpt lat="45.68786" lon="4.85214">
        <ele>162.6</ele>
        <time>2015-09-23T15:03:38Z</time>
      </trkpt>
      <trkpt lat="45.68793" lon="4.85212">
        <ele>162.4</ele>
        <time>2015-09-23T15:03:39Z</time>
      </trkpt>
      <trkpt lat="45.688" lon="4.85208">
        <ele>162.2</ele>
        <time>2015-09-23T15:03:40Z</time>
      </trkpt>
      <trkpt lat="45.68806" lon="4.85206">
        <ele>162.4</ele>
        <time>2015-09-23T15:03:41Z</time>
      </trkpt>
      <trkpt lat="45.68815" lon="4.85206">
        <ele>162.6</ele>
        <time>2015-09-23T15:03:42Z</time>
      </trkpt>
      <trkpt lat="45.6882" lon="4.85201">
        <ele>162.8</ele>
        <time>2015-09-23T15:03:43Z</time>
      </trkpt>
      <trkpt lat="45.68827" lon="4.852">
        <ele>163</ele>
        <time>2015-09-23T15:03:44Z</time>
      </trkpt>
      <trkpt lat="45.68833" lon="4.85197">
        <ele>163.1</ele>
        <time>2015-09-23T15:03:45Z</time>
      </trkpt>
      <trkpt lat="45.68839" lon="4.85195">
        <ele>163.3</ele>
        <time>2015-09-23T15:03:46Z</time>
      </trkpt>
      <trkpt lat="45.68845" lon="4.85192">
        <ele>163.4</ele>
        <time>2015-09-23T15:03:47Z</time>
      </trkpt>
      <trkpt lat="45.68851" lon="4.85189">
        <ele>163.5</ele>
        <time>2015-09-23T15:03:48Z</time>
      </trkpt>
      <trkpt lat="45.68857" lon="4.85186">
        <ele>163.5</ele>
        <time>2015-09-23T15:03:49Z</time>
      </trkpt>
      <trkpt lat="45.68866" lon="4.85186">
        <ele>163.6</ele>
        <time>2015-09-23T15:03:50Z</time>
      </trkpt>
      <trkpt lat="45.68872" lon="4.85184">
        <ele>163.7</ele>
        <time>2015-09-23T15:03:51Z</time>
      </trkpt>
      <trkpt lat="45.68877" lon="4.85182">
        <ele>163.7</ele>
        <time>2015-09-23T15:03:52Z</time>
      </trkpt>
      <trkpt lat="45.68884" lon="4.85182">
        <ele>163.7</ele>
        <time>2015-09-23T15:03:53Z</time>
      </trkpt>
      <trkpt lat="45.6889" lon="4.8518">
        <ele>163.7</ele>
        <time>2015-09-23T15:03:54Z</time>
      </trkpt>
      <trkpt lat="45.68897" lon="4.85181">
        <ele>163.8</ele>
        <time>2015-09-23T15:03:55Z</time>
      </trkpt>
      <trkpt lat="45.68907" lon="4.85202">
        <ele>163.9</ele>
        <time>2015-09-23T15:03:57Z</time>
      </trkpt>
      <trkpt lat="45.68914" lon="4.85215">
        <ele>165.2</ele>
        <time>2015-09-23T15:04:00Z</time>
      </trkpt>
      <trkpt lat="45.6892" lon="4.85221">
        <ele>166.3</ele>
        <time>2015-09-23T15:04:01Z</time>
      </trkpt>
      <trkpt lat="45.68925" lon="4.85222">
        <ele>166.5</ele>
        <time>2015-09-23T15:04:03Z</time>
      </trkpt>
      <trkpt lat="45.68938" lon="4.8522">
        <ele>166.3</ele>
        <time>2015-09-23T15:04:04Z</time>
      </trkpt>
      <trkpt lat="45.68943" lon="4.85219">
        <ele>166.2</ele>
        <time>2015-09-23T15:04:05Z</time>
      </trkpt>
      <trkpt lat="45.68949" lon="4.85218">
        <ele>166</ele>
        <time>2015-09-23T15:04:06Z</time>
      </trkpt>
      <trkpt lat="45.68955" lon="4.85217">
        <ele>165.9</ele>
        <time>2015-09-23T15:04:07Z</time>
      </trkpt>
      <trkpt lat="45.68962" lon="4.85216">
        <ele>165.8</ele>
        <time>2015-09-23T15:04:08Z</time>
      </trkpt>
      <trkpt lat="45.68967" lon="4.85216">
        <ele>165.8</ele>
        <time>2015-09-23T15:04:09Z</time>
      </trkpt>
      <trkpt lat="45.68971" lon="4.85215">
        <ele>165.9</ele>
        <time>2015-09-23T15:04:10Z</time>
      </trkpt>
      <trkpt lat="45.68979" lon="4.85214">
        <ele>166</ele>
        <time>2015-09-23T15:04:11Z</time>
      </trkpt>
      <trkpt lat="45.68985" lon="4.85214">
        <ele>166.1</ele>
        <time>2015-09-23T15:04:12Z</time>
      </trkpt>
      <trkpt lat="45.68993" lon="4.85213">
        <ele>166.2</ele>
        <time>2015-09-23T15:04:13Z</time>
      </trkpt>
      <trkpt lat="45.68999" lon="4.85213">
        <ele>166.3</ele>
        <time>2015-09-23T15:04:14Z</time>
      </trkpt>
      <trkpt lat="45.69005" lon="4.85212">
        <ele>166.4</ele>
        <time>2015-09-23T15:04:15Z</time>
      </trkpt>
      <trkpt lat="45.6901" lon="4.85212">
        <ele>166.5</ele>
        <time>2015-09-23T15:04:16Z</time>
      </trkpt>
      <trkpt lat="45.69016" lon="4.85211">
        <ele>166.6</ele>
        <time>2015-09-23T15:04:17Z</time>
      </trkpt>
      <trkpt lat="45.69022" lon="4.85211">
        <ele>166.8</ele>
        <time>2015-09-23T15:04:18Z</time>
      </trkpt>
      <trkpt lat="45.69027" lon="4.85211">
        <ele>166.9</ele>
        <time>2015-09-23T15:04:19Z</time>
      </trkpt>
      <trkpt lat="45.69032" lon="4.85211">
        <ele>167.1</ele>
        <time>2015-09-23T15:04:20Z</time>
      </trkpt>
      <trkpt lat="45.69039" lon="4.85211">
        <ele>167.3</ele>
        <time>2015-09-23T15:04:21Z</time>
      </trkpt>
      <trkpt lat="45.69044" lon="4.85211">
        <ele>167.4</ele>
        <time>2015-09-23T15:04:22Z</time>
      </trkpt>
      <trkpt lat="45.6905" lon="4.85211">
        <ele>167.4</ele>
        <time>2015-09-23T15:04:23Z</time>
      </trkpt>
      <trkpt lat="45.69056" lon="4.85211">
        <ele>167.4</ele>
        <time>2015-09-23T15:04:24Z</time>
      </trkpt>
      <trkpt lat="45.69062" lon="4.85211">
        <ele>167.4</ele>
        <time>2015-09-23T15:04:25Z</time>
      </trkpt>
      <trkpt lat="45.69068" lon="4.85211">
        <ele>167.4</ele>
        <time>2015-09-23T15:04:26Z</time>
      </trkpt>
      <trkpt lat="45.69073" lon="4.85211">
        <ele>167.4</ele>
        <time>2015-09-23T15:04:27Z</time>
      </trkpt>
      <trkpt lat="45.6908" lon="4.85211">
        <ele>167.4</ele>
        <time>2015-09-23T15:04:28Z</time>
      </trkpt>
      <trkpt lat="45.69085" lon="4.85211">
        <ele>167.4</ele>
        <time>2015-09-23T15:04:29Z</time>
      </trkpt>
      <trkpt lat="45.69092" lon="4.85211">
        <ele>167.4</ele>
        <time>2015-09-23T15:04:30Z</time>
      </trkpt>
      <trkpt lat="45.69098" lon="4.85211">
        <ele>167.4</ele>
        <time>2015-09-23T15:04:31Z</time>
      </trkpt>
      <trkpt lat="45.69104" lon="4.85211">
        <ele>167.4</ele>
        <time>2015-09-23T15:04:32Z</time>
      </trkpt>
      <trkpt lat="45.69127" lon="4.85213">
        <ele>167.6</ele>
        <time>2015-09-23T15:04:36Z</time>
      </trkpt>
      <trkpt lat="45.69132" lon="4.85212">
        <ele>167.5</ele>
        <time>2015-09-23T15:04:37Z</time>
      </trkpt>
      <trkpt lat="45.69138" lon="4.85212">
        <ele>167.4</ele>
        <time>2015-09-23T15:04:38Z</time>
      </trkpt>
      <trkpt lat="45.69145" lon="4.85213">
        <ele>167.4</ele>
        <time>2015-09-23T15:04:39Z</time>
      </trkpt>
      <trkpt lat="45.69151" lon="4.85212">
        <ele>167.2</ele>
        <time>2015-09-23T15:04:40Z</time>
      </trkpt>
      <trkpt lat="45.69157" lon="4.85212">
        <ele>167.1</ele>
        <time>2015-09-23T15:04:41Z</time>
      </trkpt>
      <trkpt lat="45.69164" lon="4.85213">
        <ele>167.1</ele>
        <time>2015-09-23T15:04:42Z</time>
      </trkpt>
      <trkpt lat="45.6917" lon="4.85214">
        <ele>167.2</ele>
        <time>2015-09-23T15:04:43Z</time>
      </trkpt>
      <trkpt lat="45.69176" lon="4.85213">
        <ele>167</ele>
        <time>2015-09-23T15:04:44Z</time>
      </trkpt>
      <trkpt lat="45.69182" lon="4.85213">
        <ele>167</ele>
        <time>2015-09-23T15:04:45Z</time>
      </trkpt>
      <trkpt lat="45.69189" lon="4.85214">
        <ele>166.9</ele>
        <time>2015-09-23T15:04:46Z</time>
      </trkpt>
      <trkpt lat="45.69195" lon="4.85214">
        <ele>166.9</ele>
        <time>2015-09-23T15:04:47Z</time>
      </trkpt>
      <trkpt lat="45.69201" lon="4.85215">
        <ele>166.8</ele>
        <time>2015-09-23T15:04:48Z</time>
      </trkpt>
      <trkpt lat="45.69209" lon="4.85215">
        <ele>166.8</ele>
        <time>2015-09-23T15:04:49Z</time>
      </trkpt>
      <trkpt lat="45.69216" lon="4.85215">
        <ele>167</ele>
        <time>2015-09-23T15:04:50Z</time>
      </trkpt>
      <trkpt lat="45.69222" lon="4.85216">
        <ele>167.1</ele>
        <time>2015-09-23T15:04:51Z</time>
      </trkpt>
      <trkpt lat="45.69229" lon="4.85216">
        <ele>167.3</ele>
        <time>2015-09-23T15:04:52Z</time>
      </trkpt>
      <trkpt lat="45.69236" lon="4.85217">
        <ele>167.4</ele>
        <time>2015-09-23T15:04:53Z</time>
      </trkpt>
      <trkpt lat="45.69244" lon="4.85217">
        <ele>167.6</ele>
        <time>2015-09-23T15:04:54Z</time>
      </trkpt>
      <trkpt lat="45.69251" lon="4.85218">
        <ele>167.9</ele>
        <time>2015-09-23T15:04:55Z</time>
      </trkpt>
      <trkpt lat="45.6926" lon="4.85218">
        <ele>168.1</ele>
        <time>2015-09-23T15:04:56Z</time>
      </trkpt>
      <trkpt lat="45.69268" lon="4.85218">
        <ele>168.2</ele>
        <time>2015-09-23T15:04:57Z</time>
      </trkpt>
      <trkpt lat="45.69276" lon="4.85218">
        <ele>168.3</ele>
        <time>2015-09-23T15:04:58Z</time>
      </trkpt>
      <trkpt lat="45.69284" lon="4.8522">
        <ele>168.7</ele>
        <time>2015-09-23T15:04:59Z</time>
      </trkpt>
      <trkpt lat="45.69292" lon="4.8522">
        <ele>169</ele>
        <time>2015-09-23T15:05:00Z</time>
      </trkpt>
      <trkpt lat="45.693" lon="4.85221">
        <ele>169.1</ele>
        <time>2015-09-23T15:05:01Z</time>
      </trkpt>
      <trkpt lat="45.69309" lon="4.85222">
        <ele>169.2</ele>
        <time>2015-09-23T15:05:02Z</time>
      </trkpt>
      <trkpt lat="45.69317" lon="4.85222">
        <ele>169.3</ele>
        <time>2015-09-23T15:05:03Z</time>
      </trkpt>
      <trkpt lat="45.69324" lon="4.85223">
        <ele>169.4</ele>
        <time>2015-09-23T15:05:04Z</time>
      </trkpt>
      <trkpt lat="45.69332" lon="4.85223">
        <ele>169.5</ele>
        <time>2015-09-23T15:05:05Z</time>
      </trkpt>
      <trkpt lat="45.6934" lon="4.85223">
        <ele>169.5</ele>
        <time>2015-09-23T15:05:06Z</time>
      </trkpt>
      <trkpt lat="45.69346" lon="4.85223">
        <ele>169.6</ele>
        <time>2015-09-23T15:05:07Z</time>
      </trkpt>
      <trkpt lat="45.69353" lon="4.85223">
        <ele>169.6</ele>
        <time>2015-09-23T15:05:08Z</time>
      </trkpt>
      <trkpt lat="45.69361" lon="4.85223">
        <ele>169.6</ele>
        <time>2015-09-23T15:05:09Z</time>
      </trkpt>
      <trkpt lat="45.69369" lon="4.85223">
        <ele>169.7</ele>
        <time>2015-09-23T15:05:10Z</time>
      </trkpt>
      <trkpt lat="45.69375" lon="4.85224">
        <ele>169.7</ele>
        <time>2015-09-23T15:05:11Z</time>
      </trkpt>
      <trkpt lat="45.69382" lon="4.85224">
        <ele>169.8</ele>
        <time>2015-09-23T15:05:12Z</time>
      </trkpt>
      <trkpt lat="45.69389" lon="4.85224">
        <ele>169.8</ele>
        <time>2015-09-23T15:05:13Z</time>
      </trkpt>
      <trkpt lat="45.69396" lon="4.85224">
        <ele>169.9</ele>
        <time>2015-09-23T15:05:14Z</time>
      </trkpt>
      <trkpt lat="45.69403" lon="4.85224">
        <ele>169.9</ele>
        <time>2015-09-23T15:05:15Z</time>
      </trkpt>
      <trkpt lat="45.69409" lon="4.85224">
        <ele>169.9</ele>
        <time>2015-09-23T15:05:16Z</time>
      </trkpt>
      <trkpt lat="45.69416" lon="4.85224">
        <ele>170</ele>
        <time>2015-09-23T15:05:17Z</time>
      </trkpt>
      <trkpt lat="45.69424" lon="4.85224">
        <ele>170</ele>
        <time>2015-09-23T15:05:18Z</time>
      </trkpt>
      <trkpt lat="45.69431" lon="4.85225">
        <ele>170.1</ele>
        <time>2015-09-23T15:05:19Z</time>
      </trkpt>
      <trkpt lat="45.69437" lon="4.85225">
        <ele>170.1</ele>
        <time>2015-09-23T15:05:20Z</time>
      </trkpt>
      <trkpt lat="45.69444" lon="4.85225">
        <ele>170.1</ele>
        <time>2015-09-23T15:05:21Z</time>
      </trkpt>
      <trkpt lat="45.69451" lon="4.85225">
        <ele>170.2</ele>
        <time>2015-09-23T15:05:22Z</time>
      </trkpt>
      <trkpt lat="45.69458" lon="4.85225">
        <ele>170.2</ele>
        <time>2015-09-23T15:05:23Z</time>
      </trkpt>
      <trkpt lat="45.69465" lon="4.85225">
        <ele>170.2</ele>
        <time>2015-09-23T15:05:24Z</time>
      </trkpt>
      <trkpt lat="45.69472" lon="4.85225">
        <ele>170.1</ele>
        <time>2015-09-23T15:05:25Z</time>
      </trkpt>
      <trkpt lat="45.69479" lon="4.85226">
        <ele>170.2</ele>
        <time>2015-09-23T15:05:26Z</time>
      </trkpt>
      <trkpt lat="45.69487" lon="4.85227">
        <ele>170.2</ele>
        <time>2015-09-23T15:05:27Z</time>
      </trkpt>
      <trkpt lat="45.69493" lon="4.85228">
        <ele>170.3</ele>
        <time>2015-09-23T15:05:28Z</time>
      </trkpt>
      <trkpt lat="45.695" lon="4.85229">
        <ele>170.3</ele>
        <time>2015-09-23T15:05:29Z</time>
      </trkpt>
      <trkpt lat="45.69507" lon="4.8523">
        <ele>170.4</ele>
        <time>2015-09-23T15:05:30Z</time>
      </trkpt>
      <trkpt lat="45.69514" lon="4.8523">
        <ele>170.4</ele>
        <time>2015-09-23T15:05:31Z</time>
      </trkpt>
      <trkpt lat="45.6952" lon="4.85231">
        <ele>170.5</ele>
        <time>2015-09-23T15:05:32Z</time>
      </trkpt>
      <trkpt lat="45.69527" lon="4.85232">
        <ele>170.5</ele>
        <time>2015-09-23T15:05:33Z</time>
      </trkpt>
      <trkpt lat="45.69533" lon="4.85233">
        <ele>170.6</ele>
        <time>2015-09-23T15:05:34Z</time>
      </trkpt>
      <trkpt lat="45.69539" lon="4.85234">
        <ele>170.7</ele>
        <time>2015-09-23T15:05:35Z</time>
      </trkpt>
      <trkpt lat="45.69546" lon="4.85235">
        <ele>170.6</ele>
        <time>2015-09-23T15:05:36Z</time>
      </trkpt>
      <trkpt lat="45.69554" lon="4.85235">
        <ele>170.5</ele>
        <time>2015-09-23T15:05:37Z</time>
      </trkpt>
      <trkpt lat="45.6956" lon="4.85236">
        <ele>170.4</ele>
        <time>2015-09-23T15:05:38Z</time>
      </trkpt>
      <trkpt lat="45.69567" lon="4.85237">
        <ele>170.3</ele>
        <time>2015-09-23T15:05:39Z</time>
      </trkpt>
      <trkpt lat="45.69573" lon="4.85238">
        <ele>170.3</ele>
        <time>2015-09-23T15:05:40Z</time>
      </trkpt>
      <trkpt lat="45.69579" lon="4.85239">
        <ele>170.2</ele>
        <time>2015-09-23T15:05:41Z</time>
      </trkpt>
      <trkpt lat="45.69586" lon="4.85241">
        <ele>170.2</ele>
        <time>2015-09-23T15:05:42Z</time>
      </trkpt>
      <trkpt lat="45.69593" lon="4.85242">
        <ele>170.2</ele>
        <time>2015-09-23T15:05:43Z</time>
      </trkpt>
      <trkpt lat="45.69599" lon="4.85244">
        <ele>170.1</ele>
        <time>2015-09-23T15:05:44Z</time>
      </trkpt>
      <trkpt lat="45.69605" lon="4.85245">
        <ele>170.1</ele>
        <time>2015-09-23T15:05:45Z</time>
      </trkpt>
      <trkpt lat="45.69611" lon="4.85246">
        <ele>170</ele>
        <time>2015-09-23T15:05:46Z</time>
      </trkpt>
      <trkpt lat="45.69617" lon="4.85247">
        <ele>170</ele>
        <time>2015-09-23T15:05:47Z</time>
      </trkpt>
      <trkpt lat="45.69624" lon="4.85249">
        <ele>169.9</ele>
        <time>2015-09-23T15:05:48Z</time>
      </trkpt>
      <trkpt lat="45.6963" lon="4.8525">
        <ele>169.9</ele>
        <time>2015-09-23T15:05:49Z</time>
      </trkpt>
      <trkpt lat="45.69636" lon="4.85252">
        <ele>169.9</ele>
        <time>2015-09-23T15:05:50Z</time>
      </trkpt>
      <trkpt lat="45.69643" lon="4.85253">
        <ele>169.9</ele>
        <time>2015-09-23T15:05:51Z</time>
      </trkpt>
      <trkpt lat="45.69649" lon="4.85255">
        <ele>169.9</ele>
        <time>2015-09-23T15:05:52Z</time>
      </trkpt>
      <trkpt lat="45.69656" lon="4.85256">
        <ele>169.9</ele>
        <time>2015-09-23T15:05:53Z</time>
      </trkpt>
      <trkpt lat="45.69662" lon="4.85258">
        <ele>169.9</ele>
        <time>2015-09-23T15:05:54Z</time>
      </trkpt>
      <trkpt lat="45.69669" lon="4.8526">
        <ele>169.8</ele>
        <time>2015-09-23T15:05:55Z</time>
      </trkpt>
      <trkpt lat="45.69676" lon="4.85261">
        <ele>169.8</ele>
        <time>2015-09-23T15:05:56Z</time>
      </trkpt>
      <trkpt lat="45.69682" lon="4.85263">
        <ele>169.8</ele>
        <time>2015-09-23T15:05:57Z</time>
      </trkpt>
      <trkpt lat="45.69688" lon="4.85266">
        <ele>169.8</ele>
        <time>2015-09-23T15:05:58Z</time>
      </trkpt>
      <trkpt lat="45.69694" lon="4.85267">
        <ele>169.7</ele>
        <time>2015-09-23T15:05:59Z</time>
      </trkpt>
      <trkpt lat="45.69701" lon="4.8527">
        <ele>169.7</ele>
        <time>2015-09-23T15:06:00Z</time>
      </trkpt>
      <trkpt lat="45.69709" lon="4.85272">
        <ele>169.6</ele>
        <time>2015-09-23T15:06:01Z</time>
      </trkpt>
      <trkpt lat="45.69715" lon="4.85274">
        <ele>169.6</ele>
        <time>2015-09-23T15:06:02Z</time>
      </trkpt>
      <trkpt lat="45.6972" lon="4.85276">
        <ele>169.6</ele>
        <time>2015-09-23T15:06:03Z</time>
      </trkpt>
      <trkpt lat="45.69727" lon="4.85278">
        <ele>169.6</ele>
        <time>2015-09-23T15:06:04Z</time>
      </trkpt>
      <trkpt lat="45.69734" lon="4.85281">
        <ele>169.6</ele>
        <time>2015-09-23T15:06:05Z</time>
      </trkpt>
      <trkpt lat="45.69742" lon="4.85284">
        <ele>169.6</ele>
        <time>2015-09-23T15:06:06Z</time>
      </trkpt>
      <trkpt lat="45.69748" lon="4.85286">
        <ele>169.6</ele>
        <time>2015-09-23T15:06:07Z</time>
      </trkpt>
      <trkpt lat="45.69754" lon="4.85288">
        <ele>169.6</ele>
        <time>2015-09-23T15:06:08Z</time>
      </trkpt>
      <trkpt lat="45.69761" lon="4.8529">
        <ele>169.6</ele>
        <time>2015-09-23T15:06:09Z</time>
      </trkpt>
      <trkpt lat="45.69767" lon="4.85293">
        <ele>169.9</ele>
        <time>2015-09-23T15:06:10Z</time>
      </trkpt>
      <trkpt lat="45.69774" lon="4.85295">
        <ele>170.5</ele>
        <time>2015-09-23T15:06:11Z</time>
      </trkpt>
      <trkpt lat="45.6978" lon="4.85297">
        <ele>171</ele>
        <time>2015-09-23T15:06:12Z</time>
      </trkpt>
      <trkpt lat="45.69786" lon="4.85299">
        <ele>171.6</ele>
        <time>2015-09-23T15:06:13Z</time>
      </trkpt>
      <trkpt lat="45.69792" lon="4.85302">
        <ele>172.1</ele>
        <time>2015-09-23T15:06:14Z</time>
      </trkpt>
      <trkpt lat="45.69799" lon="4.85304">
        <ele>172.5</ele>
        <time>2015-09-23T15:06:15Z</time>
      </trkpt>
      <trkpt lat="45.69805" lon="4.85306">
        <ele>172.9</ele>
        <time>2015-09-23T15:06:16Z</time>
      </trkpt>
      <trkpt lat="45.69811" lon="4.85308">
        <ele>173.1</ele>
        <time>2015-09-23T15:06:17Z</time>
      </trkpt>
      <trkpt lat="45.69817" lon="4.8531">
        <ele>173.4</ele>
        <time>2015-09-23T15:06:18Z</time>
      </trkpt>
      <trkpt lat="45.69824" lon="4.85313">
        <ele>173.7</ele>
        <time>2015-09-23T15:06:19Z</time>
      </trkpt>
      <trkpt lat="45.69829" lon="4.85314">
        <ele>173.9</ele>
        <time>2015-09-23T15:06:20Z</time>
      </trkpt>
      <trkpt lat="45.69836" lon="4.85317">
        <ele>174</ele>
        <time>2015-09-23T15:06:21Z</time>
      </trkpt>
      <trkpt lat="45.69841" lon="4.85318">
        <ele>174.1</ele>
        <time>2015-09-23T15:06:22Z</time>
      </trkpt>
      <trkpt lat="45.69847" lon="4.8532">
        <ele>174.2</ele>
        <time>2015-09-23T15:06:23Z</time>
      </trkpt>
      <trkpt lat="45.69853" lon="4.85322">
        <ele>174.2</ele>
        <time>2015-09-23T15:06:24Z</time>
      </trkpt>
      <trkpt lat="45.6986" lon="4.85324">
        <ele>174.3</ele>
        <time>2015-09-23T15:06:25Z</time>
      </trkpt>
      <trkpt lat="45.69866" lon="4.85326">
        <ele>174.3</ele>
        <time>2015-09-23T15:06:26Z</time>
      </trkpt>
      <trkpt lat="45.69871" lon="4.85327">
        <ele>174.3</ele>
        <time>2015-09-23T15:06:27Z</time>
      </trkpt>
      <trkpt lat="45.69877" lon="4.85329">
        <ele>174.3</ele>
        <time>2015-09-23T15:06:28Z</time>
      </trkpt>
      <trkpt lat="45.69884" lon="4.85331">
        <ele>174.5</ele>
        <time>2015-09-23T15:06:29Z</time>
      </trkpt>
      <trkpt lat="45.69889" lon="4.85333">
        <ele>174.6</ele>
        <time>2015-09-23T15:06:30Z</time>
      </trkpt>
      <trkpt lat="45.69895" lon="4.85335">
        <ele>174.7</ele>
        <time>2015-09-23T15:06:31Z</time>
      </trkpt>
      <trkpt lat="45.69901" lon="4.85337">
        <ele>174.7</ele>
        <time>2015-09-23T15:06:32Z</time>
      </trkpt>
      <trkpt lat="45.69907" lon="4.85338">
        <ele>174.7</ele>
        <time>2015-09-23T15:06:33Z</time>
      </trkpt>
      <trkpt lat="45.69914" lon="4.8534">
        <ele>174.6</ele>
        <time>2015-09-23T15:06:34Z</time>
      </trkpt>
      <trkpt lat="45.69921" lon="4.85342">
        <ele>174.4</ele>
        <time>2015-09-23T15:06:35Z</time>
      </trkpt>
      <trkpt lat="45.69927" lon="4.85343">
        <ele>174.2</ele>
        <time>2015-09-23T15:06:36Z</time>
      </trkpt>
      <trkpt lat="45.69932" lon="4.85344">
        <ele>174</ele>
        <time>2015-09-23T15:06:37Z</time>
      </trkpt>
      <trkpt lat="45.69939" lon="4.85346">
        <ele>173.7</ele>
        <time>2015-09-23T15:06:38Z</time>
      </trkpt>
      <trkpt lat="45.69945" lon="4.85347">
        <ele>173.4</ele>
        <time>2015-09-23T15:06:39Z</time>
      </trkpt>
      <trkpt lat="45.69951" lon="4.85349">
        <ele>173.1</ele>
        <time>2015-09-23T15:06:40Z</time>
      </trkpt>
      <trkpt lat="45.69958" lon="4.8535">
        <ele>172.6</ele>
        <time>2015-09-23T15:06:41Z</time>
      </trkpt>
      <trkpt lat="45.69965" lon="4.85352">
        <ele>172.3</ele>
        <time>2015-09-23T15:06:42Z</time>
      </trkpt>
      <trkpt lat="45.69971" lon="4.85353">
        <ele>171.9</ele>
        <time>2015-09-23T15:06:43Z</time>
      </trkpt>
      <trkpt lat="45.69978" lon="4.85355">
        <ele>171.5</ele>
        <time>2015-09-23T15:06:44Z</time>
      </trkpt>
      <trkpt lat="45.69985" lon="4.85357">
        <ele>171.2</ele>
        <time>2015-09-23T15:06:45Z</time>
      </trkpt>
      <trkpt lat="45.69991" lon="4.8536">
        <ele>170.8</ele>
        <time>2015-09-23T15:06:46Z</time>
      </trkpt>
      <trkpt lat="45.69999" lon="4.85363">
        <ele>170.3</ele>
        <time>2015-09-23T15:06:47Z</time>
      </trkpt>
      <trkpt lat="45.70005" lon="4.85365">
        <ele>169.9</ele>
        <time>2015-09-23T15:06:48Z</time>
      </trkpt>
      <trkpt lat="45.70011" lon="4.85368">
        <ele>169.5</ele>
        <time>2015-09-23T15:06:49Z</time>
      </trkpt>
      <trkpt lat="45.70018" lon="4.8537">
        <ele>169</ele>
        <time>2015-09-23T15:06:50Z</time>
      </trkpt>
      <trkpt lat="45.70025" lon="4.85373">
        <ele>168.5</ele>
        <time>2015-09-23T15:06:51Z</time>
      </trkpt>
      <trkpt lat="45.70032" lon="4.85376">
        <ele>168.1</ele>
        <time>2015-09-23T15:06:52Z</time>
      </trkpt>
      <trkpt lat="45.70039" lon="4.8538">
        <ele>168.5</ele>
        <time>2015-09-23T15:06:53Z</time>
      </trkpt>
      <trkpt lat="45.70045" lon="4.85384">
        <ele>169.1</ele>
        <time>2015-09-23T15:06:54Z</time>
      </trkpt>
      <trkpt lat="45.70053" lon="4.85388">
        <ele>169.9</ele>
        <time>2015-09-23T15:06:55Z</time>
      </trkpt>
      <trkpt lat="45.7006" lon="4.85393">
        <ele>170.7</ele>
        <time>2015-09-23T15:06:56Z</time>
      </trkpt>
      <trkpt lat="45.70066" lon="4.85398">
        <ele>171.3</ele>
        <time>2015-09-23T15:06:57Z</time>
      </trkpt>
      <trkpt lat="45.70072" lon="4.85402">
        <ele>171.9</ele>
        <time>2015-09-23T15:06:58Z</time>
      </trkpt>
      <trkpt lat="45.70079" lon="4.85406">
        <ele>172.4</ele>
        <time>2015-09-23T15:06:59Z</time>
      </trkpt>
      <trkpt lat="45.70085" lon="4.85411">
        <ele>172.8</ele>
        <time>2015-09-23T15:07:00Z</time>
      </trkpt>
      <trkpt lat="45.70092" lon="4.85415">
        <ele>173.2</ele>
        <time>2015-09-23T15:07:01Z</time>
      </trkpt>
      <trkpt lat="45.70098" lon="4.8542">
        <ele>173.4</ele>
        <time>2015-09-23T15:07:02Z</time>
      </trkpt>
      <trkpt lat="45.70105" lon="4.85424">
        <ele>173.6</ele>
        <time>2015-09-23T15:07:03Z</time>
      </trkpt>
      <trkpt lat="45.70112" lon="4.85429">
        <ele>173.8</ele>
        <time>2015-09-23T15:07:04Z</time>
      </trkpt>
      <trkpt lat="45.7012" lon="4.85434">
        <ele>173.8</ele>
        <time>2015-09-23T15:07:05Z</time>
      </trkpt>
      <trkpt lat="45.70128" lon="4.85439">
        <ele>173.7</ele>
        <time>2015-09-23T15:07:06Z</time>
      </trkpt>
      <trkpt lat="45.70134" lon="4.85443">
        <ele>173.7</ele>
        <time>2015-09-23T15:07:07Z</time>
      </trkpt>
      <trkpt lat="45.7014" lon="4.85446">
        <ele>173.5</ele>
        <time>2015-09-23T15:07:08Z</time>
      </trkpt>
      <trkpt lat="45.70147" lon="4.85449">
        <ele>173.2</ele>
        <time>2015-09-23T15:07:09Z</time>
      </trkpt>
      <trkpt lat="45.70155" lon="4.85453">
        <ele>172.8</ele>
        <time>2015-09-23T15:07:10Z</time>
      </trkpt>
      <trkpt lat="45.70162" lon="4.85457">
        <ele>172.3</ele>
        <time>2015-09-23T15:07:11Z</time>
      </trkpt>
      <trkpt lat="45.70169" lon="4.85459">
        <ele>171.9</ele>
        <time>2015-09-23T15:07:12Z</time>
      </trkpt>
      <trkpt lat="45.70177" lon="4.85463">
        <ele>171.6</ele>
        <time>2015-09-23T15:07:13Z</time>
      </trkpt>
      <trkpt lat="45.70185" lon="4.85466">
        <ele>171.2</ele>
        <time>2015-09-23T15:07:14Z</time>
      </trkpt>
      <trkpt lat="45.70193" lon="4.85469">
        <ele>170.9</ele>
        <time>2015-09-23T15:07:15Z</time>
      </trkpt>
      <trkpt lat="45.70199" lon="4.85471">
        <ele>170.6</ele>
        <time>2015-09-23T15:07:16Z</time>
      </trkpt>
      <trkpt lat="45.70207" lon="4.85474">
        <ele>170.2</ele>
        <time>2015-09-23T15:07:17Z</time>
      </trkpt>
      <trkpt lat="45.70214" lon="4.85477">
        <ele>170.5</ele>
        <time>2015-09-23T15:07:18Z</time>
      </trkpt>
      <trkpt lat="45.70221" lon="4.8548">
        <ele>171</ele>
        <time>2015-09-23T15:07:19Z</time>
      </trkpt>
      <trkpt lat="45.70226" lon="4.85482">
        <ele>171.3</ele>
        <time>2015-09-23T15:07:20Z</time>
      </trkpt>
      <trkpt lat="45.70234" lon="4.85485">
        <ele>171.8</ele>
        <time>2015-09-23T15:07:21Z</time>
      </trkpt>
      <trkpt lat="45.70241" lon="4.85489">
        <ele>172.2</ele>
        <time>2015-09-23T15:07:22Z</time>
      </trkpt>
      <trkpt lat="45.70248" lon="4.85491">
        <ele>172.5</ele>
        <time>2015-09-23T15:07:23Z</time>
      </trkpt>
      <trkpt lat="45.70255" lon="4.85494">
        <ele>172.8</ele>
        <time>2015-09-23T15:07:24Z</time>
      </trkpt>
      <trkpt lat="45.70262" lon="4.85497">
        <ele>173</ele>
        <time>2015-09-23T15:07:25Z</time>
      </trkpt>
      <trkpt lat="45.70268" lon="4.855">
        <ele>173.2</ele>
        <time>2015-09-23T15:07:26Z</time>
      </trkpt>
      <trkpt lat="45.70275" lon="4.85504">
        <ele>173.5</ele>
        <time>2015-09-23T15:07:27Z</time>
      </trkpt>
      <trkpt lat="45.70283" lon="4.85508">
        <ele>173.7</ele>
        <time>2015-09-23T15:07:28Z</time>
      </trkpt>
      <trkpt lat="45.7029" lon="4.85512">
        <ele>173.8</ele>
        <time>2015-09-23T15:07:29Z</time>
      </trkpt>
      <trkpt lat="45.70297" lon="4.85515">
        <ele>173.9</ele>
        <time>2015-09-23T15:07:30Z</time>
      </trkpt>
      <trkpt lat="45.70303" lon="4.85518">
        <ele>173.9</ele>
        <time>2015-09-23T15:07:31Z</time>
      </trkpt>
      <trkpt lat="45.7031" lon="4.85522">
        <ele>174</ele>
        <time>2015-09-23T15:07:32Z</time>
      </trkpt>
      <trkpt lat="45.70317" lon="4.85526">
        <ele>174</ele>
        <time>2015-09-23T15:07:33Z</time>
      </trkpt>
      <trkpt lat="45.70324" lon="4.8553">
        <ele>174</ele>
        <time>2015-09-23T15:07:34Z</time>
      </trkpt>
      <trkpt lat="45.70331" lon="4.85534">
        <ele>173.9</ele>
        <time>2015-09-23T15:07:35Z</time>
      </trkpt>
      <trkpt lat="45.70337" lon="4.85537">
        <ele>173.8</ele>
        <time>2015-09-23T15:07:36Z</time>
      </trkpt>
      <trkpt lat="45.70344" lon="4.8554">
        <ele>173.7</ele>
        <time>2015-09-23T15:07:37Z</time>
      </trkpt>
      <trkpt lat="45.70351" lon="4.85543">
        <ele>173.7</ele>
        <time>2015-09-23T15:07:38Z</time>
      </trkpt>
      <trkpt lat="45.70357" lon="4.85546">
        <ele>173.8</ele>
        <time>2015-09-23T15:07:39Z</time>
      </trkpt>
      <trkpt lat="45.70362" lon="4.85548">
        <ele>174</ele>
        <time>2015-09-23T15:07:40Z</time>
      </trkpt>
      <trkpt lat="45.70368" lon="4.85551">
        <ele>174.1</ele>
        <time>2015-09-23T15:07:41Z</time>
      </trkpt>
      <trkpt lat="45.70376" lon="4.85554">
        <ele>174.1</ele>
        <time>2015-09-23T15:07:42Z</time>
      </trkpt>
      <trkpt lat="45.70382" lon="4.85557">
        <ele>174.3</ele>
        <time>2015-09-23T15:07:43Z</time>
      </trkpt>
      <trkpt lat="45.70388" lon="4.85559">
        <ele>174.4</ele>
        <time>2015-09-23T15:07:44Z</time>
      </trkpt>
      <trkpt lat="45.70394" lon="4.85561">
        <ele>174.5</ele>
        <time>2015-09-23T15:07:45Z</time>
      </trkpt>
      <trkpt lat="45.70399" lon="4.85563">
        <ele>174.5</ele>
        <time>2015-09-23T15:07:46Z</time>
      </trkpt>
      <trkpt lat="45.70406" lon="4.85565">
        <ele>174.6</ele>
        <time>2015-09-23T15:07:47Z</time>
      </trkpt>
      <trkpt lat="45.70411" lon="4.85567">
        <ele>174.6</ele>
        <time>2015-09-23T15:07:48Z</time>
      </trkpt>
      <trkpt lat="45.70417" lon="4.8557">
        <ele>174.7</ele>
        <time>2015-09-23T15:07:49Z</time>
      </trkpt>
      <trkpt lat="45.70437" lon="4.85571">
        <ele>173.9</ele>
        <time>2015-09-23T15:07:54Z</time>
      </trkpt>
      <trkpt lat="45.70446" lon="4.85569">
        <ele>173.3</ele>
        <time>2015-09-23T15:07:55Z</time>
      </trkpt>
      <trkpt lat="45.70453" lon="4.85568">
        <ele>172.7</ele>
        <time>2015-09-23T15:07:56Z</time>
      </trkpt>
      <trkpt lat="45.7046" lon="4.85566">
        <ele>172.3</ele>
        <time>2015-09-23T15:07:57Z</time>
      </trkpt>
      <trkpt lat="45.70466" lon="4.85564">
        <ele>171.9</ele>
        <time>2015-09-23T15:07:58Z</time>
      </trkpt>
      <trkpt lat="45.70472" lon="4.85562">
        <ele>171.6</ele>
        <time>2015-09-23T15:07:59Z</time>
      </trkpt>
      <trkpt lat="45.70478" lon="4.85561">
        <ele>171.3</ele>
        <time>2015-09-23T15:08:00Z</time>
      </trkpt>
      <trkpt lat="45.70485" lon="4.85559">
        <ele>171</ele>
        <time>2015-09-23T15:08:01Z</time>
      </trkpt>
      <trkpt lat="45.70492" lon="4.85557">
        <ele>170.6</ele>
        <time>2015-09-23T15:08:02Z</time>
      </trkpt>
      <trkpt lat="45.70499" lon="4.85555">
        <ele>170.2</ele>
        <time>2015-09-23T15:08:03Z</time>
      </trkpt>
      <trkpt lat="45.70505" lon="4.85554">
        <ele>169.9</ele>
        <time>2015-09-23T15:08:04Z</time>
      </trkpt>
      <trkpt lat="45.70513" lon="4.85552">
        <ele>169.6</ele>
        <time>2015-09-23T15:08:05Z</time>
      </trkpt>
      <trkpt lat="45.70519" lon="4.8555">
        <ele>169.2</ele>
        <time>2015-09-23T15:08:06Z</time>
      </trkpt>
      <trkpt lat="45.70526" lon="4.85548">
        <ele>168.9</ele>
        <time>2015-09-23T15:08:07Z</time>
      </trkpt>
      <trkpt lat="45.70532" lon="4.85547">
        <ele>168.7</ele>
        <time>2015-09-23T15:08:08Z</time>
      </trkpt>
      <trkpt lat="45.70538" lon="4.85545">
        <ele>168.4</ele>
        <time>2015-09-23T15:08:09Z</time>
      </trkpt>
      <trkpt lat="45.70544" lon="4.85543">
        <ele>168.3</ele>
        <time>2015-09-23T15:08:10Z</time>
      </trkpt>
      <trkpt lat="45.70555" lon="4.85541">
        <ele>168.8</ele>
        <time>2015-09-23T15:08:14Z</time>
      </trkpt>
      <trkpt lat="45.70577" lon="4.85537">
        <ele>170.1</ele>
        <time>2015-09-23T15:08:16Z</time>
      </trkpt>
      <trkpt lat="45.70581" lon="4.85537">
        <ele>170.4</ele>
        <time>2015-09-23T15:08:17Z</time>
      </trkpt>
      <trkpt lat="45.70585" lon="4.85536">
        <ele>170.6</ele>
        <time>2015-09-23T15:08:18Z</time>
      </trkpt>
      <trkpt lat="45.70588" lon="4.85536">
        <ele>170.8</ele>
        <time>2015-09-23T15:08:19Z</time>
      </trkpt>
      <trkpt lat="45.70591" lon="4.85535">
        <ele>170.9</ele>
        <time>2015-09-23T15:08:20Z</time>
      </trkpt>
      <trkpt lat="45.70594" lon="4.85535">
        <ele>171.1</ele>
        <time>2015-09-23T15:08:22Z</time>
      </trkpt>
      <trkpt lat="45.70597" lon="4.85535">
        <ele>171.3</ele>
        <time>2015-09-23T15:08:35Z</time>
      </trkpt>
      <trkpt lat="45.70601" lon="4.85535">
        <ele>171.5</ele>
        <time>2015-09-23T15:08:37Z</time>
      </trkpt>
      <trkpt lat="45.70605" lon="4.85535">
        <ele>171.7</ele>
        <time>2015-09-23T15:08:39Z</time>
      </trkpt>
      <trkpt lat="45.70621" lon="4.85546">
        <ele>172.9</ele>
        <time>2015-09-23T15:08:41Z</time>
      </trkpt>
      <trkpt lat="45.70633" lon="4.85538">
        <ele>173</ele>
        <time>2015-09-23T15:08:42Z</time>
      </trkpt>
      <trkpt lat="45.7063" lon="4.85541">
        <ele>173</ele>
        <time>2015-09-23T15:08:43Z</time>
      </trkpt>
      <trkpt lat="45.70636" lon="4.8554">
        <ele>173.1</ele>
        <time>2015-09-23T15:08:44Z</time>
      </trkpt>
      <trkpt lat="45.70639" lon="4.8554">
        <ele>173.1</ele>
        <time>2015-09-23T15:08:45Z</time>
      </trkpt>
      <trkpt lat="45.70647" lon="4.8554">
        <ele>173.2</ele>
        <time>2015-09-23T15:08:46Z</time>
      </trkpt>
      <trkpt lat="45.70654" lon="4.85541">
        <ele>173.3</ele>
        <time>2015-09-23T15:08:47Z</time>
      </trkpt>
      <trkpt lat="45.70661" lon="4.85542">
        <ele>173.4</ele>
        <time>2015-09-23T15:08:48Z</time>
      </trkpt>
      <trkpt lat="45.70668" lon="4.85542">
        <ele>173.5</ele>
        <time>2015-09-23T15:08:49Z</time>
      </trkpt>
      <trkpt lat="45.70674" lon="4.85542">
        <ele>173.6</ele>
        <time>2015-09-23T15:08:50Z</time>
      </trkpt>
      <trkpt lat="45.70696" lon="4.85539">
        <ele>173.8</ele>
        <time>2015-09-23T15:08:53Z</time>
      </trkpt>
      <trkpt lat="45.70703" lon="4.85538">
        <ele>173.8</ele>
        <time>2015-09-23T15:08:54Z</time>
      </trkpt>
      <trkpt lat="45.7071" lon="4.85538">
        <ele>173.9</ele>
        <time>2015-09-23T15:08:55Z</time>
      </trkpt>
      <trkpt lat="45.70716" lon="4.85537">
        <ele>173.8</ele>
        <time>2015-09-23T15:08:56Z</time>
      </trkpt>
      <trkpt lat="45.70738" lon="4.85534">
        <ele>173.8</ele>
        <time>2015-09-23T15:08:59Z</time>
      </trkpt>
      <trkpt lat="45.70745" lon="4.85534">
        <ele>173.8</ele>
        <time>2015-09-23T15:09:00Z</time>
      </trkpt>
      <trkpt lat="45.70761" lon="4.85533">
        <ele>173.8</ele>
        <time>2015-09-23T15:09:04Z</time>
      </trkpt>
      <trkpt lat="45.70778" lon="4.85532">
        <ele>173.8</ele>
        <time>2015-09-23T15:09:05Z</time>
      </trkpt>
      <trkpt lat="45.70785" lon="4.85533">
        <ele>173.8</ele>
        <time>2015-09-23T15:09:06Z</time>
      </trkpt>
      <trkpt lat="45.70791" lon="4.85533">
        <ele>173.8</ele>
        <time>2015-09-23T15:09:07Z</time>
      </trkpt>
      <trkpt lat="45.70797" lon="4.85533">
        <ele>173.8</ele>
        <time>2015-09-23T15:09:08Z</time>
      </trkpt>
      <trkpt lat="45.70802" lon="4.85534">
        <ele>173.7</ele>
        <time>2015-09-23T15:09:09Z</time>
      </trkpt>
      <trkpt lat="45.70808" lon="4.85532">
        <ele>173.7</ele>
        <time>2015-09-23T15:09:10Z</time>
      </trkpt>
      <trkpt lat="45.70814" lon="4.85531">
        <ele>173.6</ele>
        <time>2015-09-23T15:09:11Z</time>
      </trkpt>
      <trkpt lat="45.70819" lon="4.8553">
        <ele>173.6</ele>
        <time>2015-09-23T15:09:12Z</time>
      </trkpt>
      <trkpt lat="45.70824" lon="4.85529">
        <ele>173.5</ele>
        <time>2015-09-23T15:09:13Z</time>
      </trkpt>
      <trkpt lat="45.70827" lon="4.85529">
        <ele>173.5</ele>
        <time>2015-09-23T15:09:14Z</time>
      </trkpt>
      <trkpt lat="45.7083" lon="4.85529">
        <ele>173.5</ele>
        <time>2015-09-23T15:09:15Z</time>
      </trkpt>
      <trkpt lat="45.70834" lon="4.85527">
        <ele>173.5</ele>
        <time>2015-09-23T15:10:08Z</time>
      </trkpt>
      <trkpt lat="45.70837" lon="4.85527">
        <ele>173.5</ele>
        <time>2015-09-23T15:10:09Z</time>
      </trkpt>
      <trkpt lat="45.70839" lon="4.85527">
        <ele>173.5</ele>
        <time>2015-09-23T15:10:10Z</time>
      </trkpt>
      <trkpt lat="45.70843" lon="4.85527">
        <ele>173.5</ele>
        <time>2015-09-23T15:10:11Z</time>
      </trkpt>
      <trkpt lat="45.70847" lon="4.85527">
        <ele>173.5</ele>
        <time>2015-09-23T15:10:12Z</time>
      </trkpt>
      <trkpt lat="45.70866" lon="4.85526">
        <ele>173.4</ele>
        <time>2015-09-23T15:10:15Z</time>
      </trkpt>
      <trkpt lat="45.70873" lon="4.85526">
        <ele>173.4</ele>
        <time>2015-09-23T15:10:16Z</time>
      </trkpt>
      <trkpt lat="45.70879" lon="4.85525">
        <ele>173.4</ele>
        <time>2015-09-23T15:10:17Z</time>
      </trkpt>
      <trkpt lat="45.70886" lon="4.85526">
        <ele>173.5</ele>
        <time>2015-09-23T15:10:18Z</time>
      </trkpt>
      <trkpt lat="45.70892" lon="4.85525">
        <ele>173.6</ele>
        <time>2015-09-23T15:10:19Z</time>
      </trkpt>
      <trkpt lat="45.70898" lon="4.85525">
        <ele>173.6</ele>
        <time>2015-09-23T15:10:20Z</time>
      </trkpt>
      <trkpt lat="45.70905" lon="4.85525">
        <ele>173.7</ele>
        <time>2015-09-23T15:10:21Z</time>
      </trkpt>
      <trkpt lat="45.70912" lon="4.85526">
        <ele>173.7</ele>
        <time>2015-09-23T15:10:22Z</time>
      </trkpt>
      <trkpt lat="45.70919" lon="4.85525">
        <ele>173.8</ele>
        <time>2015-09-23T15:10:23Z</time>
      </trkpt>
      <trkpt lat="45.70925" lon="4.85525">
        <ele>173.9</ele>
        <time>2015-09-23T15:10:24Z</time>
      </trkpt>
      <trkpt lat="45.70932" lon="4.85525">
        <ele>173.9</ele>
        <time>2015-09-23T15:10:25Z</time>
      </trkpt>
      <trkpt lat="45.70939" lon="4.85524">
        <ele>174</ele>
        <time>2015-09-23T15:10:26Z</time>
      </trkpt>
      <trkpt lat="45.70946" lon="4.85523">
        <ele>174.1</ele>
        <time>2015-09-23T15:10:27Z</time>
      </trkpt>
      <trkpt lat="45.70954" lon="4.85523">
        <ele>174.2</ele>
        <time>2015-09-23T15:10:28Z</time>
      </trkpt>
      <trkpt lat="45.7096" lon="4.85524">
        <ele>174.2</ele>
        <time>2015-09-23T15:10:29Z</time>
      </trkpt>
      <trkpt lat="45.70968" lon="4.85523">
        <ele>174</ele>
        <time>2015-09-23T15:10:30Z</time>
      </trkpt>
      <trkpt lat="45.70975" lon="4.85523">
        <ele>173.8</ele>
        <time>2015-09-23T15:10:31Z</time>
      </trkpt>
      <trkpt lat="45.70982" lon="4.85523">
        <ele>173.6</ele>
        <time>2015-09-23T15:10:32Z</time>
      </trkpt>
      <trkpt lat="45.70989" lon="4.85523">
        <ele>173.4</ele>
        <time>2015-09-23T15:10:33Z</time>
      </trkpt>
      <trkpt lat="45.70994" lon="4.85522">
        <ele>173.3</ele>
        <time>2015-09-23T15:10:34Z</time>
      </trkpt>
      <trkpt lat="45.71" lon="4.85523">
        <ele>173.1</ele>
        <time>2015-09-23T15:10:35Z</time>
      </trkpt>
      <trkpt lat="45.71006" lon="4.85522">
        <ele>173</ele>
        <time>2015-09-23T15:10:36Z</time>
      </trkpt>
      <trkpt lat="45.7101" lon="4.85524">
        <ele>172.8</ele>
        <time>2015-09-23T15:10:37Z</time>
      </trkpt>
      <trkpt lat="45.71013" lon="4.85522">
        <ele>172.8</ele>
        <time>2015-09-23T15:10:38Z</time>
      </trkpt>
      <trkpt lat="45.71018" lon="4.85521">
        <ele>172.6</ele>
        <time>2015-09-23T15:10:39Z</time>
      </trkpt>
      <trkpt lat="45.71022" lon="4.8552">
        <ele>172.5</ele>
        <time>2015-09-23T15:10:40Z</time>
      </trkpt>
      <trkpt lat="45.71026" lon="4.85519">
        <ele>172.4</ele>
        <time>2015-09-23T15:10:41Z</time>
      </trkpt>
      <trkpt lat="45.71031" lon="4.85522">
        <ele>172.3</ele>
        <time>2015-09-23T15:10:42Z</time>
      </trkpt>
      <trkpt lat="45.71034" lon="4.85521">
        <ele>172.2</ele>
        <time>2015-09-23T15:10:43Z</time>
      </trkpt>
      <trkpt lat="45.71037" lon="4.85521">
        <ele>172.1</ele>
        <time>2015-09-23T15:10:44Z</time>
      </trkpt>
      <trkpt lat="45.71041" lon="4.85521">
        <ele>172</ele>
        <time>2015-09-23T15:10:45Z</time>
      </trkpt>
      <trkpt lat="45.71045" lon="4.8552">
        <ele>172</ele>
        <time>2015-09-23T15:10:46Z</time>
      </trkpt>
      <trkpt lat="45.7105" lon="4.85521">
        <ele>172.1</ele>
        <time>2015-09-23T15:10:47Z</time>
      </trkpt>
      <trkpt lat="45.71055" lon="4.85521">
        <ele>172.1</ele>
        <time>2015-09-23T15:10:48Z</time>
      </trkpt>
      <trkpt lat="45.71059" lon="4.8552">
        <ele>172.2</ele>
        <time>2015-09-23T15:10:49Z</time>
      </trkpt>
      <trkpt lat="45.71065" lon="4.8552">
        <ele>172.2</ele>
        <time>2015-09-23T15:10:50Z</time>
      </trkpt>
      <trkpt lat="45.71071" lon="4.8552">
        <ele>172.3</ele>
        <time>2015-09-23T15:10:51Z</time>
      </trkpt>
      <trkpt lat="45.71077" lon="4.85522">
        <ele>172.3</ele>
        <time>2015-09-23T15:10:52Z</time>
      </trkpt>
      <trkpt lat="45.71083" lon="4.85522">
        <ele>172.4</ele>
        <time>2015-09-23T15:10:53Z</time>
      </trkpt>
      <trkpt lat="45.71088" lon="4.85524">
        <ele>172.4</ele>
        <time>2015-09-23T15:10:54Z</time>
      </trkpt>
      <trkpt lat="45.71094" lon="4.85523">
        <ele>172.5</ele>
        <time>2015-09-23T15:10:55Z</time>
      </trkpt>
      <trkpt lat="45.71097" lon="4.85523">
        <ele>172.5</ele>
        <time>2015-09-23T15:10:56Z</time>
      </trkpt>
      <trkpt lat="45.7111" lon="4.85525">
        <ele>172.6</ele>
        <time>2015-09-23T15:11:02Z</time>
      </trkpt>
      <trkpt lat="45.7112" lon="4.85525">
        <ele>172.7</ele>
        <time>2015-09-23T15:11:04Z</time>
      </trkpt>
      <trkpt lat="45.71126" lon="4.85525">
        <ele>172.8</ele>
        <time>2015-09-23T15:11:05Z</time>
      </trkpt>
      <trkpt lat="45.71132" lon="4.85523">
        <ele>172.8</ele>
        <time>2015-09-23T15:11:06Z</time>
      </trkpt>
      <trkpt lat="45.71149" lon="4.8552">
        <ele>172.8</ele>
        <time>2015-09-23T15:11:12Z</time>
      </trkpt>
      <trkpt lat="45.71152" lon="4.85518">
        <ele>172.8</ele>
        <time>2015-09-23T15:11:14Z</time>
      </trkpt>
      <trkpt lat="45.71156" lon="4.85518">
        <ele>172.8</ele>
        <time>2015-09-23T15:11:16Z</time>
      </trkpt>
      <trkpt lat="45.7116" lon="4.85517">
        <ele>172.8</ele>
        <time>2015-09-23T15:11:17Z</time>
      </trkpt>
      <trkpt lat="45.71164" lon="4.85516">
        <ele>172.8</ele>
        <time>2015-09-23T15:11:18Z</time>
      </trkpt>
      <trkpt lat="45.71169" lon="4.85516">
        <ele>172.9</ele>
        <time>2015-09-23T15:11:19Z</time>
      </trkpt>
      <trkpt lat="45.71173" lon="4.85516">
        <ele>172.9</ele>
        <time>2015-09-23T15:11:20Z</time>
      </trkpt>
      <trkpt lat="45.71176" lon="4.85515">
        <ele>172.9</ele>
        <time>2015-09-23T15:11:21Z</time>
      </trkpt>
      <trkpt lat="45.7118" lon="4.85515">
        <ele>172.9</ele>
        <time>2015-09-23T15:11:22Z</time>
      </trkpt>
      <trkpt lat="45.71175" lon="4.85514">
        <ele>172.9</ele>
        <time>2015-09-23T15:11:23Z</time>
      </trkpt>
      <trkpt lat="45.7118" lon="4.85516">
        <ele>172.9</ele>
        <time>2015-09-23T15:11:24Z</time>
      </trkpt>
      <trkpt lat="45.71186" lon="4.8552">
        <ele>172.9</ele>
        <time>2015-09-23T15:11:25Z</time>
      </trkpt>
      <trkpt lat="45.71189" lon="4.85522">
        <ele>172.9</ele>
        <time>2015-09-23T15:11:27Z</time>
      </trkpt>
      <trkpt lat="45.71192" lon="4.8552">
        <ele>172.9</ele>
        <time>2015-09-23T15:11:33Z</time>
      </trkpt>
      <trkpt lat="45.71194" lon="4.85522">
        <ele>173</ele>
        <time>2015-09-23T15:11:35Z</time>
      </trkpt>
      <trkpt lat="45.71199" lon="4.85522">
        <ele>173</ele>
        <time>2015-09-23T15:11:37Z</time>
      </trkpt>
      <trkpt lat="45.71202" lon="4.85524">
        <ele>173</ele>
        <time>2015-09-23T15:11:38Z</time>
      </trkpt>
      <trkpt lat="45.71205" lon="4.85521">
        <ele>173</ele>
        <time>2015-09-23T15:11:39Z</time>
      </trkpt>
      <trkpt lat="45.71231" lon="4.85517">
        <ele>173.7</ele>
        <time>2015-09-23T15:11:44Z</time>
      </trkpt>
      <trkpt lat="45.71238" lon="4.85517">
        <ele>173.9</ele>
        <time>2015-09-23T15:11:45Z</time>
      </trkpt>
      <trkpt lat="45.71245" lon="4.85515">
        <ele>174</ele>
        <time>2015-09-23T15:11:46Z</time>
      </trkpt>
      <trkpt lat="45.7125" lon="4.85515">
        <ele>174.2</ele>
        <time>2015-09-23T15:11:47Z</time>
      </trkpt>
      <trkpt lat="45.71258" lon="4.85516">
        <ele>174.4</ele>
        <time>2015-09-23T15:11:48Z</time>
      </trkpt>
      <trkpt lat="45.71264" lon="4.85515">
        <ele>174.6</ele>
        <time>2015-09-23T15:11:49Z</time>
      </trkpt>
      <trkpt lat="45.71271" lon="4.85514">
        <ele>174.7</ele>
        <time>2015-09-23T15:11:50Z</time>
      </trkpt>
      <trkpt lat="45.71277" lon="4.85514">
        <ele>174.9</ele>
        <time>2015-09-23T15:11:51Z</time>
      </trkpt>
      <trkpt lat="45.71284" lon="4.85514">
        <ele>175.1</ele>
        <time>2015-09-23T15:11:52Z</time>
      </trkpt>
      <trkpt lat="45.71292" lon="4.85513">
        <ele>175.3</ele>
        <time>2015-09-23T15:11:53Z</time>
      </trkpt>
      <trkpt lat="45.71298" lon="4.85512">
        <ele>175.3</ele>
        <time>2015-09-23T15:11:54Z</time>
      </trkpt>
      <trkpt lat="45.71306" lon="4.85512">
        <ele>175.3</ele>
        <time>2015-09-23T15:11:55Z</time>
      </trkpt>
      <trkpt lat="45.71309" lon="4.85512">
        <ele>175.3</ele>
        <time>2015-09-23T15:11:56Z</time>
      </trkpt>
      <trkpt lat="45.71334" lon="4.85512">
        <ele>175.3</ele>
        <time>2015-09-23T15:11:59Z</time>
      </trkpt>
      <trkpt lat="45.7134" lon="4.85511">
        <ele>175.3</ele>
        <time>2015-09-23T15:12:00Z</time>
      </trkpt>
      <trkpt lat="45.71348" lon="4.85512">
        <ele>175.3</ele>
        <time>2015-09-23T15:12:01Z</time>
      </trkpt>
      <trkpt lat="45.71355" lon="4.85511">
        <ele>175.3</ele>
        <time>2015-09-23T15:12:02Z</time>
      </trkpt>
      <trkpt lat="45.71362" lon="4.85509">
        <ele>175.2</ele>
        <time>2015-09-23T15:12:03Z</time>
      </trkpt>
      <trkpt lat="45.7137" lon="4.85508">
        <ele>175.2</ele>
        <time>2015-09-23T15:12:04Z</time>
      </trkpt>
      <trkpt lat="45.71376" lon="4.85507">
        <ele>175.1</ele>
        <time>2015-09-23T15:12:05Z</time>
      </trkpt>
      <trkpt lat="45.71384" lon="4.85506">
        <ele>174.8</ele>
        <time>2015-09-23T15:12:06Z</time>
      </trkpt>
      <trkpt lat="45.71391" lon="4.85505">
        <ele>174.5</ele>
        <time>2015-09-23T15:12:07Z</time>
      </trkpt>
      <trkpt lat="45.714" lon="4.85502">
        <ele>174.1</ele>
        <time>2015-09-23T15:12:08Z</time>
      </trkpt>
      <trkpt lat="45.71408" lon="4.85499">
        <ele>173.8</ele>
        <time>2015-09-23T15:12:09Z</time>
      </trkpt>
      <trkpt lat="45.71414" lon="4.85501">
        <ele>173.6</ele>
        <time>2015-09-23T15:12:10Z</time>
      </trkpt>
      <trkpt lat="45.71421" lon="4.85502">
        <ele>173.4</ele>
        <time>2015-09-23T15:12:11Z</time>
      </trkpt>
      <trkpt lat="45.71428" lon="4.85499">
        <ele>173.1</ele>
        <time>2015-09-23T15:12:12Z</time>
      </trkpt>
      <trkpt lat="45.71435" lon="4.85496">
        <ele>172.8</ele>
        <time>2015-09-23T15:12:13Z</time>
      </trkpt>
      <trkpt lat="45.71443" lon="4.85493">
        <ele>172.4</ele>
        <time>2015-09-23T15:12:14Z</time>
      </trkpt>
      <trkpt lat="45.71447" lon="4.85492">
        <ele>172.2</ele>
        <time>2015-09-23T15:12:16Z</time>
      </trkpt>
      <trkpt lat="45.71469" lon="4.8549">
        <ele>171.9</ele>
        <time>2015-09-23T15:12:18Z</time>
      </trkpt>
      <trkpt lat="45.71474" lon="4.85492">
        <ele>172</ele>
        <time>2015-09-23T15:12:19Z</time>
      </trkpt>
      <trkpt lat="45.71497" lon="4.8549">
        <ele>172.3</ele>
        <time>2015-09-23T15:12:22Z</time>
      </trkpt>
      <trkpt lat="45.71504" lon="4.85489">
        <ele>172.4</ele>
        <time>2015-09-23T15:12:23Z</time>
      </trkpt>
      <trkpt lat="45.7151" lon="4.85488">
        <ele>172.5</ele>
        <time>2015-09-23T15:12:24Z</time>
      </trkpt>
      <trkpt lat="45.71517" lon="4.85486">
        <ele>172.6</ele>
        <time>2015-09-23T15:12:25Z</time>
      </trkpt>
      <trkpt lat="45.71524" lon="4.85486">
        <ele>172.7</ele>
        <time>2015-09-23T15:12:26Z</time>
      </trkpt>
      <trkpt lat="45.71529" lon="4.85487">
        <ele>172.8</ele>
        <time>2015-09-23T15:12:27Z</time>
      </trkpt>
      <trkpt lat="45.71535" lon="4.85487">
        <ele>172.9</ele>
        <time>2015-09-23T15:12:28Z</time>
      </trkpt>
      <trkpt lat="45.71539" lon="4.85487">
        <ele>173</ele>
        <time>2015-09-23T15:12:29Z</time>
      </trkpt>
      <trkpt lat="45.71545" lon="4.85486">
        <ele>173</ele>
        <time>2015-09-23T15:12:30Z</time>
      </trkpt>
      <trkpt lat="45.71551" lon="4.85488">
        <ele>173</ele>
        <time>2015-09-23T15:12:31Z</time>
      </trkpt>
      <trkpt lat="45.71556" lon="4.85486">
        <ele>173</ele>
        <time>2015-09-23T15:12:32Z</time>
      </trkpt>
      <trkpt lat="45.71561" lon="4.85485">
        <ele>173</ele>
        <time>2015-09-23T15:12:33Z</time>
      </trkpt>
      <trkpt lat="45.71567" lon="4.85484">
        <ele>173</ele>
        <time>2015-09-23T15:12:35Z</time>
      </trkpt>
      <trkpt lat="45.71572" lon="4.85483">
        <ele>173</ele>
        <time>2015-09-23T15:12:37Z</time>
      </trkpt>
      <trkpt lat="45.71578" lon="4.85483">
        <ele>173</ele>
        <time>2015-09-23T15:12:39Z</time>
      </trkpt>
      <trkpt lat="45.71588" lon="4.85483">
        <ele>173</ele>
        <time>2015-09-23T15:12:41Z</time>
      </trkpt>
      <trkpt lat="45.71592" lon="4.85483">
        <ele>173</ele>
        <time>2015-09-23T15:12:42Z</time>
      </trkpt>
      <trkpt lat="45.71599" lon="4.85483">
        <ele>173</ele>
        <time>2015-09-23T15:12:43Z</time>
      </trkpt>
      <trkpt lat="45.71605" lon="4.85484">
        <ele>173</ele>
        <time>2015-09-23T15:12:44Z</time>
      </trkpt>
      <trkpt lat="45.71611" lon="4.85484">
        <ele>173</ele>
        <time>2015-09-23T15:12:45Z</time>
      </trkpt>
      <trkpt lat="45.71617" lon="4.85484">
        <ele>173</ele>
        <time>2015-09-23T15:12:46Z</time>
      </trkpt>
      <trkpt lat="45.71622" lon="4.85485">
        <ele>173</ele>
        <time>2015-09-23T15:12:47Z</time>
      </trkpt>
      <trkpt lat="45.71634" lon="4.85491">
        <ele>173.2</ele>
        <time>2015-09-23T15:12:49Z</time>
      </trkpt>
      <trkpt lat="45.71645" lon="4.85494">
        <ele>173.3</ele>
        <time>2015-09-23T15:12:51Z</time>
      </trkpt>
      <trkpt lat="45.71648" lon="4.85497">
        <ele>173.4</ele>
        <time>2015-09-23T15:12:52Z</time>
      </trkpt>
      <trkpt lat="45.7165" lon="4.85499">
        <ele>173.4</ele>
        <time>2015-09-23T15:12:53Z</time>
      </trkpt>
      <trkpt lat="45.71652" lon="4.85502">
        <ele>173.5</ele>
        <time>2015-09-23T15:12:54Z</time>
      </trkpt>
      <trkpt lat="45.71659" lon="4.8549">
        <ele>173.6</ele>
        <time>2015-09-23T15:12:55Z</time>
      </trkpt>
      <trkpt lat="45.71681" lon="4.85492">
        <ele>173.9</ele>
        <time>2015-09-23T15:12:58Z</time>
      </trkpt>
      <trkpt lat="45.71687" lon="4.85491">
        <ele>174</ele>
        <time>2015-09-23T15:12:59Z</time>
      </trkpt>
      <trkpt lat="45.71691" lon="4.85491">
        <ele>174.1</ele>
        <time>2015-09-23T15:13:00Z</time>
      </trkpt>
      <trkpt lat="45.71694" lon="4.85494">
        <ele>174.2</ele>
        <time>2015-09-23T15:13:01Z</time>
      </trkpt>
      <trkpt lat="45.7172" lon="4.8549">
        <ele>174.7</ele>
        <time>2015-09-23T15:13:04Z</time>
      </trkpt>
      <trkpt lat="45.71726" lon="4.85488">
        <ele>174.9</ele>
        <time>2015-09-23T15:13:05Z</time>
      </trkpt>
      <trkpt lat="45.71733" lon="4.85487">
        <ele>175.1</ele>
        <time>2015-09-23T15:13:06Z</time>
      </trkpt>
      <trkpt lat="45.7174" lon="4.85484">
        <ele>175.3</ele>
        <time>2015-09-23T15:13:07Z</time>
      </trkpt>
      <trkpt lat="45.71747" lon="4.85482">
        <ele>175.6</ele>
        <time>2015-09-23T15:13:08Z</time>
      </trkpt>
      <trkpt lat="45.71756" lon="4.8548">
        <ele>175.8</ele>
        <time>2015-09-23T15:13:09Z</time>
      </trkpt>
      <trkpt lat="45.71765" lon="4.85477">
        <ele>176.1</ele>
        <time>2015-09-23T15:13:10Z</time>
      </trkpt>
      <trkpt lat="45.7177" lon="4.85478">
        <ele>176.3</ele>
        <time>2015-09-23T15:13:11Z</time>
      </trkpt>
      <trkpt lat="45.71795" lon="4.8547">
        <ele>176.9</ele>
        <time>2015-09-23T15:13:15Z</time>
      </trkpt>
      <trkpt lat="45.71801" lon="4.85468">
        <ele>176.8</ele>
        <time>2015-09-23T15:13:16Z</time>
      </trkpt>
      <trkpt lat="45.71807" lon="4.85468">
        <ele>176.7</ele>
        <time>2015-09-23T15:13:17Z</time>
      </trkpt>
      <trkpt lat="45.71813" lon="4.85467">
        <ele>176.5</ele>
        <time>2015-09-23T15:13:18Z</time>
      </trkpt>
      <trkpt lat="45.7182" lon="4.85465">
        <ele>176.4</ele>
        <time>2015-09-23T15:13:19Z</time>
      </trkpt>
      <trkpt lat="45.71828" lon="4.85463">
        <ele>176.2</ele>
        <time>2015-09-23T15:13:20Z</time>
      </trkpt>
      <trkpt lat="45.71848" lon="4.85459">
        <ele>175.7</ele>
        <time>2015-09-23T15:13:23Z</time>
      </trkpt>
      <trkpt lat="45.71855" lon="4.85458">
        <ele>175.5</ele>
        <time>2015-09-23T15:13:24Z</time>
      </trkpt>
      <trkpt lat="45.71861" lon="4.85459">
        <ele>175.3</ele>
        <time>2015-09-23T15:13:25Z</time>
      </trkpt>
      <trkpt lat="45.71869" lon="4.85458">
        <ele>175.2</ele>
        <time>2015-09-23T15:13:26Z</time>
      </trkpt>
      <trkpt lat="45.71876" lon="4.85457">
        <ele>175</ele>
        <time>2015-09-23T15:13:27Z</time>
      </trkpt>
      <trkpt lat="45.71883" lon="4.85457">
        <ele>174.7</ele>
        <time>2015-09-23T15:13:28Z</time>
      </trkpt>
      <trkpt lat="45.71889" lon="4.85456">
        <ele>174.5</ele>
        <time>2015-09-23T15:13:29Z</time>
      </trkpt>
      <trkpt lat="45.71895" lon="4.85456">
        <ele>174.3</ele>
        <time>2015-09-23T15:13:30Z</time>
      </trkpt>
      <trkpt lat="45.71902" lon="4.85455">
        <ele>174.1</ele>
        <time>2015-09-23T15:13:31Z</time>
      </trkpt>
      <trkpt lat="45.71909" lon="4.85454">
        <ele>173.8</ele>
        <time>2015-09-23T15:13:32Z</time>
      </trkpt>
      <trkpt lat="45.71917" lon="4.85453">
        <ele>173.5</ele>
        <time>2015-09-23T15:13:33Z</time>
      </trkpt>
      <trkpt lat="45.71924" lon="4.85453">
        <ele>173.3</ele>
        <time>2015-09-23T15:13:34Z</time>
      </trkpt>
      <trkpt lat="45.71931" lon="4.85451">
        <ele>173</ele>
        <time>2015-09-23T15:13:35Z</time>
      </trkpt>
      <trkpt lat="45.71935" lon="4.85452">
        <ele>172.9</ele>
        <time>2015-09-23T15:13:36Z</time>
      </trkpt>
      <trkpt lat="45.7196" lon="4.85449">
        <ele>172</ele>
        <time>2015-09-23T15:13:39Z</time>
      </trkpt>
      <trkpt lat="45.71968" lon="4.85447">
        <ele>172.1</ele>
        <time>2015-09-23T15:13:40Z</time>
      </trkpt>
      <trkpt lat="45.71975" lon="4.85446">
        <ele>172.1</ele>
        <time>2015-09-23T15:13:41Z</time>
      </trkpt>
      <trkpt lat="45.71983" lon="4.85446">
        <ele>172.2</ele>
        <time>2015-09-23T15:13:42Z</time>
      </trkpt>
      <trkpt lat="45.7199" lon="4.85445">
        <ele>172.3</ele>
        <time>2015-09-23T15:13:43Z</time>
      </trkpt>
      <trkpt lat="45.72" lon="4.85444">
        <ele>172.4</ele>
        <time>2015-09-23T15:13:44Z</time>
      </trkpt>
      <trkpt lat="45.72008" lon="4.85443">
        <ele>172.6</ele>
        <time>2015-09-23T15:13:45Z</time>
      </trkpt>
      <trkpt lat="45.72015" lon="4.85442">
        <ele>172.7</ele>
        <time>2015-09-23T15:13:46Z</time>
      </trkpt>
      <trkpt lat="45.72021" lon="4.8544">
        <ele>172.8</ele>
        <time>2015-09-23T15:13:47Z</time>
      </trkpt>
      <trkpt lat="45.72031" lon="4.8544">
        <ele>173</ele>
        <time>2015-09-23T15:13:48Z</time>
      </trkpt>
      <trkpt lat="45.72039" lon="4.85438">
        <ele>173.2</ele>
        <time>2015-09-23T15:13:49Z</time>
      </trkpt>
      <trkpt lat="45.72047" lon="4.85437">
        <ele>173.2</ele>
        <time>2015-09-23T15:13:50Z</time>
      </trkpt>
      <trkpt lat="45.72054" lon="4.85436">
        <ele>173.2</ele>
        <time>2015-09-23T15:13:51Z</time>
      </trkpt>
      <trkpt lat="45.72062" lon="4.85435">
        <ele>173.1</ele>
        <time>2015-09-23T15:13:52Z</time>
      </trkpt>
      <trkpt lat="45.72071" lon="4.85435">
        <ele>173</ele>
        <time>2015-09-23T15:13:53Z</time>
      </trkpt>
      <trkpt lat="45.72079" lon="4.85434">
        <ele>172.9</ele>
        <time>2015-09-23T15:13:54Z</time>
      </trkpt>
      <trkpt lat="45.72087" lon="4.85434">
        <ele>172.8</ele>
        <time>2015-09-23T15:13:55Z</time>
      </trkpt>
      <trkpt lat="45.72094" lon="4.85433">
        <ele>172.8</ele>
        <time>2015-09-23T15:13:56Z</time>
      </trkpt>
      <trkpt lat="45.72102" lon="4.85431">
        <ele>172.7</ele>
        <time>2015-09-23T15:13:57Z</time>
      </trkpt>
      <trkpt lat="45.72111" lon="4.8543">
        <ele>172.6</ele>
        <time>2015-09-23T15:13:58Z</time>
      </trkpt>
      <trkpt lat="45.72118" lon="4.8543">
        <ele>172.5</ele>
        <time>2015-09-23T15:13:59Z</time>
      </trkpt>
      <trkpt lat="45.72127" lon="4.85429">
        <ele>172.4</ele>
        <time>2015-09-23T15:14:00Z</time>
      </trkpt>
      <trkpt lat="45.72135" lon="4.85429">
        <ele>172.4</ele>
        <time>2015-09-23T15:14:01Z</time>
      </trkpt>
      <trkpt lat="45.72143" lon="4.85429">
        <ele>172.5</ele>
        <time>2015-09-23T15:14:02Z</time>
      </trkpt>
      <trkpt lat="45.72152" lon="4.85429">
        <ele>172.5</ele>
        <time>2015-09-23T15:14:03Z</time>
      </trkpt>
      <trkpt lat="45.72157" lon="4.85432">
        <ele>172.6</ele>
        <time>2015-09-23T15:14:05Z</time>
      </trkpt>
      <trkpt lat="45.72159" lon="4.85435">
        <ele>172.6</ele>
        <time>2015-09-23T15:14:06Z</time>
      </trkpt>
      <trkpt lat="45.72188" lon="4.85423">
        <ele>172.7</ele>
        <time>2015-09-23T15:14:08Z</time>
      </trkpt>
      <trkpt lat="45.72196" lon="4.85423">
        <ele>172.7</ele>
        <time>2015-09-23T15:14:09Z</time>
      </trkpt>
      <trkpt lat="45.72204" lon="4.85424">
        <ele>172.7</ele>
        <time>2015-09-23T15:14:10Z</time>
      </trkpt>
      <trkpt lat="45.72212" lon="4.85423">
        <ele>172.7</ele>
        <time>2015-09-23T15:14:11Z</time>
      </trkpt>
      <trkpt lat="45.72219" lon="4.85422">
        <ele>172.7</ele>
        <time>2015-09-23T15:14:12Z</time>
      </trkpt>
      <trkpt lat="45.72227" lon="4.85421">
        <ele>172.7</ele>
        <time>2015-09-23T15:14:13Z</time>
      </trkpt>
      <trkpt lat="45.72234" lon="4.85421">
        <ele>172.7</ele>
        <time>2015-09-23T15:14:14Z</time>
      </trkpt>
      <trkpt lat="45.72242" lon="4.8542">
        <ele>172.6</ele>
        <time>2015-09-23T15:14:15Z</time>
      </trkpt>
      <trkpt lat="45.7225" lon="4.85421">
        <ele>172.7</ele>
        <time>2015-09-23T15:14:16Z</time>
      </trkpt>
      <trkpt lat="45.72259" lon="4.85422">
        <ele>172.7</ele>
        <time>2015-09-23T15:14:17Z</time>
      </trkpt>
      <trkpt lat="45.72266" lon="4.85422">
        <ele>172.7</ele>
        <time>2015-09-23T15:14:18Z</time>
      </trkpt>
      <trkpt lat="45.72276" lon="4.8542">
        <ele>172.6</ele>
        <time>2015-09-23T15:14:19Z</time>
      </trkpt>
      <trkpt lat="45.72283" lon="4.85419">
        <ele>172.6</ele>
        <time>2015-09-23T15:14:20Z</time>
      </trkpt>
      <trkpt lat="45.72289" lon="4.85421">
        <ele>172.6</ele>
        <time>2015-09-23T15:14:21Z</time>
      </trkpt>
      <trkpt lat="45.72298" lon="4.85421">
        <ele>172.7</ele>
        <time>2015-09-23T15:14:22Z</time>
      </trkpt>
      <trkpt lat="45.72307" lon="4.8542">
        <ele>172.7</ele>
        <time>2015-09-23T15:14:23Z</time>
      </trkpt>
      <trkpt lat="45.72312" lon="4.85422">
        <ele>172.8</ele>
        <time>2015-09-23T15:14:24Z</time>
      </trkpt>
      <trkpt lat="45.72321" lon="4.85421">
        <ele>172.8</ele>
        <time>2015-09-23T15:14:25Z</time>
      </trkpt>
      <trkpt lat="45.72327" lon="4.85422">
        <ele>172.8</ele>
        <time>2015-09-23T15:14:26Z</time>
      </trkpt>
      <trkpt lat="45.72334" lon="4.85421">
        <ele>172.8</ele>
        <time>2015-09-23T15:14:27Z</time>
      </trkpt>
      <trkpt lat="45.72342" lon="4.8542">
        <ele>172.8</ele>
        <time>2015-09-23T15:14:28Z</time>
      </trkpt>
      <trkpt lat="45.72349" lon="4.85421">
        <ele>172.9</ele>
        <time>2015-09-23T15:14:29Z</time>
      </trkpt>
      <trkpt lat="45.72355" lon="4.85418">
        <ele>172.9</ele>
        <time>2015-09-23T15:14:30Z</time>
      </trkpt>
      <trkpt lat="45.72359" lon="4.85419">
        <ele>172.9</ele>
        <time>2015-09-23T15:14:31Z</time>
      </trkpt>
      <trkpt lat="45.72365" lon="4.85419">
        <ele>172.9</ele>
        <time>2015-09-23T15:14:32Z</time>
      </trkpt>
      <trkpt lat="45.72369" lon="4.85419">
        <ele>173</ele>
        <time>2015-09-23T15:14:33Z</time>
      </trkpt>
      <trkpt lat="45.72396" lon="4.85414">
        <ele>172.9</ele>
        <time>2015-09-23T15:14:37Z</time>
      </trkpt>
      <trkpt lat="45.72403" lon="4.85414">
        <ele>172.8</ele>
        <time>2015-09-23T15:14:38Z</time>
      </trkpt>
      <trkpt lat="45.72409" lon="4.85413">
        <ele>172.8</ele>
        <time>2015-09-23T15:14:39Z</time>
      </trkpt>
      <trkpt lat="45.72416" lon="4.85413">
        <ele>172.8</ele>
        <time>2015-09-23T15:14:40Z</time>
      </trkpt>
      <trkpt lat="45.7242" lon="4.85414">
        <ele>172.7</ele>
        <time>2015-09-23T15:14:41Z</time>
      </trkpt>
      <trkpt lat="45.72425" lon="4.85413">
        <ele>172.7</ele>
        <time>2015-09-23T15:14:42Z</time>
      </trkpt>
      <trkpt lat="45.7243" lon="4.85414">
        <ele>172.7</ele>
        <time>2015-09-23T15:14:43Z</time>
      </trkpt>
      <trkpt lat="45.72436" lon="4.85413">
        <ele>172.7</ele>
        <time>2015-09-23T15:14:44Z</time>
      </trkpt>
      <trkpt lat="45.72441" lon="4.85412">
        <ele>172.6</ele>
        <time>2015-09-23T15:14:45Z</time>
      </trkpt>
      <trkpt lat="45.72446" lon="4.85412">
        <ele>172.6</ele>
        <time>2015-09-23T15:14:46Z</time>
      </trkpt>
      <trkpt lat="45.72453" lon="4.85411">
        <ele>172.6</ele>
        <time>2015-09-23T15:14:47Z</time>
      </trkpt>
      <trkpt lat="45.72459" lon="4.85409">
        <ele>172.6</ele>
        <time>2015-09-23T15:14:48Z</time>
      </trkpt>
      <trkpt lat="45.72463" lon="4.85411">
        <ele>172.6</ele>
        <time>2015-09-23T15:14:49Z</time>
      </trkpt>
      <trkpt lat="45.72469" lon="4.8541">
        <ele>172.7</ele>
        <time>2015-09-23T15:14:50Z</time>
      </trkpt>
      <trkpt lat="45.72498" lon="4.8541">
        <ele>173.1</ele>
        <time>2015-09-23T15:14:54Z</time>
      </trkpt>
      <trkpt lat="45.72503" lon="4.85409">
        <ele>173.1</ele>
        <time>2015-09-23T15:14:55Z</time>
      </trkpt>
      <trkpt lat="45.72511" lon="4.85409">
        <ele>173.2</ele>
        <time>2015-09-23T15:14:56Z</time>
      </trkpt>
      <trkpt lat="45.72519" lon="4.85407">
        <ele>173.3</ele>
        <time>2015-09-23T15:14:57Z</time>
      </trkpt>
      <trkpt lat="45.72525" lon="4.85407">
        <ele>173.4</ele>
        <time>2015-09-23T15:14:58Z</time>
      </trkpt>
      <trkpt lat="45.72532" lon="4.85406">
        <ele>173.5</ele>
        <time>2015-09-23T15:14:59Z</time>
      </trkpt>
      <trkpt lat="45.72538" lon="4.85405">
        <ele>173.6</ele>
        <time>2015-09-23T15:15:00Z</time>
      </trkpt>
      <trkpt lat="45.72543" lon="4.85404">
        <ele>173.6</ele>
        <time>2015-09-23T15:15:01Z</time>
      </trkpt>
      <trkpt lat="45.72565" lon="4.85401">
        <ele>172.8</ele>
        <time>2015-09-23T15:15:04Z</time>
      </trkpt>
      <trkpt lat="45.72574" lon="4.85399">
        <ele>172.5</ele>
        <time>2015-09-23T15:15:05Z</time>
      </trkpt>
      <trkpt lat="45.7258" lon="4.85398">
        <ele>172.2</ele>
        <time>2015-09-23T15:15:06Z</time>
      </trkpt>
      <trkpt lat="45.72588" lon="4.85397">
        <ele>171.8</ele>
        <time>2015-09-23T15:15:07Z</time>
      </trkpt>
      <trkpt lat="45.72594" lon="4.85396">
        <ele>171.6</ele>
        <time>2015-09-23T15:15:08Z</time>
      </trkpt>
      <trkpt lat="45.72601" lon="4.85396">
        <ele>171.3</ele>
        <time>2015-09-23T15:15:09Z</time>
      </trkpt>
      <trkpt lat="45.72607" lon="4.85396">
        <ele>171</ele>
        <time>2015-09-23T15:15:10Z</time>
      </trkpt>
      <trkpt lat="45.72614" lon="4.85398">
        <ele>170.8</ele>
        <time>2015-09-23T15:15:11Z</time>
      </trkpt>
      <trkpt lat="45.72621" lon="4.85398">
        <ele>170.5</ele>
        <time>2015-09-23T15:15:12Z</time>
      </trkpt>
      <trkpt lat="45.72629" lon="4.85398">
        <ele>170.5</ele>
        <time>2015-09-23T15:15:13Z</time>
      </trkpt>
      <trkpt lat="45.72636" lon="4.85397">
        <ele>170.6</ele>
        <time>2015-09-23T15:15:14Z</time>
      </trkpt>
      <trkpt lat="45.72663" lon="4.85395">
        <ele>171</ele>
        <time>2015-09-23T15:15:18Z</time>
      </trkpt>
      <trkpt lat="45.7267" lon="4.85394">
        <ele>171.1</ele>
        <time>2015-09-23T15:15:19Z</time>
      </trkpt>
      <trkpt lat="45.72674" lon="4.85392">
        <ele>171.1</ele>
        <time>2015-09-23T15:15:20Z</time>
      </trkpt>
      <trkpt lat="45.72679" lon="4.8539">
        <ele>171.1</ele>
        <time>2015-09-23T15:15:21Z</time>
      </trkpt>
      <trkpt lat="45.72685" lon="4.8539">
        <ele>171.2</ele>
        <time>2015-09-23T15:15:22Z</time>
      </trkpt>
      <trkpt lat="45.72692" lon="4.85386">
        <ele>171.2</ele>
        <time>2015-09-23T15:15:23Z</time>
      </trkpt>
      <trkpt lat="45.72698" lon="4.85384">
        <ele>171.2</ele>
        <time>2015-09-23T15:15:24Z</time>
      </trkpt>
      <trkpt lat="45.72703" lon="4.85385">
        <ele>171.4</ele>
        <time>2015-09-23T15:15:25Z</time>
      </trkpt>
      <trkpt lat="45.7271" lon="4.85384">
        <ele>171.5</ele>
        <time>2015-09-23T15:15:26Z</time>
      </trkpt>
      <trkpt lat="45.72714" lon="4.85385">
        <ele>171.6</ele>
        <time>2015-09-23T15:15:27Z</time>
      </trkpt>
      <trkpt lat="45.7272" lon="4.85383">
        <ele>171.6</ele>
        <time>2015-09-23T15:15:28Z</time>
      </trkpt>
      <trkpt lat="45.72725" lon="4.85383">
        <ele>171.7</ele>
        <time>2015-09-23T15:15:29Z</time>
      </trkpt>
      <trkpt lat="45.7273" lon="4.85384">
        <ele>171.8</ele>
        <time>2015-09-23T15:15:30Z</time>
      </trkpt>
      <trkpt lat="45.72735" lon="4.85383">
        <ele>171.9</ele>
        <time>2015-09-23T15:15:31Z</time>
      </trkpt>
      <trkpt lat="45.72762" lon="4.85382">
        <ele>172.4</ele>
        <time>2015-09-23T15:15:35Z</time>
      </trkpt>
      <trkpt lat="45.7277" lon="4.85381">
        <ele>172.5</ele>
        <time>2015-09-23T15:15:36Z</time>
      </trkpt>
      <trkpt lat="45.72777" lon="4.85382">
        <ele>172.7</ele>
        <time>2015-09-23T15:15:37Z</time>
      </trkpt>
      <trkpt lat="45.72784" lon="4.85383">
        <ele>172.8</ele>
        <time>2015-09-23T15:15:38Z</time>
      </trkpt>
      <trkpt lat="45.72791" lon="4.85384">
        <ele>173</ele>
        <time>2015-09-23T15:15:39Z</time>
      </trkpt>
      <trkpt lat="45.72799" lon="4.85384">
        <ele>173.1</ele>
        <time>2015-09-23T15:15:40Z</time>
      </trkpt>
      <trkpt lat="45.72822" lon="4.85379">
        <ele>173.4</ele>
        <time>2015-09-23T15:15:43Z</time>
      </trkpt>
      <trkpt lat="45.72829" lon="4.85377">
        <ele>173.5</ele>
        <time>2015-09-23T15:15:44Z</time>
      </trkpt>
      <trkpt lat="45.72837" lon="4.85377">
        <ele>173.5</ele>
        <time>2015-09-23T15:15:45Z</time>
      </trkpt>
      <trkpt lat="45.72844" lon="4.85376">
        <ele>173.6</ele>
        <time>2015-09-23T15:15:46Z</time>
      </trkpt>
      <trkpt lat="45.72852" lon="4.85376">
        <ele>173.7</ele>
        <time>2015-09-23T15:15:47Z</time>
      </trkpt>
      <trkpt lat="45.7286" lon="4.85375">
        <ele>173.8</ele>
        <time>2015-09-23T15:15:48Z</time>
      </trkpt>
      <trkpt lat="45.72866" lon="4.85374">
        <ele>173.9</ele>
        <time>2015-09-23T15:15:49Z</time>
      </trkpt>
      <trkpt lat="45.72873" lon="4.85371">
        <ele>174.1</ele>
        <time>2015-09-23T15:15:50Z</time>
      </trkpt>
      <trkpt lat="45.72879" lon="4.8537">
        <ele>174.1</ele>
        <time>2015-09-23T15:15:51Z</time>
      </trkpt>
      <trkpt lat="45.72886" lon="4.85372">
        <ele>174</ele>
        <time>2015-09-23T15:15:52Z</time>
      </trkpt>
      <trkpt lat="45.72892" lon="4.85373">
        <ele>173.9</ele>
        <time>2015-09-23T15:15:53Z</time>
      </trkpt>
      <trkpt lat="45.72899" lon="4.85373">
        <ele>173.8</ele>
        <time>2015-09-23T15:15:54Z</time>
      </trkpt>
      <trkpt lat="45.72905" lon="4.85373">
        <ele>173.7</ele>
        <time>2015-09-23T15:15:55Z</time>
      </trkpt>
      <trkpt lat="45.72917" lon="4.85373">
        <ele>173.5</ele>
        <time>2015-09-23T15:15:58Z</time>
      </trkpt>
      <trkpt lat="45.72921" lon="4.85373">
        <ele>173.5</ele>
        <time>2015-09-23T15:15:59Z</time>
      </trkpt>
      <trkpt lat="45.72924" lon="4.85372">
        <ele>173.4</ele>
        <time>2015-09-23T15:16:00Z</time>
      </trkpt>
      <trkpt lat="45.72928" lon="4.85372">
        <ele>173.4</ele>
        <time>2015-09-23T15:16:01Z</time>
      </trkpt>
      <trkpt lat="45.72931" lon="4.85374">
        <ele>173.3</ele>
        <time>2015-09-23T15:16:02Z</time>
      </trkpt>
      <trkpt lat="45.72934" lon="4.85375">
        <ele>173.3</ele>
        <time>2015-09-23T15:16:04Z</time>
      </trkpt>
      <trkpt lat="45.72937" lon="4.85373">
        <ele>173.3</ele>
        <time>2015-09-23T15:16:06Z</time>
      </trkpt>
      <trkpt lat="45.72941" lon="4.85373">
        <ele>173.2</ele>
        <time>2015-09-23T15:16:08Z</time>
      </trkpt>
      <trkpt lat="45.72944" lon="4.85373">
        <ele>173.2</ele>
        <time>2015-09-23T15:16:09Z</time>
      </trkpt>
      <trkpt lat="45.72945" lon="4.85377">
        <ele>173.2</ele>
        <time>2015-09-23T15:16:14Z</time>
      </trkpt>
      <trkpt lat="45.72949" lon="4.85377">
        <ele>173.1</ele>
        <time>2015-09-23T15:16:24Z</time>
      </trkpt>
      <trkpt lat="45.72952" lon="4.85377">
        <ele>173.1</ele>
        <time>2015-09-23T15:16:25Z</time>
      </trkpt>
      <trkpt lat="45.72955" lon="4.85377">
        <ele>173.1</ele>
        <time>2015-09-23T15:16:26Z</time>
      </trkpt>
      <trkpt lat="45.72959" lon="4.85378">
        <ele>173.1</ele>
        <time>2015-09-23T15:16:27Z</time>
      </trkpt>
      <trkpt lat="45.72965" lon="4.85378">
        <ele>173</ele>
        <time>2015-09-23T15:16:28Z</time>
      </trkpt>
      <trkpt lat="45.72973" lon="4.85386">
        <ele>173.1</ele>
        <time>2015-09-23T15:16:30Z</time>
      </trkpt>
      <trkpt lat="45.72997" lon="4.85369">
        <ele>172.5</ele>
        <time>2015-09-23T15:16:33Z</time>
      </trkpt>
      <trkpt lat="45.73008" lon="4.85367">
        <ele>172.3</ele>
        <time>2015-09-23T15:16:34Z</time>
      </trkpt>
      <trkpt lat="45.73016" lon="4.85371">
        <ele>172.2</ele>
        <time>2015-09-23T15:16:35Z</time>
      </trkpt>
      <trkpt lat="45.73023" lon="4.85368">
        <ele>172.1</ele>
        <time>2015-09-23T15:16:36Z</time>
      </trkpt>
      <trkpt lat="45.7303" lon="4.85368">
        <ele>172</ele>
        <time>2015-09-23T15:16:37Z</time>
      </trkpt>
      <trkpt lat="45.7304" lon="4.85367">
        <ele>171.8</ele>
        <time>2015-09-23T15:16:38Z</time>
      </trkpt>
      <trkpt lat="45.73047" lon="4.85367">
        <ele>171.5</ele>
        <time>2015-09-23T15:16:39Z</time>
      </trkpt>
      <trkpt lat="45.73056" lon="4.85366">
        <ele>171</ele>
        <time>2015-09-23T15:16:40Z</time>
      </trkpt>
      <trkpt lat="45.73064" lon="4.85367">
        <ele>170.6</ele>
        <time>2015-09-23T15:16:41Z</time>
      </trkpt>
      <trkpt lat="45.73073" lon="4.85367">
        <ele>170.1</ele>
        <time>2015-09-23T15:16:42Z</time>
      </trkpt>
      <trkpt lat="45.73081" lon="4.85369">
        <ele>169.7</ele>
        <time>2015-09-23T15:16:43Z</time>
      </trkpt>
      <trkpt lat="45.7309" lon="4.85368">
        <ele>169.2</ele>
        <time>2015-09-23T15:16:44Z</time>
      </trkpt>
      <trkpt lat="45.73096" lon="4.85367">
        <ele>168.9</ele>
        <time>2015-09-23T15:16:45Z</time>
      </trkpt>
      <trkpt lat="45.73104" lon="4.85367">
        <ele>168.5</ele>
        <time>2015-09-23T15:16:46Z</time>
      </trkpt>
      <trkpt lat="45.73112" lon="4.85366">
        <ele>168.1</ele>
        <time>2015-09-23T15:16:47Z</time>
      </trkpt>
      <trkpt lat="45.73121" lon="4.85365">
        <ele>167.7</ele>
        <time>2015-09-23T15:16:48Z</time>
      </trkpt>
      <trkpt lat="45.73128" lon="4.85365">
        <ele>167.6</ele>
        <time>2015-09-23T15:16:49Z</time>
      </trkpt>
      <trkpt lat="45.73136" lon="4.85364">
        <ele>168.1</ele>
        <time>2015-09-23T15:16:50Z</time>
      </trkpt>
      <trkpt lat="45.73145" lon="4.85362">
        <ele>168.5</ele>
        <time>2015-09-23T15:16:51Z</time>
      </trkpt>
      <trkpt lat="45.73152" lon="4.85362">
        <ele>168.9</ele>
        <time>2015-09-23T15:16:52Z</time>
      </trkpt>
      <trkpt lat="45.73159" lon="4.85363">
        <ele>169.2</ele>
        <time>2015-09-23T15:16:53Z</time>
      </trkpt>
      <trkpt lat="45.73167" lon="4.85364">
        <ele>169.5</ele>
        <time>2015-09-23T15:16:54Z</time>
      </trkpt>
      <trkpt lat="45.73175" lon="4.85364">
        <ele>169.9</ele>
        <time>2015-09-23T15:16:55Z</time>
      </trkpt>
      <trkpt lat="45.73183" lon="4.85364">
        <ele>170.2</ele>
        <time>2015-09-23T15:16:56Z</time>
      </trkpt>
      <trkpt lat="45.7319" lon="4.85363">
        <ele>170.6</ele>
        <time>2015-09-23T15:16:57Z</time>
      </trkpt>
      <trkpt lat="45.73198" lon="4.85362">
        <ele>171</ele>
        <time>2015-09-23T15:16:58Z</time>
      </trkpt>
      <trkpt lat="45.73206" lon="4.85361">
        <ele>171.4</ele>
        <time>2015-09-23T15:16:59Z</time>
      </trkpt>
      <trkpt lat="45.73214" lon="4.8536">
        <ele>171.6</ele>
        <time>2015-09-23T15:17:00Z</time>
      </trkpt>
      <trkpt lat="45.73221" lon="4.8536">
        <ele>171.8</ele>
        <time>2015-09-23T15:17:01Z</time>
      </trkpt>
      <trkpt lat="45.73229" lon="4.85358">
        <ele>171.9</ele>
        <time>2015-09-23T15:17:02Z</time>
      </trkpt>
      <trkpt lat="45.73236" lon="4.85358">
        <ele>172.1</ele>
        <time>2015-09-23T15:17:03Z</time>
      </trkpt>
      <trkpt lat="45.73242" lon="4.85356">
        <ele>172.2</ele>
        <time>2015-09-23T15:17:04Z</time>
      </trkpt>
      <trkpt lat="45.7325" lon="4.85355">
        <ele>172.4</ele>
        <time>2015-09-23T15:17:05Z</time>
      </trkpt>
      <trkpt lat="45.73258" lon="4.85354">
        <ele>172.5</ele>
        <time>2015-09-23T15:17:06Z</time>
      </trkpt>
      <trkpt lat="45.73266" lon="4.85352">
        <ele>172.6</ele>
        <time>2015-09-23T15:17:07Z</time>
      </trkpt>
      <trkpt lat="45.73275" lon="4.85352">
        <ele>172.8</ele>
        <time>2015-09-23T15:17:08Z</time>
      </trkpt>
      <trkpt lat="45.73282" lon="4.85353">
        <ele>172.9</ele>
        <time>2015-09-23T15:17:09Z</time>
      </trkpt>
      <trkpt lat="45.73285" lon="4.85357">
        <ele>172.9</ele>
        <time>2015-09-23T15:17:11Z</time>
      </trkpt>
      <trkpt lat="45.73309" lon="4.85352">
        <ele>173.3</ele>
        <time>2015-09-23T15:17:13Z</time>
      </trkpt>
      <trkpt lat="45.73317" lon="4.85351">
        <ele>173.4</ele>
        <time>2015-09-23T15:17:14Z</time>
      </trkpt>
      <trkpt lat="45.73323" lon="4.85351">
        <ele>173.5</ele>
        <time>2015-09-23T15:17:15Z</time>
      </trkpt>
      <trkpt lat="45.73331" lon="4.8535">
        <ele>173.6</ele>
        <time>2015-09-23T15:17:16Z</time>
      </trkpt>
      <trkpt lat="45.73338" lon="4.85349">
        <ele>173.7</ele>
        <time>2015-09-23T15:17:17Z</time>
      </trkpt>
      <trkpt lat="45.73344" lon="4.85348">
        <ele>173.8</ele>
        <time>2015-09-23T15:17:18Z</time>
      </trkpt>
      <trkpt lat="45.73351" lon="4.85347">
        <ele>173.9</ele>
        <time>2015-09-23T15:17:19Z</time>
      </trkpt>
      <trkpt lat="45.73356" lon="4.85345">
        <ele>174.1</ele>
        <time>2015-09-23T15:17:20Z</time>
      </trkpt>
      <trkpt lat="45.73362" lon="4.85344">
        <ele>174.2</ele>
        <time>2015-09-23T15:17:21Z</time>
      </trkpt>
      <trkpt lat="45.73367" lon="4.85345">
        <ele>174.2</ele>
        <time>2015-09-23T15:17:22Z</time>
      </trkpt>
      <trkpt lat="45.73374" lon="4.85346">
        <ele>174.3</ele>
        <time>2015-09-23T15:17:23Z</time>
      </trkpt>
      <trkpt lat="45.73379" lon="4.85346">
        <ele>174.3</ele>
        <time>2015-09-23T15:17:24Z</time>
      </trkpt>
      <trkpt lat="45.73384" lon="4.85345">
        <ele>174.2</ele>
        <time>2015-09-23T15:17:25Z</time>
      </trkpt>
      <trkpt lat="45.7339" lon="4.85344">
        <ele>174.2</ele>
        <time>2015-09-23T15:17:26Z</time>
      </trkpt>
      <trkpt lat="45.73394" lon="4.85344">
        <ele>174.1</ele>
        <time>2015-09-23T15:17:27Z</time>
      </trkpt>
      <trkpt lat="45.73398" lon="4.85344">
        <ele>174.1</ele>
        <time>2015-09-23T15:17:28Z</time>
      </trkpt>
      <trkpt lat="45.73403" lon="4.85344">
        <ele>174</ele>
        <time>2015-09-23T15:17:29Z</time>
      </trkpt>
      <trkpt lat="45.73407" lon="4.85344">
        <ele>174</ele>
        <time>2015-09-23T15:17:30Z</time>
      </trkpt>
      <trkpt lat="45.73412" lon="4.85344">
        <ele>173.9</ele>
        <time>2015-09-23T15:17:31Z</time>
      </trkpt>
      <trkpt lat="45.73417" lon="4.85343">
        <ele>173.8</ele>
        <time>2015-09-23T15:17:32Z</time>
      </trkpt>
      <trkpt lat="45.73422" lon="4.85341">
        <ele>173.7</ele>
        <time>2015-09-23T15:17:33Z</time>
      </trkpt>
      <trkpt lat="45.73427" lon="4.85341">
        <ele>173.6</ele>
        <time>2015-09-23T15:17:34Z</time>
      </trkpt>
      <trkpt lat="45.73434" lon="4.8534">
        <ele>173.5</ele>
        <time>2015-09-23T15:17:35Z</time>
      </trkpt>
      <trkpt lat="45.73443" lon="4.85339">
        <ele>173.4</ele>
        <time>2015-09-23T15:17:36Z</time>
      </trkpt>
      <trkpt lat="45.73448" lon="4.85339">
        <ele>173.3</ele>
        <time>2015-09-23T15:17:37Z</time>
      </trkpt>
      <trkpt lat="45.73455" lon="4.85339">
        <ele>173.2</ele>
        <time>2015-09-23T15:17:38Z</time>
      </trkpt>
      <trkpt lat="45.73462" lon="4.85338">
        <ele>173.3</ele>
        <time>2015-09-23T15:17:39Z</time>
      </trkpt>
      <trkpt lat="45.73467" lon="4.85338">
        <ele>173.6</ele>
        <time>2015-09-23T15:17:40Z</time>
      </trkpt>
      <trkpt lat="45.73494" lon="4.85335">
        <ele>174.9</ele>
        <time>2015-09-23T15:17:44Z</time>
      </trkpt>
      <trkpt lat="45.73499" lon="4.85335">
        <ele>175.3</ele>
        <time>2015-09-23T15:17:45Z</time>
      </trkpt>
      <trkpt lat="45.73507" lon="4.85337">
        <ele>175.7</ele>
        <time>2015-09-23T15:17:46Z</time>
      </trkpt>
      <trkpt lat="45.73511" lon="4.85344">
        <ele>176.2</ele>
        <time>2015-09-23T15:17:47Z</time>
      </trkpt>
      <trkpt lat="45.73515" lon="4.85353">
        <ele>176.7</ele>
        <time>2015-09-23T15:17:48Z</time>
      </trkpt>
      <trkpt lat="45.73518" lon="4.85358">
        <ele>177</ele>
        <time>2015-09-23T15:17:49Z</time>
      </trkpt>
      <trkpt lat="45.73522" lon="4.85367">
        <ele>177.5</ele>
        <time>2015-09-23T15:17:50Z</time>
      </trkpt>
      <trkpt lat="45.73526" lon="4.85375">
        <ele>178</ele>
        <time>2015-09-23T15:17:51Z</time>
      </trkpt>
      <trkpt lat="45.7353" lon="4.85383">
        <ele>178.1</ele>
        <time>2015-09-23T15:17:52Z</time>
      </trkpt>
      <trkpt lat="45.73534" lon="4.85391">
        <ele>178.1</ele>
        <time>2015-09-23T15:17:53Z</time>
      </trkpt>
      <trkpt lat="45.73538" lon="4.85399">
        <ele>178</ele>
        <time>2015-09-23T15:17:54Z</time>
      </trkpt>
      <trkpt lat="45.73542" lon="4.85406">
        <ele>177.9</ele>
        <time>2015-09-23T15:17:55Z</time>
      </trkpt>
      <trkpt lat="45.73559" lon="4.85438">
        <ele>176.5</ele>
        <time>2015-09-23T15:17:59Z</time>
      </trkpt>
      <trkpt lat="45.73563" lon="4.85446">
        <ele>176.3</ele>
        <time>2015-09-23T15:18:00Z</time>
      </trkpt>
      <trkpt lat="45.73567" lon="4.85454">
        <ele>176.1</ele>
        <time>2015-09-23T15:18:01Z</time>
      </trkpt>
      <trkpt lat="45.73571" lon="4.85462">
        <ele>175.9</ele>
        <time>2015-09-23T15:18:02Z</time>
      </trkpt>
      <trkpt lat="45.73575" lon="4.85469">
        <ele>175.8</ele>
        <time>2015-09-23T15:18:03Z</time>
      </trkpt>
      <trkpt lat="45.73579" lon="4.85476">
        <ele>175.6</ele>
        <time>2015-09-23T15:18:04Z</time>
      </trkpt>
      <trkpt lat="45.73582" lon="4.85482">
        <ele>175.6</ele>
        <time>2015-09-23T15:18:05Z</time>
      </trkpt>
      <trkpt lat="45.73587" lon="4.85491">
        <ele>175.5</ele>
        <time>2015-09-23T15:18:06Z</time>
      </trkpt>
      <trkpt lat="45.73591" lon="4.85499">
        <ele>175.4</ele>
        <time>2015-09-23T15:18:07Z</time>
      </trkpt>
      <trkpt lat="45.73595" lon="4.85506">
        <ele>175.4</ele>
        <time>2015-09-23T15:18:08Z</time>
      </trkpt>
      <trkpt lat="45.73599" lon="4.85514">
        <ele>175.4</ele>
        <time>2015-09-23T15:18:09Z</time>
      </trkpt>
      <trkpt lat="45.73603" lon="4.85522">
        <ele>175.4</ele>
        <time>2015-09-23T15:18:10Z</time>
      </trkpt>
      <trkpt lat="45.73607" lon="4.8553">
        <ele>175.4</ele>
        <time>2015-09-23T15:18:11Z</time>
      </trkpt>
      <trkpt lat="45.73611" lon="4.85538">
        <ele>175.5</ele>
        <time>2015-09-23T15:18:12Z</time>
      </trkpt>
      <trkpt lat="45.73614" lon="4.85544">
        <ele>175.6</ele>
        <time>2015-09-23T15:18:13Z</time>
      </trkpt>
      <trkpt lat="45.7362" lon="4.85566">
        <ele>176.1</ele>
        <time>2015-09-23T15:18:18Z</time>
      </trkpt>
      <trkpt lat="45.73619" lon="4.8557">
        <ele>176.2</ele>
        <time>2015-09-23T15:18:21Z</time>
      </trkpt>
      <trkpt lat="45.73618" lon="4.85575">
        <ele>176.2</ele>
        <time>2015-09-23T15:18:22Z</time>
      </trkpt>
      <trkpt lat="45.73617" lon="4.85581">
        <ele>176.2</ele>
        <time>2015-09-23T15:18:23Z</time>
      </trkpt>
      <trkpt lat="45.73603" lon="4.856">
        <ele>176.1</ele>
        <time>2015-09-23T15:18:26Z</time>
      </trkpt>
      <trkpt lat="45.73597" lon="4.85606">
        <ele>176</ele>
        <time>2015-09-23T15:18:27Z</time>
      </trkpt>
      <trkpt lat="45.73592" lon="4.85614">
        <ele>176</ele>
        <time>2015-09-23T15:18:28Z</time>
      </trkpt>
      <trkpt lat="45.73588" lon="4.85621">
        <ele>176</ele>
        <time>2015-09-23T15:18:29Z</time>
      </trkpt>
      <trkpt lat="45.73583" lon="4.85626">
        <ele>176</ele>
        <time>2015-09-23T15:18:30Z</time>
      </trkpt>
      <trkpt lat="45.73577" lon="4.85632">
        <ele>175.8</ele>
        <time>2015-09-23T15:18:31Z</time>
      </trkpt>
      <trkpt lat="45.73572" lon="4.85637">
        <ele>175.7</ele>
        <time>2015-09-23T15:18:32Z</time>
      </trkpt>
      <trkpt lat="45.73567" lon="4.85645">
        <ele>175.5</ele>
        <time>2015-09-23T15:18:33Z</time>
      </trkpt>
      <trkpt lat="45.73563" lon="4.85652">
        <ele>175.4</ele>
        <time>2015-09-23T15:18:34Z</time>
      </trkpt>
      <trkpt lat="45.7356" lon="4.85655">
        <ele>175.4</ele>
        <time>2015-09-23T15:18:35Z</time>
      </trkpt>
      <trkpt lat="45.73561" lon="4.85671">
        <ele>175.3</ele>
        <time>2015-09-23T15:18:36Z</time>
      </trkpt>
      <trkpt lat="45.73565" lon="4.85676">
        <ele>175.4</ele>
        <time>2015-09-23T15:18:37Z</time>
      </trkpt>
      <trkpt lat="45.7357" lon="4.85682">
        <ele>175.5</ele>
        <time>2015-09-23T15:18:38Z</time>
      </trkpt>
      <trkpt lat="45.73576" lon="4.85689">
        <ele>175.5</ele>
        <time>2015-09-23T15:18:39Z</time>
      </trkpt>
      <trkpt lat="45.73581" lon="4.85694">
        <ele>175.6</ele>
        <time>2015-09-23T15:18:40Z</time>
      </trkpt>
      <trkpt lat="45.73587" lon="4.85701">
        <ele>175.6</ele>
        <time>2015-09-23T15:18:41Z</time>
      </trkpt>
      <trkpt lat="45.73593" lon="4.85707">
        <ele>175.6</ele>
        <time>2015-09-23T15:18:42Z</time>
      </trkpt>
      <trkpt lat="45.73596" lon="4.8571">
        <ele>175.6</ele>
        <time>2015-09-23T15:18:43Z</time>
      </trkpt>
      <trkpt lat="45.73606" lon="4.8572">
        <ele>175.4</ele>
        <time>2015-09-23T15:18:44Z</time>
      </trkpt>
      <trkpt lat="45.7361" lon="4.85725">
        <ele>175.3</ele>
        <time>2015-09-23T15:18:45Z</time>
      </trkpt>
      <trkpt lat="45.73617" lon="4.85731">
        <ele>175.1</ele>
        <time>2015-09-23T15:18:46Z</time>
      </trkpt>
      <trkpt lat="45.73623" lon="4.85737">
        <ele>174.9</ele>
        <time>2015-09-23T15:18:47Z</time>
      </trkpt>
      <trkpt lat="45.73628" lon="4.85742">
        <ele>174.8</ele>
        <time>2015-09-23T15:18:48Z</time>
      </trkpt>
      <trkpt lat="45.73632" lon="4.85746">
        <ele>174.7</ele>
        <time>2015-09-23T15:18:49Z</time>
      </trkpt>
      <trkpt lat="45.73637" lon="4.8575">
        <ele>174.6</ele>
        <time>2015-09-23T15:18:50Z</time>
      </trkpt>
      <trkpt lat="45.73642" lon="4.85756">
        <ele>174.5</ele>
        <time>2015-09-23T15:18:51Z</time>
      </trkpt>
      <trkpt lat="45.73647" lon="4.8576">
        <ele>174.3</ele>
        <time>2015-09-23T15:18:52Z</time>
      </trkpt>
      <trkpt lat="45.73653" lon="4.85765">
        <ele>174.2</ele>
        <time>2015-09-23T15:18:53Z</time>
      </trkpt>
      <trkpt lat="45.73658" lon="4.8577">
        <ele>174</ele>
        <time>2015-09-23T15:18:54Z</time>
      </trkpt>
      <trkpt lat="45.73664" lon="4.85775">
        <ele>173.8</ele>
        <time>2015-09-23T15:18:55Z</time>
      </trkpt>
      <trkpt lat="45.73669" lon="4.8578">
        <ele>173.6</ele>
        <time>2015-09-23T15:18:56Z</time>
      </trkpt>
      <trkpt lat="45.73675" lon="4.85785">
        <ele>173.3</ele>
        <time>2015-09-23T15:18:57Z</time>
      </trkpt>
      <trkpt lat="45.73682" lon="4.85791">
        <ele>173</ele>
        <time>2015-09-23T15:18:58Z</time>
      </trkpt>
      <trkpt lat="45.73687" lon="4.85796">
        <ele>173</ele>
        <time>2015-09-23T15:18:59Z</time>
      </trkpt>
      <trkpt lat="45.73693" lon="4.85801">
        <ele>172.9</ele>
        <time>2015-09-23T15:19:00Z</time>
      </trkpt>
      <trkpt lat="45.737" lon="4.85807">
        <ele>172.8</ele>
        <time>2015-09-23T15:19:01Z</time>
      </trkpt>
      <trkpt lat="45.73705" lon="4.85812">
        <ele>172.8</ele>
        <time>2015-09-23T15:19:02Z</time>
      </trkpt>
      <trkpt lat="45.73711" lon="4.85817">
        <ele>172.8</ele>
        <time>2015-09-23T15:19:03Z</time>
      </trkpt>
      <trkpt lat="45.73716" lon="4.85822">
        <ele>172.9</ele>
        <time>2015-09-23T15:19:04Z</time>
      </trkpt>
      <trkpt lat="45.73721" lon="4.85826">
        <ele>173</ele>
        <time>2015-09-23T15:19:05Z</time>
      </trkpt>
      <trkpt lat="45.73727" lon="4.85832">
        <ele>173.1</ele>
        <time>2015-09-23T15:19:06Z</time>
      </trkpt>
      <trkpt lat="45.73733" lon="4.85837">
        <ele>173.2</ele>
        <time>2015-09-23T15:19:07Z</time>
      </trkpt>
      <trkpt lat="45.73739" lon="4.85842">
        <ele>173.3</ele>
        <time>2015-09-23T15:19:08Z</time>
      </trkpt>
      <trkpt lat="45.73743" lon="4.85846">
        <ele>173.3</ele>
        <time>2015-09-23T15:19:09Z</time>
      </trkpt>
      <trkpt lat="45.73749" lon="4.85851">
        <ele>173.4</ele>
        <time>2015-09-23T15:19:10Z</time>
      </trkpt>
      <trkpt lat="45.73757" lon="4.85857">
        <ele>173.5</ele>
        <time>2015-09-23T15:19:11Z</time>
      </trkpt>
      <trkpt lat="45.73762" lon="4.85863">
        <ele>173.5</ele>
        <time>2015-09-23T15:19:12Z</time>
      </trkpt>
      <trkpt lat="45.73769" lon="4.85869">
        <ele>173.6</ele>
        <time>2015-09-23T15:19:13Z</time>
      </trkpt>
      <trkpt lat="45.73774" lon="4.85873">
        <ele>173.6</ele>
        <time>2015-09-23T15:19:14Z</time>
      </trkpt>
      <trkpt lat="45.73781" lon="4.85879">
        <ele>173.9</ele>
        <time>2015-09-23T15:19:15Z</time>
      </trkpt>
      <trkpt lat="45.73787" lon="4.85885">
        <ele>174.2</ele>
        <time>2015-09-23T15:19:16Z</time>
      </trkpt>
      <trkpt lat="45.73813" lon="4.859">
        <ele>174.7</ele>
        <time>2015-09-23T15:19:20Z</time>
      </trkpt>
      <trkpt lat="45.73818" lon="4.85904">
        <ele>174.7</ele>
        <time>2015-09-23T15:19:21Z</time>
      </trkpt>
      <trkpt lat="45.73824" lon="4.85907">
        <ele>174.8</ele>
        <time>2015-09-23T15:19:22Z</time>
      </trkpt>
      <trkpt lat="45.7383" lon="4.85912">
        <ele>174.9</ele>
        <time>2015-09-23T15:19:23Z</time>
      </trkpt>
      <trkpt lat="45.73837" lon="4.85915">
        <ele>174.9</ele>
        <time>2015-09-23T15:19:24Z</time>
      </trkpt>
      <trkpt lat="45.73843" lon="4.85918">
        <ele>174.9</ele>
        <time>2015-09-23T15:19:25Z</time>
      </trkpt>
      <trkpt lat="45.73849" lon="4.8592">
        <ele>174.9</ele>
        <time>2015-09-23T15:19:26Z</time>
      </trkpt>
      <trkpt lat="45.73874" lon="4.85927">
        <ele>174.9</ele>
        <time>2015-09-23T15:19:30Z</time>
      </trkpt>
      <trkpt lat="45.73882" lon="4.8593">
        <ele>175</ele>
        <time>2015-09-23T15:19:31Z</time>
      </trkpt>
      <trkpt lat="45.73887" lon="4.85934">
        <ele>175.1</ele>
        <time>2015-09-23T15:19:32Z</time>
      </trkpt>
      <trkpt lat="45.7389" lon="4.85937">
        <ele>175.1</ele>
        <time>2015-09-23T15:19:33Z</time>
      </trkpt>
      <trkpt lat="45.73898" lon="4.85947">
        <ele>175.4</ele>
        <time>2015-09-23T15:19:34Z</time>
      </trkpt>
      <trkpt lat="45.73902" lon="4.85954">
        <ele>175.6</ele>
        <time>2015-09-23T15:19:36Z</time>
      </trkpt>
      <trkpt lat="45.73906" lon="4.8596">
        <ele>175.6</ele>
        <time>2015-09-23T15:19:37Z</time>
      </trkpt>
      <trkpt lat="45.73909" lon="4.85966">
        <ele>175.6</ele>
        <time>2015-09-23T15:19:38Z</time>
      </trkpt>
      <trkpt lat="45.73912" lon="4.85969">
        <ele>175.6</ele>
        <time>2015-09-23T15:19:40Z</time>
      </trkpt>
      <trkpt lat="45.73918" lon="4.85964">
        <ele>175.5</ele>
        <time>2015-09-23T15:19:41Z</time>
      </trkpt>
      <trkpt lat="45.73921" lon="4.8596">
        <ele>175.5</ele>
        <time>2015-09-23T15:19:42Z</time>
      </trkpt>
      <trkpt lat="45.73925" lon="4.85957">
        <ele>175.4</ele>
        <time>2015-09-23T15:19:43Z</time>
      </trkpt>
      <trkpt lat="45.73936" lon="4.85976">
        <ele>175.4</ele>
        <time>2015-09-23T15:19:45Z</time>
      </trkpt>
      <trkpt lat="45.73941" lon="4.85969">
        <ele>175.3</ele>
        <time>2015-09-23T15:19:46Z</time>
      </trkpt>
      <trkpt lat="45.73946" lon="4.85962">
        <ele>175.2</ele>
        <time>2015-09-23T15:19:48Z</time>
      </trkpt>
      <trkpt lat="45.73944" lon="4.85945">
        <ele>174.9</ele>
        <time>2015-09-23T15:19:49Z</time>
      </trkpt>
      <trkpt lat="45.73954" lon="4.85935">
        <ele>174.7</ele>
        <time>2015-09-23T15:19:50Z</time>
      </trkpt>
      <trkpt lat="45.73957" lon="4.85936">
        <ele>174.7</ele>
        <time>2015-09-23T15:19:51Z</time>
      </trkpt>
      <trkpt lat="45.73962" lon="4.85936">
        <ele>174.8</ele>
        <time>2015-09-23T15:19:53Z</time>
      </trkpt>
      <trkpt lat="45.73964" lon="4.85936">
        <ele>174.8</ele>
        <time>2015-09-23T15:19:55Z</time>
      </trkpt>
      <trkpt lat="45.73969" lon="4.8593">
        <ele>174.7</ele>
        <time>2015-09-23T15:19:58Z</time>
      </trkpt>
      <trkpt lat="45.7397" lon="4.85926">
        <ele>174.7</ele>
        <time>2015-09-23T15:19:59Z</time>
      </trkpt>
      <trkpt lat="45.73971" lon="4.85921">
        <ele>174.6</ele>
        <time>2015-09-23T15:20:00Z</time>
      </trkpt>
      <trkpt lat="45.73972" lon="4.85917">
        <ele>174.6</ele>
        <time>2015-09-23T15:20:01Z</time>
      </trkpt>
      <trkpt lat="45.73976" lon="4.85914">
        <ele>174.6</ele>
        <time>2015-09-23T15:20:03Z</time>
      </trkpt>
      <trkpt lat="45.73979" lon="4.85915">
        <ele>174.6</ele>
        <time>2015-09-23T15:20:04Z</time>
      </trkpt>
      <trkpt lat="45.73982" lon="4.85919">
        <ele>174.7</ele>
        <time>2015-09-23T15:20:05Z</time>
      </trkpt>
      <trkpt lat="45.73984" lon="4.85924">
        <ele>174.8</ele>
        <time>2015-09-23T15:20:06Z</time>
      </trkpt>
      <trkpt lat="45.73986" lon="4.85929">
        <ele>174.9</ele>
        <time>2015-09-23T15:20:07Z</time>
      </trkpt>
      <trkpt lat="45.73988" lon="4.85933">
        <ele>174.9</ele>
        <time>2015-09-23T15:20:08Z</time>
      </trkpt>
      <trkpt lat="45.73989" lon="4.85936">
        <ele>175</ele>
        <time>2015-09-23T15:20:09Z</time>
      </trkpt>
      <trkpt lat="45.73992" lon="4.8594">
        <ele>175.1</ele>
        <time>2015-09-23T15:20:11Z</time>
      </trkpt>
      <trkpt lat="45.73995" lon="4.85941">
        <ele>175.1</ele>
        <time>2015-09-23T15:20:15Z</time>
      </trkpt>
      <trkpt lat="45.73999" lon="4.85942">
        <ele>175.2</ele>
        <time>2015-09-23T15:20:17Z</time>
      </trkpt>
      <trkpt lat="45.74002" lon="4.85942">
        <ele>175.2</ele>
        <time>2015-09-23T15:20:18Z</time>
      </trkpt>
      <trkpt lat="45.74005" lon="4.8594">
        <ele>175.2</ele>
        <time>2015-09-23T15:20:19Z</time>
      </trkpt>
      <trkpt lat="45.7401" lon="4.85936">
        <ele>175.2</ele>
        <time>2015-09-23T15:20:20Z</time>
      </trkpt>
      <trkpt lat="45.74015" lon="4.85933">
        <ele>175.2</ele>
        <time>2015-09-23T15:20:21Z</time>
      </trkpt>
      <trkpt lat="45.7402" lon="4.85928">
        <ele>175.1</ele>
        <time>2015-09-23T15:20:22Z</time>
      </trkpt>
      <trkpt lat="45.74025" lon="4.85924">
        <ele>175.1</ele>
        <time>2015-09-23T15:20:23Z</time>
      </trkpt>
      <trkpt lat="45.74031" lon="4.85918">
        <ele>175</ele>
        <time>2015-09-23T15:20:24Z</time>
      </trkpt>
      <trkpt lat="45.74037" lon="4.85913">
        <ele>174.9</ele>
        <time>2015-09-23T15:20:25Z</time>
      </trkpt>
      <trkpt lat="45.74042" lon="4.85908">
        <ele>174.8</ele>
        <time>2015-09-23T15:20:26Z</time>
      </trkpt>
      <trkpt lat="45.74049" lon="4.85903">
        <ele>174.6</ele>
        <time>2015-09-23T15:20:27Z</time>
      </trkpt>
      <trkpt lat="45.74054" lon="4.85899">
        <ele>174.5</ele>
        <time>2015-09-23T15:20:28Z</time>
      </trkpt>
      <trkpt lat="45.74059" lon="4.85895">
        <ele>174.4</ele>
        <time>2015-09-23T15:20:29Z</time>
      </trkpt>
      <trkpt lat="45.74064" lon="4.85891">
        <ele>174.3</ele>
        <time>2015-09-23T15:20:30Z</time>
      </trkpt>
      <trkpt lat="45.74068" lon="4.85886">
        <ele>174.2</ele>
        <time>2015-09-23T15:20:31Z</time>
      </trkpt>
      <trkpt lat="45.74074" lon="4.85882">
        <ele>174.1</ele>
        <time>2015-09-23T15:20:32Z</time>
      </trkpt>
      <trkpt lat="45.7408" lon="4.85877">
        <ele>174</ele>
        <time>2015-09-23T15:20:33Z</time>
      </trkpt>
      <trkpt lat="45.74084" lon="4.85875">
        <ele>174</ele>
        <time>2015-09-23T15:20:34Z</time>
      </trkpt>
      <trkpt lat="45.74089" lon="4.8587">
        <ele>173.9</ele>
        <time>2015-09-23T15:20:35Z</time>
      </trkpt>
      <trkpt lat="45.74094" lon="4.85866">
        <ele>173.8</ele>
        <time>2015-09-23T15:20:36Z</time>
      </trkpt>
      <trkpt lat="45.74099" lon="4.85863">
        <ele>173.7</ele>
        <time>2015-09-23T15:20:37Z</time>
      </trkpt>
      <trkpt lat="45.74103" lon="4.85863">
        <ele>173.7</ele>
        <time>2015-09-23T15:20:39Z</time>
      </trkpt>
      <trkpt lat="45.74106" lon="4.85863">
        <ele>173.7</ele>
        <time>2015-09-23T15:20:42Z</time>
      </trkpt>
      <trkpt lat="45.74112" lon="4.85859">
        <ele>173.6</ele>
        <time>2015-09-23T15:20:45Z</time>
      </trkpt>
      <trkpt lat="45.74118" lon="4.85861">
        <ele>173.7</ele>
        <time>2015-09-23T15:20:47Z</time>
      </trkpt>
      <trkpt lat="45.74165" lon="4.85822">
        <ele>171.5</ele>
        <time>2015-09-23T15:20:50Z</time>
      </trkpt>
      <trkpt lat="45.74169" lon="4.85822">
        <ele>171.3</ele>
        <time>2015-09-23T15:20:51Z</time>
      </trkpt>
      <trkpt lat="45.74175" lon="4.85822">
        <ele>171.1</ele>
        <time>2015-09-23T15:20:52Z</time>
      </trkpt>
      <trkpt lat="45.74181" lon="4.85821">
        <ele>170.9</ele>
        <time>2015-09-23T15:20:53Z</time>
      </trkpt>
      <trkpt lat="45.74187" lon="4.85822">
        <ele>170.8</ele>
        <time>2015-09-23T15:20:54Z</time>
      </trkpt>
      <trkpt lat="45.74192" lon="4.85822">
        <ele>170.6</ele>
        <time>2015-09-23T15:20:55Z</time>
      </trkpt>
      <trkpt lat="45.74197" lon="4.85822">
        <ele>170.4</ele>
        <time>2015-09-23T15:20:56Z</time>
      </trkpt>
      <trkpt lat="45.74203" lon="4.85823">
        <ele>170.3</ele>
        <time>2015-09-23T15:20:57Z</time>
      </trkpt>
      <trkpt lat="45.74208" lon="4.85824">
        <ele>170.2</ele>
        <time>2015-09-23T15:20:58Z</time>
      </trkpt>
      <trkpt lat="45.74211" lon="4.85826">
        <ele>170.2</ele>
        <time>2015-09-23T15:20:59Z</time>
      </trkpt>
      <trkpt lat="45.74215" lon="4.85827">
        <ele>170.3</ele>
        <time>2015-09-23T15:21:00Z</time>
      </trkpt>
      <trkpt lat="45.7422" lon="4.85828">
        <ele>170.4</ele>
        <time>2015-09-23T15:21:01Z</time>
      </trkpt>
      <trkpt lat="45.74223" lon="4.8583">
        <ele>170.5</ele>
        <time>2015-09-23T15:21:04Z</time>
      </trkpt>
      <trkpt lat="45.74225" lon="4.85833">
        <ele>170.6</ele>
        <time>2015-09-23T15:21:09Z</time>
      </trkpt>
      <trkpt lat="45.74228" lon="4.85835">
        <ele>170.7</ele>
        <time>2015-09-23T15:21:11Z</time>
      </trkpt>
      <trkpt lat="45.74234" lon="4.85833">
        <ele>170.6</ele>
        <time>2015-09-23T15:22:01Z</time>
      </trkpt>
      <trkpt lat="45.74238" lon="4.85834">
        <ele>170.7</ele>
        <time>2015-09-23T15:22:04Z</time>
      </trkpt>
      <trkpt lat="45.74241" lon="4.85835">
        <ele>170.8</ele>
        <time>2015-09-23T15:22:05Z</time>
      </trkpt>
      <trkpt lat="45.74245" lon="4.85836">
        <ele>170.8</ele>
        <time>2015-09-23T15:22:06Z</time>
      </trkpt>
      <trkpt lat="45.7425" lon="4.85836">
        <ele>170.8</ele>
        <time>2015-09-23T15:22:07Z</time>
      </trkpt>
      <trkpt lat="45.74255" lon="4.85837">
        <ele>170.9</ele>
        <time>2015-09-23T15:22:08Z</time>
      </trkpt>
      <trkpt lat="45.74261" lon="4.85837">
        <ele>170.9</ele>
        <time>2015-09-23T15:22:09Z</time>
      </trkpt>
      <trkpt lat="45.74268" lon="4.85838">
        <ele>171</ele>
        <time>2015-09-23T15:22:10Z</time>
      </trkpt>
      <trkpt lat="45.74273" lon="4.85838">
        <ele>171</ele>
        <time>2015-09-23T15:22:11Z</time>
      </trkpt>
      <trkpt lat="45.74279" lon="4.8584">
        <ele>171.1</ele>
        <time>2015-09-23T15:22:12Z</time>
      </trkpt>
      <trkpt lat="45.74286" lon="4.85843">
        <ele>171.2</ele>
        <time>2015-09-23T15:22:13Z</time>
      </trkpt>
      <trkpt lat="45.74293" lon="4.85845">
        <ele>171.3</ele>
        <time>2015-09-23T15:22:14Z</time>
      </trkpt>
      <trkpt lat="45.74299" lon="4.85846">
        <ele>171.4</ele>
        <time>2015-09-23T15:22:15Z</time>
      </trkpt>
      <trkpt lat="45.74303" lon="4.85848">
        <ele>171.5</ele>
        <time>2015-09-23T15:22:16Z</time>
      </trkpt>
      <trkpt lat="45.74309" lon="4.8585">
        <ele>171.7</ele>
        <time>2015-09-23T15:22:17Z</time>
      </trkpt>
      <trkpt lat="45.74314" lon="4.85849">
        <ele>171.7</ele>
        <time>2015-09-23T15:22:18Z</time>
      </trkpt>
      <trkpt lat="45.74319" lon="4.8585">
        <ele>171.8</ele>
        <time>2015-09-23T15:22:19Z</time>
      </trkpt>
      <trkpt lat="45.74325" lon="4.85852">
        <ele>172</ele>
        <time>2015-09-23T15:22:20Z</time>
      </trkpt>
      <trkpt lat="45.74332" lon="4.85855">
        <ele>172.1</ele>
        <time>2015-09-23T15:22:21Z</time>
      </trkpt>
      <trkpt lat="45.74339" lon="4.85856">
        <ele>172.2</ele>
        <time>2015-09-23T15:22:22Z</time>
      </trkpt>
      <trkpt lat="45.74347" lon="4.85858">
        <ele>172.4</ele>
        <time>2015-09-23T15:22:23Z</time>
      </trkpt>
      <trkpt lat="45.74354" lon="4.85859">
        <ele>172.5</ele>
        <time>2015-09-23T15:22:24Z</time>
      </trkpt>
      <trkpt lat="45.74361" lon="4.8586">
        <ele>172.6</ele>
        <time>2015-09-23T15:22:25Z</time>
      </trkpt>
      <trkpt lat="45.74369" lon="4.85862">
        <ele>172.8</ele>
        <time>2015-09-23T15:22:26Z</time>
      </trkpt>
      <trkpt lat="45.74378" lon="4.85864">
        <ele>172.9</ele>
        <time>2015-09-23T15:22:27Z</time>
      </trkpt>
      <trkpt lat="45.74386" lon="4.85868">
        <ele>172.8</ele>
        <time>2015-09-23T15:22:28Z</time>
      </trkpt>
      <trkpt lat="45.74393" lon="4.8587">
        <ele>172.8</ele>
        <time>2015-09-23T15:22:29Z</time>
      </trkpt>
      <trkpt lat="45.744" lon="4.85871">
        <ele>172.7</ele>
        <time>2015-09-23T15:22:30Z</time>
      </trkpt>
      <trkpt lat="45.74407" lon="4.85874">
        <ele>172.6</ele>
        <time>2015-09-23T15:22:31Z</time>
      </trkpt>
      <trkpt lat="45.74414" lon="4.85876">
        <ele>172.5</ele>
        <time>2015-09-23T15:22:32Z</time>
      </trkpt>
      <trkpt lat="45.74422" lon="4.85878">
        <ele>172.5</ele>
        <time>2015-09-23T15:22:33Z</time>
      </trkpt>
      <trkpt lat="45.74428" lon="4.8588">
        <ele>172.5</ele>
        <time>2015-09-23T15:22:34Z</time>
      </trkpt>
      <trkpt lat="45.74434" lon="4.85881">
        <ele>172.4</ele>
        <time>2015-09-23T15:22:35Z</time>
      </trkpt>
      <trkpt lat="45.74438" lon="4.85885">
        <ele>172.4</ele>
        <time>2015-09-23T15:22:36Z</time>
      </trkpt>
      <trkpt lat="45.7444" lon="4.8589">
        <ele>172.5</ele>
        <time>2015-09-23T15:22:37Z</time>
      </trkpt>
      <trkpt lat="45.74443" lon="4.85893">
        <ele>172.5</ele>
        <time>2015-09-23T15:22:38Z</time>
      </trkpt>
      <trkpt lat="45.74447" lon="4.85892">
        <ele>172.4</ele>
        <time>2015-09-23T15:22:39Z</time>
      </trkpt>
      <trkpt lat="45.74451" lon="4.8589">
        <ele>172.3</ele>
        <time>2015-09-23T15:22:40Z</time>
      </trkpt>
      <trkpt lat="45.74457" lon="4.85889">
        <ele>172.2</ele>
        <time>2015-09-23T15:22:41Z</time>
      </trkpt>
      <trkpt lat="45.74463" lon="4.8589">
        <ele>172.2</ele>
        <time>2015-09-23T15:22:42Z</time>
      </trkpt>
      <trkpt lat="45.74469" lon="4.85892">
        <ele>172.2</ele>
        <time>2015-09-23T15:22:43Z</time>
      </trkpt>
      <trkpt lat="45.74475" lon="4.85894">
        <ele>172.2</ele>
        <time>2015-09-23T15:22:44Z</time>
      </trkpt>
      <trkpt lat="45.74483" lon="4.85897">
        <ele>172.2</ele>
        <time>2015-09-23T15:22:45Z</time>
      </trkpt>
      <trkpt lat="45.74491" lon="4.85899">
        <ele>172.2</ele>
        <time>2015-09-23T15:22:46Z</time>
      </trkpt>
      <trkpt lat="45.74499" lon="4.85901">
        <ele>172.2</ele>
        <time>2015-09-23T15:22:47Z</time>
      </trkpt>
      <trkpt lat="45.74506" lon="4.85903">
        <ele>172.1</ele>
        <time>2015-09-23T15:22:48Z</time>
      </trkpt>
      <trkpt lat="45.74513" lon="4.85905">
        <ele>172.1</ele>
        <time>2015-09-23T15:22:49Z</time>
      </trkpt>
      <trkpt lat="45.74519" lon="4.85906">
        <ele>172</ele>
        <time>2015-09-23T15:22:50Z</time>
      </trkpt>
      <trkpt lat="45.74526" lon="4.85907">
        <ele>172</ele>
        <time>2015-09-23T15:22:51Z</time>
      </trkpt>
      <trkpt lat="45.74533" lon="4.85908">
        <ele>171.9</ele>
        <time>2015-09-23T15:22:52Z</time>
      </trkpt>
      <trkpt lat="45.74539" lon="4.85909">
        <ele>171.8</ele>
        <time>2015-09-23T15:22:53Z</time>
      </trkpt>
      <trkpt lat="45.74545" lon="4.85912">
        <ele>171.7</ele>
        <time>2015-09-23T15:22:54Z</time>
      </trkpt>
      <trkpt lat="45.74551" lon="4.85913">
        <ele>171.7</ele>
        <time>2015-09-23T15:22:55Z</time>
      </trkpt>
      <trkpt lat="45.74559" lon="4.85916">
        <ele>171.6</ele>
        <time>2015-09-23T15:22:56Z</time>
      </trkpt>
      <trkpt lat="45.74565" lon="4.85918">
        <ele>171.6</ele>
        <time>2015-09-23T15:22:57Z</time>
      </trkpt>
      <trkpt lat="45.74574" lon="4.8592">
        <ele>171.6</ele>
        <time>2015-09-23T15:22:58Z</time>
      </trkpt>
      <trkpt lat="45.74581" lon="4.85921">
        <ele>171.6</ele>
        <time>2015-09-23T15:22:59Z</time>
      </trkpt>
      <trkpt lat="45.74588" lon="4.85923">
        <ele>171.6</ele>
        <time>2015-09-23T15:23:00Z</time>
      </trkpt>
      <trkpt lat="45.74594" lon="4.85925">
        <ele>171.6</ele>
        <time>2015-09-23T15:23:01Z</time>
      </trkpt>
      <trkpt lat="45.74601" lon="4.85928">
        <ele>171.6</ele>
        <time>2015-09-23T15:23:02Z</time>
      </trkpt>
      <trkpt lat="45.74607" lon="4.85929">
        <ele>171.6</ele>
        <time>2015-09-23T15:23:03Z</time>
      </trkpt>
      <trkpt lat="45.74614" lon="4.85932">
        <ele>171.6</ele>
        <time>2015-09-23T15:23:04Z</time>
      </trkpt>
      <trkpt lat="45.74621" lon="4.85934">
        <ele>171.5</ele>
        <time>2015-09-23T15:23:05Z</time>
      </trkpt>
      <trkpt lat="45.74628" lon="4.85937">
        <ele>171.6</ele>
        <time>2015-09-23T15:23:06Z</time>
      </trkpt>
      <trkpt lat="45.74635" lon="4.85938">
        <ele>171.7</ele>
        <time>2015-09-23T15:23:07Z</time>
      </trkpt>
      <trkpt lat="45.74642" lon="4.85939">
        <ele>171.9</ele>
        <time>2015-09-23T15:23:08Z</time>
      </trkpt>
      <trkpt lat="45.74649" lon="4.8594">
        <ele>172</ele>
        <time>2015-09-23T15:23:09Z</time>
      </trkpt>
      <trkpt lat="45.74656" lon="4.85941">
        <ele>172.2</ele>
        <time>2015-09-23T15:23:10Z</time>
      </trkpt>
      <trkpt lat="45.74663" lon="4.85942">
        <ele>172.3</ele>
        <time>2015-09-23T15:23:11Z</time>
      </trkpt>
      <trkpt lat="45.7467" lon="4.85944">
        <ele>172.4</ele>
        <time>2015-09-23T15:23:12Z</time>
      </trkpt>
      <trkpt lat="45.74677" lon="4.85947">
        <ele>172.5</ele>
        <time>2015-09-23T15:23:13Z</time>
      </trkpt>
      <trkpt lat="45.74683" lon="4.85949">
        <ele>172.6</ele>
        <time>2015-09-23T15:23:14Z</time>
      </trkpt>
      <trkpt lat="45.74688" lon="4.85951">
        <ele>172.7</ele>
        <time>2015-09-23T15:23:15Z</time>
      </trkpt>
      <trkpt lat="45.74693" lon="4.85952">
        <ele>172.8</ele>
        <time>2015-09-23T15:23:16Z</time>
      </trkpt>
      <trkpt lat="45.74699" lon="4.85954">
        <ele>172.9</ele>
        <time>2015-09-23T15:23:17Z</time>
      </trkpt>
      <trkpt lat="45.74703" lon="4.85956">
        <ele>172.9</ele>
        <time>2015-09-23T15:23:18Z</time>
      </trkpt>
      <trkpt lat="45.74708" lon="4.85958">
        <ele>173</ele>
        <time>2015-09-23T15:23:20Z</time>
      </trkpt>
      <trkpt lat="45.74712" lon="4.85961">
        <ele>173.3</ele>
        <time>2015-09-23T15:23:38Z</time>
      </trkpt>
      <trkpt lat="45.74717" lon="4.85962">
        <ele>173.6</ele>
        <time>2015-09-23T15:23:40Z</time>
      </trkpt>
      <trkpt lat="45.7472" lon="4.85962">
        <ele>173.7</ele>
        <time>2015-09-23T15:23:41Z</time>
      </trkpt>
      <trkpt lat="45.74723" lon="4.85962">
        <ele>173.8</ele>
        <time>2015-09-23T15:23:42Z</time>
      </trkpt>
      <trkpt lat="45.74726" lon="4.85961">
        <ele>174</ele>
        <time>2015-09-23T15:23:43Z</time>
      </trkpt>
      <trkpt lat="45.7473" lon="4.85962">
        <ele>174.2</ele>
        <time>2015-09-23T15:23:44Z</time>
      </trkpt>
      <trkpt lat="45.74735" lon="4.85963">
        <ele>174.4</ele>
        <time>2015-09-23T15:23:45Z</time>
      </trkpt>
      <trkpt lat="45.7474" lon="4.85964">
        <ele>174.7</ele>
        <time>2015-09-23T15:23:46Z</time>
      </trkpt>
      <trkpt lat="45.74745" lon="4.85965">
        <ele>174.9</ele>
        <time>2015-09-23T15:23:47Z</time>
      </trkpt>
      <trkpt lat="45.7475" lon="4.85967">
        <ele>175.1</ele>
        <time>2015-09-23T15:23:48Z</time>
      </trkpt>
      <trkpt lat="45.74755" lon="4.85969">
        <ele>175.4</ele>
        <time>2015-09-23T15:23:49Z</time>
      </trkpt>
      <trkpt lat="45.74761" lon="4.8597">
        <ele>175.6</ele>
        <time>2015-09-23T15:23:50Z</time>
      </trkpt>
      <trkpt lat="45.74767" lon="4.85971">
        <ele>175.9</ele>
        <time>2015-09-23T15:23:51Z</time>
      </trkpt>
      <trkpt lat="45.74773" lon="4.85973">
        <ele>176.1</ele>
        <time>2015-09-23T15:23:52Z</time>
      </trkpt>
      <trkpt lat="45.74779" lon="4.85975">
        <ele>176.3</ele>
        <time>2015-09-23T15:23:53Z</time>
      </trkpt>
      <trkpt lat="45.74785" lon="4.85976">
        <ele>176.5</ele>
        <time>2015-09-23T15:23:54Z</time>
      </trkpt>
      <trkpt lat="45.74791" lon="4.85978">
        <ele>176.7</ele>
        <time>2015-09-23T15:23:55Z</time>
      </trkpt>
      <trkpt lat="45.74796" lon="4.85979">
        <ele>176.7</ele>
        <time>2015-09-23T15:23:56Z</time>
      </trkpt>
      <trkpt lat="45.74802" lon="4.85981">
        <ele>176.7</ele>
        <time>2015-09-23T15:23:57Z</time>
      </trkpt>
      <trkpt lat="45.74808" lon="4.85982">
        <ele>176.7</ele>
        <time>2015-09-23T15:23:58Z</time>
      </trkpt>
      <trkpt lat="45.74814" lon="4.85984">
        <ele>176.6</ele>
        <time>2015-09-23T15:23:59Z</time>
      </trkpt>
      <trkpt lat="45.7482" lon="4.85986">
        <ele>176.6</ele>
        <time>2015-09-23T15:24:00Z</time>
      </trkpt>
      <trkpt lat="45.74827" lon="4.85988">
        <ele>176.5</ele>
        <time>2015-09-23T15:24:01Z</time>
      </trkpt>
      <trkpt lat="45.74833" lon="4.8599">
        <ele>176.4</ele>
        <time>2015-09-23T15:24:02Z</time>
      </trkpt>
      <trkpt lat="45.74839" lon="4.85991">
        <ele>176.4</ele>
        <time>2015-09-23T15:24:03Z</time>
      </trkpt>
      <trkpt lat="45.74844" lon="4.85993">
        <ele>176.3</ele>
        <time>2015-09-23T15:24:04Z</time>
      </trkpt>
      <trkpt lat="45.74851" lon="4.85994">
        <ele>176.3</ele>
        <time>2015-09-23T15:24:05Z</time>
      </trkpt>
      <trkpt lat="45.74857" lon="4.85996">
        <ele>176.2</ele>
        <time>2015-09-23T15:24:06Z</time>
      </trkpt>
      <trkpt lat="45.74863" lon="4.85999">
        <ele>176.1</ele>
        <time>2015-09-23T15:24:07Z</time>
      </trkpt>
      <trkpt lat="45.74869" lon="4.86">
        <ele>176</ele>
        <time>2015-09-23T15:24:08Z</time>
      </trkpt>
      <trkpt lat="45.74875" lon="4.86002">
        <ele>176</ele>
        <time>2015-09-23T15:24:09Z</time>
      </trkpt>
      <trkpt lat="45.74881" lon="4.86004">
        <ele>175.8</ele>
        <time>2015-09-23T15:24:10Z</time>
      </trkpt>
      <trkpt lat="45.74887" lon="4.86005">
        <ele>175.6</ele>
        <time>2015-09-23T15:24:11Z</time>
      </trkpt>
      <trkpt lat="45.74893" lon="4.86007">
        <ele>175.5</ele>
        <time>2015-09-23T15:24:12Z</time>
      </trkpt>
      <trkpt lat="45.74898" lon="4.8601">
        <ele>175.3</ele>
        <time>2015-09-23T15:24:13Z</time>
      </trkpt>
      <trkpt lat="45.74902" lon="4.86015">
        <ele>175.1</ele>
        <time>2015-09-23T15:24:14Z</time>
      </trkpt>
      <trkpt lat="45.74907" lon="4.8602">
        <ele>174.9</ele>
        <time>2015-09-23T15:24:15Z</time>
      </trkpt>
      <trkpt lat="45.74912" lon="4.86022">
        <ele>174.7</ele>
        <time>2015-09-23T15:24:16Z</time>
      </trkpt>
      <trkpt lat="45.74918" lon="4.86024">
        <ele>174.5</ele>
        <time>2015-09-23T15:24:17Z</time>
      </trkpt>
      <trkpt lat="45.7492" lon="4.86024">
        <ele>174.4</ele>
        <time>2015-09-23T15:24:18Z</time>
      </trkpt>
      <trkpt lat="45.74926" lon="4.86028">
        <ele>174.2</ele>
        <time>2015-09-23T15:24:20Z</time>
      </trkpt>
      <trkpt lat="45.74928" lon="4.86031">
        <ele>174.1</ele>
        <time>2015-09-23T15:24:21Z</time>
      </trkpt>
      <trkpt lat="45.74928" lon="4.86039">
        <ele>173.8</ele>
        <time>2015-09-23T15:24:23Z</time>
      </trkpt>
      <trkpt lat="45.74926" lon="4.86044">
        <ele>173.9</ele>
        <time>2015-09-23T15:24:24Z</time>
      </trkpt>
      <trkpt lat="45.74924" lon="4.86049">
        <ele>174.2</ele>
        <time>2015-09-23T15:24:25Z</time>
      </trkpt>
      <trkpt lat="45.74921" lon="4.86055">
        <ele>174.5</ele>
        <time>2015-09-23T15:24:26Z</time>
      </trkpt>
      <trkpt lat="45.74918" lon="4.86061">
        <ele>174.9</ele>
        <time>2015-09-23T15:24:27Z</time>
      </trkpt>
      <trkpt lat="45.74916" lon="4.86068">
        <ele>175.3</ele>
        <time>2015-09-23T15:24:28Z</time>
      </trkpt>
      <trkpt lat="45.74913" lon="4.86075">
        <ele>175.7</ele>
        <time>2015-09-23T15:24:29Z</time>
      </trkpt>
      <trkpt lat="45.74911" lon="4.86083">
        <ele>176.1</ele>
        <time>2015-09-23T15:24:30Z</time>
      </trkpt>
      <trkpt lat="45.74909" lon="4.8609">
        <ele>176.5</ele>
        <time>2015-09-23T15:24:31Z</time>
      </trkpt>
      <trkpt lat="45.74906" lon="4.86098">
        <ele>177</ele>
        <time>2015-09-23T15:24:32Z</time>
      </trkpt>
      <trkpt lat="45.74903" lon="4.86106">
        <ele>177.4</ele>
        <time>2015-09-23T15:24:33Z</time>
      </trkpt>
      <trkpt lat="45.749" lon="4.86116">
        <ele>177.9</ele>
        <time>2015-09-23T15:24:34Z</time>
      </trkpt>
      <trkpt lat="45.74897" lon="4.86124">
        <ele>178.4</ele>
        <time>2015-09-23T15:24:35Z</time>
      </trkpt>
      <trkpt lat="45.74893" lon="4.86131">
        <ele>178.7</ele>
        <time>2015-09-23T15:24:36Z</time>
      </trkpt>
      <trkpt lat="45.7489" lon="4.8614">
        <ele>178.9</ele>
        <time>2015-09-23T15:24:37Z</time>
      </trkpt>
      <trkpt lat="45.74887" lon="4.86148">
        <ele>179.2</ele>
        <time>2015-09-23T15:24:38Z</time>
      </trkpt>
      <trkpt lat="45.74885" lon="4.86156">
        <ele>179.4</ele>
        <time>2015-09-23T15:24:39Z</time>
      </trkpt>
      <trkpt lat="45.74882" lon="4.86165">
        <ele>179.7</ele>
        <time>2015-09-23T15:24:40Z</time>
      </trkpt>
      <trkpt lat="45.74878" lon="4.86172">
        <ele>180</ele>
        <time>2015-09-23T15:24:41Z</time>
      </trkpt>
      <trkpt lat="45.74876" lon="4.8618">
        <ele>180.3</ele>
        <time>2015-09-23T15:24:42Z</time>
      </trkpt>
      <trkpt lat="45.74873" lon="4.8619">
        <ele>180.5</ele>
        <time>2015-09-23T15:24:43Z</time>
      </trkpt>
      <trkpt lat="45.74869" lon="4.86199">
        <ele>180.6</ele>
        <time>2015-09-23T15:24:44Z</time>
      </trkpt>
      <trkpt lat="45.74867" lon="4.86207">
        <ele>180.7</ele>
        <time>2015-09-23T15:24:45Z</time>
      </trkpt>
      <trkpt lat="45.74864" lon="4.86215">
        <ele>180.3</ele>
        <time>2015-09-23T15:24:46Z</time>
      </trkpt>
      <trkpt lat="45.74861" lon="4.86224">
        <ele>179.8</ele>
        <time>2015-09-23T15:24:47Z</time>
      </trkpt>
      <trkpt lat="45.74858" lon="4.86232">
        <ele>179.3</ele>
        <time>2015-09-23T15:24:48Z</time>
      </trkpt>
      <trkpt lat="45.74855" lon="4.86241">
        <ele>178.8</ele>
        <time>2015-09-23T15:24:49Z</time>
      </trkpt>
      <trkpt lat="45.74852" lon="4.86249">
        <ele>178.4</ele>
        <time>2015-09-23T15:24:50Z</time>
      </trkpt>
      <trkpt lat="45.74839" lon="4.86285">
        <ele>176.4</ele>
        <time>2015-09-23T15:24:54Z</time>
      </trkpt>
      <trkpt lat="45.74836" lon="4.86293">
        <ele>176</ele>
        <time>2015-09-23T15:24:55Z</time>
      </trkpt>
      <trkpt lat="45.74833" lon="4.86302">
        <ele>175.8</ele>
        <time>2015-09-23T15:24:56Z</time>
      </trkpt>
      <trkpt lat="45.74829" lon="4.86309">
        <ele>175.6</ele>
        <time>2015-09-23T15:24:57Z</time>
      </trkpt>
      <trkpt lat="45.74825" lon="4.86316">
        <ele>175.4</ele>
        <time>2015-09-23T15:24:58Z</time>
      </trkpt>
      <trkpt lat="45.74822" lon="4.86324">
        <ele>175.2</ele>
        <time>2015-09-23T15:24:59Z</time>
      </trkpt>
      <trkpt lat="45.7482" lon="4.8633">
        <ele>175.1</ele>
        <time>2015-09-23T15:25:00Z</time>
      </trkpt>
      <trkpt lat="45.74817" lon="4.86338">
        <ele>174.9</ele>
        <time>2015-09-23T15:25:01Z</time>
      </trkpt>
      <trkpt lat="45.74815" lon="4.86345">
        <ele>174.8</ele>
        <time>2015-09-23T15:25:02Z</time>
      </trkpt>
      <trkpt lat="45.74809" lon="4.86369">
        <ele>174.3</ele>
        <time>2015-09-23T15:25:05Z</time>
      </trkpt>
      <trkpt lat="45.74807" lon="4.86375">
        <ele>174.2</ele>
        <time>2015-09-23T15:25:06Z</time>
      </trkpt>
      <trkpt lat="45.74805" lon="4.86383">
        <ele>174.4</ele>
        <time>2015-09-23T15:25:07Z</time>
      </trkpt>
      <trkpt lat="45.74803" lon="4.86392">
        <ele>174.6</ele>
        <time>2015-09-23T15:25:08Z</time>
      </trkpt>
      <trkpt lat="45.74802" lon="4.86398">
        <ele>174.8</ele>
        <time>2015-09-23T15:25:09Z</time>
      </trkpt>
      <trkpt lat="45.74802" lon="4.86405">
        <ele>175</ele>
        <time>2015-09-23T15:25:10Z</time>
      </trkpt>
      <trkpt lat="45.74806" lon="4.86415">
        <ele>175.3</ele>
        <time>2015-09-23T15:25:11Z</time>
      </trkpt>
      <trkpt lat="45.74811" lon="4.86418">
        <ele>175.3</ele>
        <time>2015-09-23T15:25:12Z</time>
      </trkpt>
      <trkpt lat="45.74816" lon="4.86421">
        <ele>175.3</ele>
        <time>2015-09-23T15:25:13Z</time>
      </trkpt>
      <trkpt lat="45.74821" lon="4.86423">
        <ele>175.3</ele>
        <time>2015-09-23T15:25:14Z</time>
      </trkpt>
      <trkpt lat="45.74827" lon="4.86426">
        <ele>175.2</ele>
        <time>2015-09-23T15:25:15Z</time>
      </trkpt>
      <trkpt lat="45.74832" lon="4.86429">
        <ele>175.2</ele>
        <time>2015-09-23T15:25:16Z</time>
      </trkpt>
      <trkpt lat="45.74837" lon="4.86431">
        <ele>175.1</ele>
        <time>2015-09-23T15:25:17Z</time>
      </trkpt>
      <trkpt lat="45.74842" lon="4.86434">
        <ele>175</ele>
        <time>2015-09-23T15:25:18Z</time>
      </trkpt>
      <trkpt lat="45.74849" lon="4.86437">
        <ele>174.9</ele>
        <time>2015-09-23T15:25:19Z</time>
      </trkpt>
      <trkpt lat="45.74854" lon="4.8644">
        <ele>174.7</ele>
        <time>2015-09-23T15:25:20Z</time>
      </trkpt>
      <trkpt lat="45.74859" lon="4.86442">
        <ele>174.6</ele>
        <time>2015-09-23T15:25:21Z</time>
      </trkpt>
      <trkpt lat="45.74863" lon="4.86444">
        <ele>174.5</ele>
        <time>2015-09-23T15:25:22Z</time>
      </trkpt>
      <trkpt lat="45.74868" lon="4.86448">
        <ele>174.3</ele>
        <time>2015-09-23T15:25:23Z</time>
      </trkpt>
      <trkpt lat="45.7487" lon="4.86452">
        <ele>174.2</ele>
        <time>2015-09-23T15:25:24Z</time>
      </trkpt>
      <trkpt lat="45.74867" lon="4.86468">
        <ele>174.3</ele>
        <time>2015-09-23T15:25:26Z</time>
      </trkpt>
      <trkpt lat="45.74865" lon="4.86475">
        <ele>174.4</ele>
        <time>2015-09-23T15:25:27Z</time>
      </trkpt>
      <trkpt lat="45.74864" lon="4.86482">
        <ele>174.5</ele>
        <time>2015-09-23T15:25:28Z</time>
      </trkpt>
      <trkpt lat="45.74862" lon="4.86488">
        <ele>174.5</ele>
        <time>2015-09-23T15:25:29Z</time>
      </trkpt>
      <trkpt lat="45.7486" lon="4.86494">
        <ele>174.6</ele>
        <time>2015-09-23T15:25:30Z</time>
      </trkpt>
      <trkpt lat="45.74859" lon="4.86501">
        <ele>174.6</ele>
        <time>2015-09-23T15:25:31Z</time>
      </trkpt>
      <trkpt lat="45.74857" lon="4.86507">
        <ele>174.6</ele>
        <time>2015-09-23T15:25:32Z</time>
      </trkpt>
      <trkpt lat="45.74856" lon="4.86513">
        <ele>174.6</ele>
        <time>2015-09-23T15:25:33Z</time>
      </trkpt>
      <trkpt lat="45.74854" lon="4.8652">
        <ele>174.6</ele>
        <time>2015-09-23T15:25:34Z</time>
      </trkpt>
      <trkpt lat="45.74852" lon="4.86526">
        <ele>174.5</ele>
        <time>2015-09-23T15:25:35Z</time>
      </trkpt>
      <trkpt lat="45.74851" lon="4.86532">
        <ele>174.5</ele>
        <time>2015-09-23T15:25:36Z</time>
      </trkpt>
      <trkpt lat="45.74849" lon="4.86539">
        <ele>174.4</ele>
        <time>2015-09-23T15:25:37Z</time>
      </trkpt>
      <trkpt lat="45.74848" lon="4.86544">
        <ele>174.4</ele>
        <time>2015-09-23T15:25:38Z</time>
      </trkpt>
      <trkpt lat="45.74846" lon="4.8655">
        <ele>174.3</ele>
        <time>2015-09-23T15:25:39Z</time>
      </trkpt>
      <trkpt lat="45.74845" lon="4.86556">
        <ele>174.3</ele>
        <time>2015-09-23T15:25:40Z</time>
      </trkpt>
      <trkpt lat="45.74855" lon="4.86568">
        <ele>174.7</ele>
        <time>2015-09-23T15:25:41Z</time>
      </trkpt>
      <trkpt lat="45.7486" lon="4.8657">
        <ele>174.9</ele>
        <time>2015-09-23T15:25:43Z</time>
      </trkpt>
      <trkpt lat="45.74867" lon="4.86573">
        <ele>175.1</ele>
        <time>2015-09-23T15:25:44Z</time>
      </trkpt>
      <trkpt lat="45.74873" lon="4.86576">
        <ele>175.3</ele>
        <time>2015-09-23T15:25:45Z</time>
      </trkpt>
      <trkpt lat="45.74879" lon="4.86579">
        <ele>175.4</ele>
        <time>2015-09-23T15:25:46Z</time>
      </trkpt>
      <trkpt lat="45.74885" lon="4.86582">
        <ele>175.2</ele>
        <time>2015-09-23T15:25:47Z</time>
      </trkpt>
      <trkpt lat="45.74892" lon="4.86585">
        <ele>175.1</ele>
        <time>2015-09-23T15:25:48Z</time>
      </trkpt>
      <trkpt lat="45.74898" lon="4.86589">
        <ele>175</ele>
        <time>2015-09-23T15:25:49Z</time>
      </trkpt>
      <trkpt lat="45.74904" lon="4.86592">
        <ele>174.9</ele>
        <time>2015-09-23T15:25:50Z</time>
      </trkpt>
      <trkpt lat="45.74911" lon="4.86596">
        <ele>174.8</ele>
        <time>2015-09-23T15:25:51Z</time>
      </trkpt>
      <trkpt lat="45.74916" lon="4.86599">
        <ele>174.7</ele>
        <time>2015-09-23T15:25:52Z</time>
      </trkpt>
      <trkpt lat="45.74922" lon="4.86602">
        <ele>174.6</ele>
        <time>2015-09-23T15:25:53Z</time>
      </trkpt>
      <trkpt lat="45.74928" lon="4.86605">
        <ele>174.5</ele>
        <time>2015-09-23T15:25:54Z</time>
      </trkpt>
      <trkpt lat="45.74932" lon="4.86607">
        <ele>174.4</ele>
        <time>2015-09-23T15:25:55Z</time>
      </trkpt>
      <trkpt lat="45.74937" lon="4.8661">
        <ele>174.3</ele>
        <time>2015-09-23T15:25:56Z</time>
      </trkpt>
      <trkpt lat="45.7494" lon="4.86612">
        <ele>174.3</ele>
        <time>2015-09-23T15:25:57Z</time>
      </trkpt>
      <trkpt lat="45.74944" lon="4.86644">
        <ele>174.7</ele>
        <time>2015-09-23T15:26:03Z</time>
      </trkpt>
      <trkpt lat="45.74945" lon="4.86651">
        <ele>174.8</ele>
        <time>2015-09-23T15:26:05Z</time>
      </trkpt>
      <trkpt lat="45.74942" lon="4.86657">
        <ele>175.1</ele>
        <time>2015-09-23T15:26:06Z</time>
      </trkpt>
      <trkpt lat="45.74944" lon="4.8666">
        <ele>175.1</ele>
        <time>2015-09-23T15:26:07Z</time>
      </trkpt>
      <trkpt lat="45.74942" lon="4.86665">
        <ele>175.2</ele>
        <time>2015-09-23T15:26:08Z</time>
      </trkpt>
    </trkseg>
  </trk>
</gpx>